[[{"header":{"parameterUnit":"m.s-1","parameterCategory":1,"la1":30.6,"la2":29.2853,"lo1":-89.7004,"lo2":-87.6739,"dy":0.0162,"dx":0.0183,"nx":112,"ny":82,"refTime":"2023-11-22T06:00:00:Z","depth":0,"parameterNumber":2,"parameterNumberName":"U-component_of_WINDS"},"data":[0.0,0.0,0.0,0.0,0.0,0.0,0.0,0.0,0.0,0.0,0.0,0.0,0.0,0.0,0.0,0.0,0.0,0.0,0.0,0.0,0.0,0.0,0.0,0.0,0.0,0.0,0.0,0.0,0.0,0.0,0.0,0.0,0.0,0.0,0.0,0.0,0.0,0.0,0.0,0.0,0.0,0.0,0.0,0.0,0.0,0.0,0.0,0.0,0.0,0.0,0.0,0.0,0.0,0.0,0.0,0.0,0.0,0.0,0.0,0.0,0.0,0.0,0.0,0.0,0.0,0.0,0.0,0.0,0.0,0.0,0.0,0.0,0.0,0.0,0.0,0.0,0.0,0.0,0.0,0.0,0.0,0.0,0.0,0.0,0.0,0.0,0.0,0.0,0.0,0.0,0.0,3.4811,3.9192,4.2263,4.2965,4.2159,3.9848,3.5639,0.0,0.0,0.0,0.0,0.0,0.0,0.0,0.0,0.0,0.0,0.0,0.0,0.0,0.0,0.0,0.0,0.0,0.0,0.0,0.0,0.0,0.0,0.0,0.0,0.0,0.0,0.0,0.0,0.0,0.0,0.0,0.0,0.0,0.0,0.0,0.0,0.0,0.0,0.0,0.0,0.0,0.0,0.0,0.0,0.0,0.0,0.0,0.0,0.0,0.0,0.0,0.0,0.0,0.0,0.0,0.0,0.0,0.0,0.0,0.0,0.0,0.0,0.0,0.0,0.0,0.0,0.0,0.0,0.0,0.0,0.0,0.0,0.0,0.0,0.0,0.0,0.0,0.0,0.0,0.0,0.0,0.0,0.0,0.0,0.0,0.0,0.0,0.0,0.0,0.0,0.0,0.0,0.0,0.0,0.0,0.0,0.0,0.0,0.0,0.0,0.0,0.0,0.0,0.0,3.4421,3.8422,4.0745,4.2056,4.2159,4.0883,3.8939,3.6284,0.0,0.0,0.0,0.0,0.0,0.0,0.0,0.0,0.0,0.0,0.0,0.0,0.0,0.0,0.0,0.0,0.0,0.0,0.0,0.0,0.0,0.0,0.0,0.0,0.0,0.0,0.0,0.0,0.0,0.0,0.0,0.0,0.0,0.0,0.0,0.0,0.0,0.0,0.0,0.0,0.0,0.0,0.0,0.0,0.0,0.0,0.0,0.0,0.0,0.0,0.0,0.0,0.0,0.0,0.0,0.0,0.0,0.0,0.0,0.0,0.0,0.0,0.0,0.0,0.0,0.0,0.0,0.0,0.0,0.0,0.0,0.0,0.0,0.0,0.0,0.0,0.0,0.0,0.0,0.0,0.0,0.0,0.0,0.0,0.0,0.0,0.0,0.0,0.0,0.0,0.0,0.0,0.0,0.0,0.0,0.0,0.0,0.0,0.0,0.0,0.0,0.0,0.0,3.4007,3.5904,4.0469,4.1228,4.1573,4.1952,4.0227,3.8295,3.6422,3.5163,0.0,0.0,0.0,0.0,0.0,0.0,0.0,0.0,0.0,0.0,0.0,0.0,0.0,0.0,0.0,0.0,0.0,0.0,0.0,0.0,0.0,0.0,0.0,0.0,0.0,0.0,0.0,0.0,0.0,0.0,0.0,0.0,0.0,0.0,0.0,0.0,0.0,0.0,0.0,0.0,0.0,0.0,0.0,0.0,0.0,0.0,0.0,0.0,0.0,0.0,0.0,0.0,0.0,0.0,0.0,0.0,0.0,0.0,0.0,0.0,0.0,0.0,0.0,0.0,0.0,0.0,0.0,0.0,0.0,0.0,0.0,0.0,0.0,0.0,0.0,0.0,0.0,0.0,0.0,0.0,0.0,0.0,0.0,0.0,0.0,0.0,0.0,0.0,0.0,0.0,0.0,0.0,0.0,0.0,0.0,0.0,0.0,0.0,0.0,0.0,0.0,0.0,3.6363,3.7295,4.1297,4.124,4.1136,4.1676,3.9641,3.7767,3.6355,3.462,0.0,0.0,0.0,0.0,0.0,0.0,0.0,0.0,0.0,0.0,0.0,0.0,0.0,0.0,0.0,0.0,0.0,0.0,0.0,0.0,0.0,0.0,0.0,0.0,0.0,0.0,0.0,0.0,0.0,0.0,0.0,0.0,0.0,0.0,0.0,0.0,0.0,0.0,0.0,0.0,0.0,0.0,0.0,0.0,0.0,0.0,0.0,0.0,0.0,0.0,0.0,0.0,0.0,0.0,0.0,0.0,0.0,0.0,0.0,0.0,0.0,0.0,0.0,0.0,0.0,0.0,0.0,0.0,0.0,0.0,0.0,0.0,0.0,0.0,0.0,0.0,0.0,0.0,0.0,0.0,0.0,0.0,0.0,0.0,0.0,0.0,0.0,0.0,0.0,0.0,0.0,0.0,0.0,0.0,0.0,0.0,0.0,0.0,0.0,0.0,0.0,0.0,3.695,3.8261,4.0722,4.0917,4.0929,4.0963,3.8882,3.7182,3.626,3.4099,0.0,0.0,0.0,0.0,0.0,0.0,0.0,0.0,0.0,0.0,0.0,0.0,0.0,0.0,0.0,0.0,0.0,0.0,0.0,0.0,0.0,0.0,0.0,0.0,0.0,0.0,0.0,0.0,0.0,0.0,0.0,0.0,0.0,0.0,0.0,0.0,0.0,0.0,0.0,0.0,0.0,0.0,0.0,0.0,0.0,0.0,0.0,0.0,0.0,0.0,0.0,0.0,0.0,0.0,0.0,0.0,0.0,0.0,0.0,0.0,0.0,0.0,0.0,0.0,0.0,0.0,0.0,0.0,0.0,0.0,0.0,0.0,0.0,0.0,0.0,0.0,0.0,0.0,0.0,0.0,0.0,0.0,0.0,0.0,0.0,0.0,0.0,0.0,0.0,0.0,0.0,0.0,0.0,0.0,0.0,0.0,0.0,0.0,0.0,0.0,0.0,0.0,3.7709,3.8882,0.0,4.0846,4.0798,4.0798,3.9032,3.7591,3.6794,0.0,0.0,0.0,0.0,0.0,0.0,0.0,0.0,0.0,0.0,0.0,0.0,0.0,0.0,0.0,0.0,0.0,0.0,0.0,0.0,0.0,0.0,0.0,0.0,0.0,0.0,0.0,0.0,0.0,0.0,0.0,0.0,0.0,0.0,0.0,0.0,0.0,0.0,0.0,0.0,0.0,0.0,0.0,0.0,0.0,0.0,0.0,0.0,0.0,0.0,0.0,0.0,0.0,0.0,0.0,0.0,0.0,0.0,0.0,0.0,0.0,0.0,0.0,0.0,0.0,0.0,0.0,0.0,0.0,0.0,0.0,0.0,0.0,0.0,0.0,0.0,0.0,0.0,0.0,0.0,0.0,0.0,0.0,0.0,0.0,0.0,0.0,0.0,0.0,0.0,0.0,0.0,0.0,0.0,0.0,0.0,0.0,0.0,0.0,0.0,0.0,0.0,3.7236,3.8364,3.9411,0.0,4.074,4.0702,4.0631,3.8926,3.7627,3.7115,0.0,0.0,0.0,0.0,0.0,0.0,0.0,0.0,0.0,0.0,0.0,0.0,0.0,0.0,0.0,0.0,0.0,0.0,0.0,0.0,0.0,0.0,0.0,0.0,0.0,0.0,0.0,0.0,0.0,0.0,0.0,0.0,0.0,0.0,0.0,0.0,0.0,0.0,0.0,0.0,0.0,0.0,0.0,0.0,0.0,0.0,0.0,0.0,0.0,0.0,0.0,0.0,0.0,0.0,0.0,0.0,0.0,0.0,0.0,0.0,0.0,0.0,0.0,0.0,0.0,0.0,0.0,0.0,0.0,0.0,0.0,0.0,0.0,0.0,0.0,0.0,0.0,0.0,0.0,0.0,0.0,0.0,0.0,0.0,0.0,0.0,0.0,0.0,0.0,0.0,0.0,0.0,0.0,0.0,0.0,0.0,0.0,0.0,0.0,0.0,0.0,0.0,3.7295,3.8801,3.9962,4.0623,4.0714,4.0631,4.051,3.8435,3.707,0.0,0.0,0.0,0.0,0.0,0.0,0.0,0.0,0.0,0.0,0.0,0.0,0.0,0.0,0.0,0.0,0.0,0.0,0.0,0.0,0.0,0.0,0.0,0.0,0.0,0.0,0.0,0.0,0.0,0.0,0.0,0.0,0.0,0.0,0.0,0.0,0.0,0.0,0.0,0.0,0.0,0.0,0.0,0.0,0.0,0.0,0.0,0.0,0.0,0.0,0.0,0.0,0.0,0.0,0.0,0.0,0.0,0.0,0.0,0.0,0.0,0.0,0.0,0.0,0.0,0.0,0.0,0.0,0.0,0.0,0.0,0.0,0.0,0.0,0.0,0.0,0.0,0.0,0.0,0.0,0.0,0.0,0.0,0.0,0.0,0.0,0.0,0.0,0.0,0.0,0.0,0.0,0.0,0.0,0.0,0.0,0.0,0.0,0.0,0.0,0.0,0.0,0.0,3.8012,3.9386,4.0321,4.0524,4.0461,4.0387,4.035,3.8688,3.7667,3.7643,0.0,0.0,0.0,0.0,0.0,0.0,0.0,0.0,0.0,0.0,0.0,0.0,0.0,0.0,0.0,0.0,0.0,0.0,0.0,0.0,0.0,0.0,0.0,0.0,0.0,0.0,0.0,0.0,0.0,0.0,0.0,0.0,0.0,0.0,0.0,0.0,0.0,0.0,0.0,0.0,0.0,0.0,0.0,0.0,0.0,0.0,0.0,0.0,0.0,0.0,0.0,0.0,0.0,0.0,0.0,0.0,0.0,0.0,0.0,0.0,0.0,0.0,0.0,0.0,0.0,0.0,0.0,0.0,0.0,0.0,0.0,0.0,0.0,0.0,0.0,0.0,0.0,0.0,0.0,0.0,0.0,0.0,0.0,0.0,0.0,0.0,0.0,0.0,0.0,0.0,0.0,0.0,0.0,0.0,0.0,0.0,0.0,0.0,0.0,0.0,0.0,0.0,3.822,3.9611,4.0485,4.0424,4.0337,4.0275,4.0226,3.8783,3.7793,3.7599,0.0,0.0,0.0,0.0,0.0,0.0,0.0,0.0,0.0,0.0,0.0,0.0,0.0,0.0,0.0,0.0,0.0,0.0,0.0,0.0,0.0,0.0,0.0,0.0,0.0,0.0,0.0,0.0,0.0,0.0,0.0,0.0,0.0,0.0,0.0,0.0,0.0,0.0,0.0,0.0,0.0,0.0,0.0,0.0,0.0,0.0,0.0,0.0,0.0,0.0,0.0,0.0,0.0,0.0,0.0,0.0,0.0,0.0,0.0,0.0,0.0,0.0,0.0,0.0,0.0,0.0,0.0,0.0,0.0,0.0,0.0,0.0,0.0,0.0,0.0,0.0,0.0,0.0,0.0,0.0,0.0,0.0,0.0,0.0,0.0,0.0,0.0,0.0,0.0,0.0,0.0,0.0,0.0,0.0,0.0,0.0,0.0,0.0,0.0,0.0,0.0,0.0,3.8207,3.9573,4.0424,4.0288,4.0275,4.0226,4.0125,3.8802,3.7764,3.7207,0.0,0.0,0.0,0.0,0.0,0.0,0.0,0.0,0.0,0.0,0.0,0.0,0.0,0.0,0.0,0.0,0.0,0.0,0.0,0.0,0.0,0.0,0.0,0.0,0.0,0.0,0.0,0.0,0.0,0.0,0.0,0.0,0.0,0.0,0.0,0.0,0.0,0.0,0.0,0.0,0.0,0.0,0.0,0.0,0.0,0.0,0.0,0.0,0.0,0.0,0.0,0.0,0.0,0.0,0.0,0.0,0.0,0.0,0.0,0.0,3.3319,0.0,0.0,0.0,0.0,0.0,0.0,0.0,0.0,0.0,0.0,0.0,0.0,0.0,0.0,0.0,0.0,0.0,0.0,0.0,0.0,0.0,0.0,0.0,0.0,0.0,0.0,0.0,0.0,0.0,0.0,0.0,0.0,0.0,0.0,0.0,0.0,0.0,0.0,0.0,0.0,0.0,3.8884,3.9707,4.0188,4.015,4.015,4.0138,4.0113,3.9288,3.8449,3.7766,0.0,0.0,0.0,0.0,0.0,0.0,0.0,0.0,0.0,0.0,0.0,0.0,0.0,0.0,0.0,0.0,0.0,0.0,0.0,0.0,0.0,0.0,0.0,0.0,0.0,0.0,0.0,0.0,0.0,0.0,0.0,0.0,0.0,0.0,0.0,0.0,0.0,0.0,0.0,0.0,0.0,0.0,0.0,0.0,0.0,0.0,0.0,0.0,0.0,0.0,0.0,0.0,0.0,0.0,0.0,0.0,0.0,0.0,0.0,0.0,0.0,3.4461,0.0,0.0,0.0,0.0,0.0,0.0,0.0,0.0,0.0,0.0,0.0,0.0,0.0,0.0,0.0,0.0,0.0,0.0,0.0,0.0,0.0,0.0,0.0,0.0,0.0,0.0,0.0,0.0,0.0,0.0,0.0,0.0,0.0,0.0,0.0,0.0,0.0,0.0,0.0,0.0,3.951,4.0206,4.0641,4.0641,4.0641,4.0357,3.9729,3.9274,3.848,3.7275,3.6426,0.0,0.0,0.0,0.0,0.0,0.0,0.0,0.0,0.0,0.0,0.0,0.0,0.0,0.0,0.0,0.0,0.0,0.0,0.0,0.0,0.0,0.0,0.0,0.0,0.0,0.0,0.0,0.0,0.0,0.0,0.0,0.0,0.0,0.0,0.0,0.0,0.0,0.0,0.0,0.0,0.0,0.0,0.0,0.0,0.0,0.0,0.0,0.0,0.0,0.0,0.0,0.0,0.0,0.0,0.0,4.0795,4.1934,4.2804,4.3149,3.882,3.6795,3.6546,0.0,0.0,0.0,0.0,0.0,0.0,0.0,0.0,0.0,0.0,0.0,0.0,0.0,0.0,0.0,0.0,0.0,0.0,0.0,0.0,0.0,0.0,0.0,0.0,0.0,3.7827,3.7815,0.0,0.0,0.0,0.0,0.0,0.0,0.0,0.0,0.0,0.0,0.0,0.0,3.9711,4.0523,4.1028,4.1036,4.0936,4.0414,3.93,3.9,3.8222,3.6632,3.6234,3.6109,0.0,0.0,0.0,0.0,0.0,0.0,0.0,0.0,0.0,0.0,0.0,0.0,0.0,0.0,0.0,0.0,0.0,0.0,0.0,0.0,0.0,0.0,0.0,0.0,0.0,0.0,0.0,0.0,0.0,0.0,0.0,0.0,3.179,3.1887,0.0,0.0,0.0,0.0,0.0,0.0,0.0,0.0,0.0,0.0,0.0,0.0,0.0,0.0,3.8506,4.032,4.1318,4.1496,4.2954,4.3398,4.2921,4.3076,4.3222,4.3266,4.2587,0.0,4.0387,3.9193,0.0,0.0,0.0,0.0,0.0,0.0,0.0,0.0,0.0,0.0,0.0,0.0,0.0,0.0,0.0,0.0,0.0,0.0,0.0,0.0,0.0,0.0,3.8468,3.7977,3.8891,3.9261,0.0,3.7402,3.7877,3.7775,0.0,0.0,0.0,0.0,0.0,0.0,0.0,0.0,3.8589,3.9586,4.0348,4.0409,3.9892,3.9487,3.9304,3.8753,3.8015,3.7169,3.6624,3.629,3.6125,3.6063,0.0,0.0,0.0,0.0,0.0,0.0,0.0,0.0,0.0,0.0,0.0,0.0,0.0,0.0,0.0,0.0,0.0,0.0,0.0,0.0,0.0,0.0,0.0,0.0,0.0,0.0,0.0,0.0,0.0,3.2705,3.343,3.3176,3.3973,3.4439,0.0,0.0,0.0,0.0,0.0,0.0,0.0,0.0,0.0,3.9324,4.0465,4.1039,4.0944,4.2668,4.3567,4.3627,4.5425,4.6287,4.6366,4.7171,4.7595,4.7605,4.7168,4.6153,4.4611,4.1158,3.9268,3.8415,0.0,0.0,0.0,0.0,0.0,0.0,3.8931,0.0,0.0,0.0,0.0,0.0,0.0,0.0,0.0,0.0,0.0,0.0,0.0,0.0,0.0,3.976,4.0328,4.0516,3.9641,3.9719,3.9367,0.0,3.7132,3.7278,3.7483,0.0,0.0,0.0,0.0,0.0,3.9437,4.0315,4.0898,4.0906,4.0664,4.0174,3.9427,3.9035,3.8447,3.7424,3.6773,3.6535,3.6813,3.6178,3.621,0.0,0.0,0.0,0.0,0.0,0.0,0.0,0.0,0.0,0.0,0.0,0.0,0.0,0.0,0.0,0.0,0.0,0.0,0.0,0.0,0.0,0.0,0.0,0.0,0.0,0.0,0.0,0.0,3.3741,3.4786,3.4083,3.5422,3.6084,0.0,0.0,0.0,0.0,0.0,0.0,3.939,4.011,4.1087,4.2451,4.3804,4.4416,4.4278,4.5696,4.6526,4.6741,4.8463,4.9548,5.0073,5.0984,5.1332,5.1143,5.0358,4.9349,4.7882,4.3437,4.1037,4.0019,3.8855,3.8559,0.0,3.9794,4.0234,4.0558,4.1641,4.137,4.0546,4.0357,0.0,3.7782,3.71,0.0,0.0,0.0,0.0,3.8298,3.8847,0.0,4.0511,4.1403,4.1883,4.1995,4.1486,4.1644,4.0927,0.0,3.7726,3.8035,3.7643,0.0,0.0,0.0,0.0,3.9638,3.987,4.0619,4.1147,4.1167,4.1039,4.0515,3.9501,3.9072,3.8459,3.7556,3.6813,3.6644,3.7163,3.6409,3.6395,3.7241,0.0,0.0,0.0,0.0,0.0,0.0,0.0,0.0,0.0,0.0,0.0,0.0,0.0,0.0,0.0,0.0,0.0,0.0,0.0,0.0,0.0,0.0,0.0,0.0,0.0,0.0,0.0,0.0,0.0,3.3595,3.5683,0.0,0.0,0.0,0.0,3.8812,4.0277,4.171,4.3057,4.3833,4.4883,4.629,4.7033,4.7999,4.9313,5.0688,5.1726,5.2492,5.3217,5.3617,5.3617,5.305,5.2374,5.1629,5.095,5.024,4.9377,4.6567,4.4545,4.3106,4.2469,4.1724,4.1203,4.2654,4.2365,4.1542,4.3537,4.3049,4.169,4.2828,4.1768,3.9916,3.9237,3.9058,0.0,0.0,3.9996,4.1074,4.1062,4.2155,4.3138,4.2574,4.3451,4.3921,4.199,4.2539,4.2718,0.0,3.917,3.8543,3.9084,0.0,0.0,3.7523,3.9033,3.9856,3.8738,3.9671,4.0459,4.054,3.9978,3.956,3.9496,3.8327,3.7556,3.7492,3.6877,3.6507,3.6538,3.7027,3.7324,3.7383,3.7813,0.0,0.0,0.0,0.0,0.0,0.0,0.0,0.0,0.0,0.0,0.0,0.0,0.0,0.0,0.0,0.0,0.0,0.0,0.0,0.0,0.0,0.0,0.0,0.0,0.0,0.0,0.0,0.0,3.8385,3.9779,0.0,0.0,4.033,4.1058,4.1935,4.3318,4.488,4.6652,4.7869,4.913,5.0482,5.1599,5.2183,5.2267,5.3168,5.3573,5.3423,5.4106,5.4394,5.4417,5.4168,5.3453,5.2329,5.2082,5.1374,5.0257,4.9316,4.7543,4.5284,4.4204,4.358,4.3395,4.4378,4.4726,4.4893,4.6114,4.5784,4.465,4.3318,4.208,4.0968,4.0249,4.0046,4.003,4.0014,4.0718,4.1502,4.1469,4.2191,4.3063,4.3718,4.3894,4.3872,4.3593,4.3544,4.3196,4.2003,4.1011,4.0261,4.007,3.9863,3.9664,3.9393,4.0366,4.082,3.9896,4.0622,4.1014,4.0539,4.0307,4.0153,4.0153,3.8922,3.8138,3.8138,3.7123,3.6523,3.6523,3.6708,3.6831,3.6831,3.7384,3.7486,0.0,0.0,0.0,0.0,0.0,0.0,0.0,0.0,0.0,0.0,0.0,0.0,0.0,0.0,0.0,0.0,0.0,0.0,0.0,0.0,0.0,0.0,0.0,0.0,0.0,0.0,4.1265,4.1973,4.3521,4.4259,4.3598,4.4052,4.468,4.5471,4.6894,4.8487,5.0293,5.1487,5.2711,5.4058,5.5071,5.5439,5.5129,5.5749,5.5674,5.4934,5.5459,5.5653,5.5407,5.5137,5.4553,5.3683,5.3229,5.2522,5.1682,5.1467,5.0151,4.8105,4.6521,4.5581,4.5221,4.5936,4.6512,4.7006,4.7487,4.7397,4.6622,4.434,4.3156,4.2479,4.1771,4.1384,4.1261,4.1476,4.2048,4.2663,4.2879,4.3433,4.4172,4.5053,4.4929,4.4745,4.5176,4.4745,4.4129,4.371,4.2652,4.1594,4.0922,4.1031,4.114,4.0855,4.1434,4.1771,4.1261,4.1648,4.1678,4.0953,4.0861,4.0768,4.0505,3.9476,3.8738,3.8491,3.7461,3.6722,3.6507,3.6523,3.6523,3.6523,3.6907,3.7238,3.757,0.0,0.0,0.0,0.0,0.0,0.0,0.0,0.0,0.0,0.0,0.0,0.0,0.0,0.0,0.0,0.0,0.0,0.0,0.0,0.0,0.0,0.0,0.0,3.8368,4.1845,4.4334,4.4063,4.6671,4.7933,4.6549,4.7469,4.8511,4.946,5.1128,5.2661,5.3964,5.4661,5.5632,5.693,5.7242,5.7547,5.7931,5.846,5.8274,5.7276,5.7598,5.7408,5.6755,5.6053,5.5715,5.5622,5.4306,5.373,5.3691,5.3014,5.2337,5.1528,4.9466,4.7865,4.6757,4.7404,4.7619,4.7619,4.7619,4.7619,4.7404,4.608,4.5237,4.456,4.3901,4.3236,4.2848,4.3513,4.416,4.4806,4.5453,4.6111,4.6603,4.6634,4.6603,4.6603,4.6634,4.608,4.5638,4.5607,4.4018,4.2461,4.1771,4.2232,4.2448,4.1771,4.2232,0.0,4.2633,4.2633,4.2386,4.1709,4.1617,4.1309,4.0614,3.9876,3.9199,3.8522,3.7861,3.7184,3.6523,3.6523,3.6523,3.6523,3.6507,3.7103,3.8264,0.0,0.0,0.0,0.0,0.0,0.0,0.0,0.0,0.0,0.0,0.0,0.0,0.0,0.0,0.0,0.0,0.0,0.0,0.0,0.0,0.0,0.0,4.2971,4.3008,4.5556,4.7903,4.9221,5.1137,5.2138,5.153,5.2833,5.3806,5.406,5.5438,5.6389,5.6778,5.7901,5.8477,5.8356,5.8889,5.901,5.8629,5.7836,5.7278,5.702,5.6663,5.6506,5.6494,5.6085,5.5719,5.5367,5.4816,5.4382,5.4081,5.3415,5.2855,5.2267,5.0728,4.9589,4.881,4.845,4.8327,4.8327,4.8327,4.8327,4.8183,4.7342,4.6942,4.6634,4.5976,4.5649,4.5526,4.573,4.5895,4.608,4.6265,4.6449,4.6726,4.7219,4.6942,4.6726,4.7219,4.6788,4.6172,4.568,4.5157,4.4406,4.3236,4.3605,4.3821,4.3143,0.0,0.0,4.339,4.3328,4.3082,4.2386,4.1894,4.1524,4.1309,3.9753,3.8707,0.0,3.74,3.6692,3.6507,3.6523,3.6523,3.6523,3.6938,3.7328,0.0,0.0,0.0,0.0,0.0,0.0,0.0,0.0,0.0,0.0,0.0,0.0,0.0,0.0,0.0,0.0,0.0,0.0,0.0,0.0,0.0,0.0,4.4509,4.6984,4.8205,4.9733,5.1262,5.2858,5.4677,5.5771,5.5616,5.6606,5.729,5.7418,5.8282,5.8802,5.8802,5.9828,6.0099,5.9405,5.9901,5.978,5.8983,5.846,5.7996,5.7565,5.7051,5.6746,5.6621,5.6298,5.6006,0.0,5.5376,5.5112,5.4826,5.4135,5.3737,0.0,0.0,0.0,0.0,0.0,4.8583,4.8583,4.8583,4.8583,4.8522,4.8173,4.7835,4.7527,4.7127,4.6819,4.6603,4.6603,4.6788,4.7034,4.7034,4.7219,4.7558,4.7927,4.7742,4.7558,4.7907,4.7496,4.6911,4.6511,0.0,0.0,4.4991,4.4714,4.4468,4.4086,4.4344,4.4468,0.0,4.4006,4.3759,4.3094,4.2681,4.2202,4.1648,4.0478,0.0,0.0,0.0,3.7092,3.6507,3.6523,0.0,0.0,0.0,3.7013,0.0,0.0,0.0,0.0,3.9109,3.9487,0.0,0.0,0.0,0.0,0.0,0.0,0.0,0.0,0.0,0.0,0.0,0.0,0.0,0.0,0.0,0.0,4.7837,5.0833,5.3288,5.4029,5.4619,5.5414,5.7453,5.8757,5.8697,5.9144,5.9507,5.969,6.0074,6.0266,6.0234,0.0,0.0,0.0,0.0,6.0153,5.9099,5.964,5.9414,5.8456,5.8079,5.7572,5.696,5.6639,5.6457,5.6384,5.5967,5.5725,5.5705,5.4981,5.4698,5.4522,5.2553,5.0974,4.9712,4.9004,4.8706,0.0,0.0,0.0,0.0,4.8583,4.8183,4.7711,4.7711,4.7311,4.6819,4.6819,4.725,4.7711,4.7711,4.8173,4.8583,4.8583,4.8583,4.8583,4.8583,4.8122,4.7681,4.7619,4.7127,4.6696,4.6603,4.5607,4.4837,4.4837,4.4837,0.0,4.4714,4.4714,4.4437,4.3759,0.0,0.0,4.1832,4.1586,4.0662,3.8738,3.8522,3.7923,3.6677,3.6599,3.6584,3.6523,3.6523,3.6523,3.6523,3.7028,3.7298,3.7328,3.8548,3.9095,0.0,0.0,0.0,0.0,0.0,0.0,0.0,0.0,0.0,0.0,0.0,0.0,0.0,0.0,0.0,4.7965,5.1575,5.4606,5.6107,5.7775,5.8524,5.7663,5.9336,6.0381,5.9839,6.0832,6.1341,6.083,6.1371,6.1463,6.0954,6.1553,0.0,6.0144,6.119,6.092,5.9129,5.9207,5.8904,5.8165,0.0,0.0,5.7355,5.7106,5.6796,5.6542,5.6244,5.6058,5.5877,5.5183,5.4789,5.4553,5.3076,5.1682,5.042,4.9743,4.9497,4.9404,4.882,4.8583,4.8583,4.8583,4.8491,4.8399,4.8399,4.8327,0.0,4.8214,4.8307,4.8399,4.8399,4.8491,4.8583,4.8583,4.8583,4.8583,4.8583,4.8491,4.8245,4.7711,4.7496,4.725,4.6696,4.6388,4.6203,4.6203,4.6203,4.6038,4.5484,4.5422,4.5145,4.4468,4.3913,4.3267,4.2479,4.1353,4.0307,3.9353,3.8799,3.8138,3.7338,3.7307,3.7061,3.6507,3.6523,3.6523,3.6523,3.6616,3.6662,3.6708,3.7894,3.846,0.0,0.0,0.0,0.0,0.0,0.0,0.0,0.0,0.0,0.0,0.0,4.1246,0.0,0.0,4.9134,5.1821,5.4999,5.7483,5.8441,6.0027,6.0595,5.9249,6.0595,6.1463,6.1134,6.2002,6.245,6.2121,6.2391,6.2301,6.1642,6.1912,6.1493,6.0116,6.1074,6.0805,5.9129,5.9428,5.9249,5.859,5.7932,5.7656,5.7787,5.7152,5.6775,5.6571,5.6239,5.6058,5.5973,5.5731,5.5448,5.5106,5.4453,5.3191,5.159,5.0574,5.0205,5.0103,4.9404,4.9158,4.9097,4.8706,4.8583,4.8583,4.8583,4.8583,4.8583,4.8583,4.8583,4.8583,4.8583,4.8583,4.8583,4.8583,4.8583,4.8583,4.8583,4.8583,4.8491,4.8173,4.8112,4.7968,4.7681,4.7619,4.7373,4.6696,4.6603,4.648,4.6142,4.5823,4.5484,4.5145,4.4498,4.3821,4.3174,4.1832,4.0737,4.0061,3.9384,3.8707,3.8046,3.8015,3.7831,3.7523,3.7492,3.7492,3.7492,3.7153,3.6999,3.7015,3.7275,3.7562,0.0,0.0,0.0,0.0,0.0,0.0,0.0,0.0,3.9768,4.0588,4.2811,4.5194,4.6929,5.0039,5.3114,5.5388,5.7962,5.9877,6.0386,6.1523,6.1882,6.0832,6.1642,6.2301,6.2301,6.278,6.3108,6.3108,6.2988,6.2748,6.2301,6.2181,6.1583,6.0505,6.1014,6.0655,5.9308,5.9817,5.9757,5.9099,5.8534,5.8294,5.8261,5.7329,5.6826,5.6675,5.6138,5.5929,5.5954,5.6201,5.6109,5.5756,5.5603,5.4613,5.3008,5.1599,5.1005,5.079,5.0134,4.9866,4.9795,4.922,4.9004,4.8983,4.883,4.8891,4.8953,4.8676,4.8706,4.8789,4.8645,4.8583,4.8583,4.8583,4.8583,4.8583,4.8583,4.8583,4.8583,4.8583,4.8583,4.8583,4.8583,4.8583,4.8214,4.7157,4.7004,4.6942,4.6819,4.6326,4.5946,4.5823,4.5207,4.4468,4.3685,4.2497,4.1555,4.0953,4.0399,3.9753,3.8922,3.8891,3.8768,3.8508,3.8491,3.8491,3.8491,3.7954,3.7707,3.7677,3.7123,3.7002,3.4173,3.4039,3.4997,3.6656,3.7644,3.8978,0.0,0.0,4.3997,4.5284,4.7616,4.968,5.0488,5.3832,5.6735,5.7606,6.0027,6.1792,6.1852,6.2539,6.2928,6.2778,6.2898,6.2988,6.2988,6.3048,6.3108,6.3108,6.254,6.2421,6.2958,6.2421,6.2032,6.1882,6.1942,6.1343,5.9997,6.0057,5.9757,5.9099,5.9039,5.9009,5.8979,5.8258,5.7626,5.6993,5.6073,5.5631,5.5656,5.5929,5.5992,5.5895,5.5287,5.5066,5.4799,5.31,5.2113,5.1498,5.082,5.0574,5.0574,5.0482,5.0451,5.0359,4.9764,4.9989,5.0205,4.8953,4.9066,4.9435,4.8789,4.8583,4.8583,4.8583,4.8583,4.8583,4.8583,4.8583,4.8583,4.8583,4.8583,4.8583,4.8583,4.8583,4.8553,4.8399,4.8368,4.8153,4.7558,4.7434,4.7157,4.6542,4.5884,4.4991,4.3716,4.2928,4.2448,4.2386,4.2276,4.1661,4.0337,4.0276,3.9722,3.8522,3.8491,3.8491,3.8491,3.843,3.8385,3.8385,3.8307,3.7678,3.6061,3.6537,3.7554,0.0,4.0199,4.2402,4.4596,4.6172,4.7668,4.9374,5.1858,5.4012,5.5034,5.7517,5.9668,0.0,6.1702,6.266,6.266,6.2599,6.2211,6.1461,6.1371,6.182,6.2988,6.3108,6.3108,6.3108,6.2838,6.263,6.251,6.2241,6.1912,6.1523,6.1523,6.1074,6.0114,6.0114,5.9757,5.9099,5.9099,5.9099,5.9069,5.7992,5.6974,5.5957,5.5545,5.5456,5.5606,5.5731,5.5855,5.5973,5.57,5.5141,5.4409,5.3422,5.297,5.2706,5.1652,5.1282,5.1221,5.082,5.0697,5.0636,5.038,5.0482,5.0574,4.9989,4.9743,4.9641,4.9312,4.8912,4.8583,4.8583,4.8583,4.8583,4.8583,4.85,4.8448,4.8448,4.8343,4.826,4.826,4.826,4.826,4.826,4.8438,4.8491,4.8235,4.7835,4.7342,4.6665,4.6357,4.5823,4.4837,4.4529,4.4018,4.3236,4.2817,4.2153,4.1168,4.0737,4.0245,3.9661,3.9661,3.9661,3.9661,3.9261,3.9076,3.9076,3.8676,3.82,3.7496,3.8644,0.0,4.1036,4.3489,4.6112,4.7818,4.9786,5.1702,5.3473,5.5658,5.7629,5.8713,6.0296,6.1553,6.2032,6.266,6.3048,6.2868,6.209,6.1044,5.9697,5.9246,5.9665,6.1311,6.197,6.2449,6.2808,6.2659,6.248,6.2361,6.2181,6.1882,6.1403,6.1373,6.1044,6.0386,6.0176,5.9847,5.9368,5.9189,5.9099,5.9069,5.7723,5.6406,5.5179,5.5179,5.5305,5.5481,5.5481,5.5606,5.578,5.578,5.5224,5.4389,5.3864,5.349,5.3109,5.2164,5.1826,5.1698,5.1296,5.112,5.1024,5.084,5.0901,5.0993,5.0594,5.0288,5.0012,4.9797,4.9346,4.8948,4.8948,4.8948,4.8917,4.8733,4.8598,4.8431,4.8248,4.8091,4.8007,4.8007,4.8007,4.8007,4.8007,4.826,4.8438,4.85,4.8132,4.7619,4.6942,4.688,4.6603,4.5926,4.573,4.5207,4.419,4.3513,4.2786,4.1925,4.1353,4.0891,4.0505,4.0505,4.0505,4.0505,4.003,3.9784,3.9753,3.9291,3.9045,3.7793,0.0,4.1294,4.5134,4.7638,4.9816,5.239,5.4546,5.6372,5.7636,5.9009,6.0176,6.0894,6.1583,6.2061,6.2091,6.266,6.2868,6.2211,6.0984,5.9668,5.8324,5.7064,5.6581,0.0,5.9066,6.0743,6.2032,6.1523,6.1732,6.3018,6.245,6.2091,6.2061,6.2061,6.1762,6.1104,6.0416,6.0114,6.0057,5.9398,5.9099,5.9069,5.7723,5.6406,5.5179,5.5179,5.5204,5.5204,5.5204,5.5204,5.5204,5.5204,5.535,5.5455,5.4792,5.3512,5.2048,5.2238,5.217,5.201,5.2177,5.2139,5.1843,5.1205,5.1448,5.1691,5.031,5.0423,5.081,5.0067,4.9885,4.9855,4.9855,4.9855,4.9703,4.9118,4.8966,4.8784,4.8128,4.8007,4.8007,4.8007,4.8007,4.8007,4.8007,4.8007,4.8091,4.8301,4.8459,4.8307,4.765,4.7588,4.7311,4.6634,4.5957,4.5576,4.5545,4.4899,4.3944,4.2614,4.2571,4.1876,4.0536,4.0505,4.0505,4.0505,4.0474,4.0474,4.0474,4.0443,4.0443,3.8644,0.0,4.616,4.8412,5.1456,5.4456,5.6615,5.7962,5.9066,5.9909,5.9039,5.8171,5.8411,5.8291,5.8441,5.9308,6.0775,6.1702,6.1463,6.1044,5.9638,5.6555,5.6526,0.0,0.0,0.0,0.0,6.0655,6.1403,6.1972,6.2391,6.263,6.2778,6.2778,6.2331,6.1792,6.1106,6.0446,5.9877,5.9428,5.9219,5.862,5.7752,5.7304,5.6406,5.5179,5.5179,5.5179,5.5179,5.5179,5.5179,5.5179,5.5179,5.496,5.4645,5.4405,5.3699,5.2791,5.2768,5.2435,5.2025,5.2063,5.2071,5.1972,5.1729,5.182,5.1911,5.1425,5.1152,5.0939,5.0674,5.028,4.9893,4.9893,4.9893,4.9833,4.962,4.948,4.9332,4.9112,4.895,4.8862,4.8862,4.8501,4.8028,4.7607,4.7794,4.8028,4.8091,4.8154,4.8126,4.7912,4.7976,4.7814,4.714,4.6985,4.6542,4.5669,4.496,4.419,4.3297,4.2417,4.1709,4.123,4.0768,4.0505,4.0505,4.0505,4.0505,4.0505,4.0505,4.0505,4.0872,4.5367,4.9745,5.1285,5.4274,5.7291,5.877,5.9244,5.9531,5.9946,5.8112,5.6346,5.6107,5.5149,5.4809,5.5994,5.7069,5.7912,5.8413,5.8276,5.722,5.4831,5.4835,0.0,0.0,0.0,0.0,5.958,6.0984,6.1852,6.2091,6.2748,6.2988,6.2748,6.254,6.2121,6.1463,6.0805,5.9997,5.9099,5.9099,5.853,5.7453,5.7214,5.6526,5.5538,5.5299,5.5179,5.5179,5.5179,5.5179,5.5179,5.5179,5.494,5.4551,5.4551,5.4132,5.3487,5.3024,5.2513,5.205,5.1901,5.1939,5.205,5.1786,5.205,5.2322,5.1846,5.1574,5.1363,5.1121,5.0706,5.0374,5.0374,5.0374,5.0314,5.0072,4.99,4.9749,4.9509,4.9389,4.9277,4.9277,4.8947,4.8438,4.7758,4.7899,4.8045,4.7867,4.7943,4.8007,4.8007,4.8112,4.8014,4.7586,4.7497,4.7006,4.592,4.5291,4.456,4.3655,4.2774,4.2078,4.1617,4.1137,4.0768,4.0505,4.0505,4.0505,4.0505,4.0505,4.0505,4.448,4.866,5.2031,5.3809,5.6192,5.8263,5.8871,5.8494,5.7965,5.783,5.6213,5.462,0.0,0.0,5.1303,5.2515,5.2278,5.2422,5.3864,5.3485,5.314,0.0,0.0,0.0,0.0,0.0,0.0,5.876,0.0,6.1373,6.2061,6.2748,6.2808,6.2181,6.2778,6.2778,6.2121,6.1403,6.0416,5.9159,5.9129,5.877,5.8085,5.7453,5.6795,5.6162,5.5534,5.5209,5.5179,5.5179,5.5179,5.5179,5.5179,5.5179,5.5179,5.5179,5.479,5.4097,5.305,5.2497,5.2204,5.181,5.195,5.2127,5.1445,5.2127,5.2899,5.1588,5.1678,5.2007,5.1355,5.1206,5.1206,5.1206,5.1206,5.1026,5.0398,5.0255,5.0069,4.9516,4.9396,4.9366,4.9337,4.9337,4.9097,4.8409,4.8319,4.8145,4.765,4.7816,4.7964,4.7964,4.7964,4.7986,4.7986,4.7596,4.7068,4.6396,4.5951,4.5114,4.3809,4.3685,4.3051,4.1771,4.1648,4.1278,4.0553,4.0522,4.0505,4.0505,4.0505,4.0505,4.7844,5.2046,5.5544,5.6177,5.7221,5.8056,5.7806,5.7226,5.6177,5.4059,5.1577,4.9404,0.0,0.0,0.0,5.2368,5.4299,0.0,5.7513,5.8002,0.0,5.4234,0.0,5.4658,5.4174,5.4488,0.0,0.0,5.959,6.0864,6.2032,6.2748,6.3018,6.2868,6.3018,6.2778,6.2121,6.0924,6.0176,5.9817,5.9338,5.877,5.8085,5.7905,5.7244,5.6192,5.6013,5.5683,5.5179,5.5179,5.5179,5.5179,5.5179,5.5179,5.5179,5.5179,5.5089,5.482,5.4056,5.3402,5.2929,5.2822,5.2858,5.2815,5.2157,5.2187,5.2276,5.1415,5.1325,5.1439,5.1236,5.1206,5.1206,5.1206,5.1206,5.1146,5.0996,5.0936,5.0907,5.075,5.072,5.0571,5.0039,4.9979,4.9591,4.8446,4.8319,4.8079,4.7464,4.746,4.7482,4.7482,4.7602,4.7688,4.7688,4.7918,4.7751,4.7099,4.7067,4.6696,4.5865,4.4868,4.419,4.3852,4.2355,4.1524,4.134,4.0768,4.0505,4.0505,4.0505,4.0505,5.0655,5.4307,5.7094,5.6396,5.6759,5.6944,5.5624,5.42,5.2591,5.0675,4.7985,0.0,4.4785,0.0,0.0,0.0,0.0,0.0,5.4749,5.583,5.583,0.0,5.4819,0.0,5.5006,5.4845,5.5697,0.0,5.91,6.0165,6.117,6.2431,6.2817,6.2233,6.2788,6.2778,6.2121,6.1044,6.0386,6.0114,5.9428,5.8919,5.8504,5.8234,5.7723,5.7004,0.0,5.5983,5.5623,5.5299,5.5179,5.5179,5.5179,5.5179,5.5179,5.5179,5.5179,5.5149,5.476,5.4371,5.3977,5.3408,5.3408,5.3503,5.2845,5.3054,5.3234,5.2007,5.1858,5.1947,5.1355,5.1206,5.1206,5.1206,5.1206,5.1206,5.1206,5.1206,5.1206,5.1206,5.1206,5.1086,5.0697,5.0637,5.0308,4.9314,4.8895,4.8498,4.7818,4.7489,4.7309,4.7309,4.7417,4.7482,4.7482,4.7794,4.7733,4.7044,4.7293,4.717,4.6495,4.5549,4.4899,4.4591,4.291,4.1894,4.1586,4.0861,4.0505,4.0505,4.0505,4.0505,5.3086,5.5834,5.7443,5.5661,5.5442,5.5113,5.2851,5.028,4.8129,4.7262,0.0,4.298,4.2745,4.1849,4.1856,4.3914,0.0,4.6839,5.0262,5.1579,5.2712,5.414,5.4324,5.4758,5.5864,5.4893,5.5239,5.7793,5.8472,5.9216,6.0177,6.1879,6.238,6.1405,6.2497,6.2838,6.2241,6.1493,6.0805,6.0206,5.9458,5.9099,5.9069,5.8504,5.8175,5.8025,0.0,0.0,5.6282,5.5623,5.5329,5.5299,5.5209,5.5179,5.5179,5.5179,5.5179,5.5179,5.5179,5.5179,5.4999,5.3857,5.3862,5.4221,5.3558,5.4132,5.467,5.2845,5.2725,5.2905,5.1768,5.1385,5.1325,5.1325,5.1265,5.1206,5.1206,5.1206,5.1206,5.1206,5.1206,5.1206,5.1206,5.1206,5.0966,5.0285,4.9673,4.9067,4.8409,4.7698,4.7309,4.7309,4.7309,4.7309,4.7309,4.7473,4.734,4.6768,4.7146,4.715,4.661,4.6004,4.5414,4.4868,4.3371,4.2325,4.174,4.0891,4.0505,4.0505,4.0505,4.0505,5.5569,5.6977,5.743,5.6107,5.4459,5.2549,5.0262,4.7078,0.0,0.0,4.1407,4.0311,4.0907,4.075,4.2201,4.7232,4.8343,0.0,0.0,0.0,5.4817,0.0,0.0,0.0,0.0,0.0,0.0,0.0,0.0,0.0,6.0784,6.1257,6.1851,6.273,6.2992,6.3048,6.2928,6.1702,6.1016,6.0924,5.9697,5.9099,5.9099,5.8979,5.8623,5.8085,0.0,0.0,5.6885,5.6282,5.6042,5.5983,5.5444,5.5179,5.5179,5.5179,5.5179,5.5179,5.5179,5.5179,5.5149,5.491,5.491,5.491,5.4221,5.4192,5.4192,5.3288,5.3109,5.3169,5.2929,5.2426,5.2037,5.2037,5.1618,5.1206,5.1206,5.1206,5.1206,5.1206,5.1206,5.1206,5.1206,5.1206,5.0966,5.0285,4.9673,4.9067,4.8409,4.7698,4.7309,4.7309,4.7309,4.7309,4.7309,4.7473,4.7572,4.743,4.7698,4.789,4.7935,4.6814,4.6199,4.6234,4.3864,4.254,4.2417,4.1137,4.0505,4.0505,4.0505,4.0505,5.6954,5.766,5.7686,5.5935,5.3739,5.1204,4.8015,0.0,0.0,0.0,3.9208,3.8509,3.9661,3.993,0.0,4.4863,4.5764,4.7638,0.0,0.0,0.0,0.0,0.0,0.0,0.0,0.0,0.0,0.0,0.0,0.0,5.8877,5.903,5.965,6.0987,6.1047,6.1346,6.2057,6.0732,6.0397,6.1076,5.9757,5.9099,5.9099,5.9099,5.8919,5.8593,0.0,0.0,5.7543,5.6611,5.6192,5.6132,5.5474,5.5179,5.5179,5.5179,5.5179,5.5179,5.5179,5.5179,5.5179,5.5179,5.5179,5.5119,5.482,5.473,5.4581,5.3892,5.3713,5.3623,5.3288,5.2959,5.2725,5.2725,5.2217,5.1594,5.1265,5.1206,5.1206,5.1206,5.1206,5.1206,5.1206,5.1206,5.1086,5.0787,5.0159,4.9523,4.8887,4.8259,4.7698,4.7339,4.7309,4.7309,4.7309,4.7396,4.743,4.743,4.7645,4.7837,4.7943,4.7106,4.6773,4.6966,4.4308,4.2965,4.3113,4.1353,4.0505,4.0505,4.0505,4.0505,5.7721,5.8219,5.8183,5.5532,5.306,5.0211,4.6342,4.2631,0.0,0.0,3.8025,3.746,3.8925,0.0,4.0017,0.0,4.2552,4.4434,4.9061,0.0,0.0,0.0,0.0,0.0,0.0,0.0,0.0,0.0,0.0,0.0,0.0,5.7354,5.8024,5.9064,5.9096,5.9742,6.1106,5.9886,5.9943,6.1076,5.9907,5.9249,5.9099,5.9099,5.9099,5.9069,0.0,0.0,0.0,5.6915,5.6402,5.6312,5.5534,5.5179,5.5179,5.5179,5.5179,5.5179,5.5179,5.5179,5.5179,5.5179,5.5179,5.5179,5.5179,5.5179,5.5089,5.4551,5.4431,5.4281,5.3767,5.3528,5.3378,5.3228,5.2665,5.2067,5.1528,5.1295,5.1206,5.1206,5.1206,5.1206,5.1206,5.1206,5.1206,5.1206,5.0637,5.0039,4.9546,4.8798,4.8087,4.7578,4.7399,4.7309,4.7309,4.7309,4.7309,4.7309,4.746,4.7538,4.7602,4.7168,4.7014,4.7231,4.4822,4.3624,4.3746,4.1822,4.0808,4.0737,4.0584,4.0505,5.7762,5.8674,5.8826,5.5202,5.2145,4.9139,4.5664,0.0,3.8938,3.9172,3.8025,3.746,3.8925,0.0,0.0,0.0,0.0,4.3886,4.8512,4.9584,0.0,0.0,0.0,0.0,0.0,0.0,0.0,0.0,0.0,0.0,0.0,5.825,5.8971,5.9096,5.9096,5.9742,6.1106,6.038,6.0383,6.1076,6.0356,5.9668,5.9099,5.9099,5.9099,5.9099,0.0,0.0,0.0,5.7573,5.7004,5.6885,5.5658,5.5179,5.5179,5.5179,5.5179,5.5179,5.5179,5.5179,5.5179,5.5179,5.5179,5.5179,5.5179,5.5179,5.5179,5.5119,5.5089,5.5089,5.5029,5.4551,5.3952,5.3348,5.2665,5.2187,5.2127,5.1648,5.1206,5.1206,5.1206,5.1206,5.1206,5.1206,5.1206,5.1206,5.0637,5.0166,5.0129,4.9045,4.8289,4.8229,4.7668,4.7309,4.7309,4.7309,4.7309,4.7309,4.7331,4.7417,4.7581,4.6969,4.6764,4.7023,4.5516,4.4582,4.4236,4.275,4.1862,4.1494,4.083,4.0505,5.7401,5.8955,5.9278,5.5202,5.1779,4.8662,4.5741,0.0,3.7964,3.8983,3.7732,3.6861,3.8164,3.831,0.0,0.0,0.0,0.0,4.4879,4.5611,4.7257,0.0,0.0,0.0,0.0,0.0,0.0,0.0,0.0,0.0,0.0,5.6405,5.6671,5.6671,5.6671,5.735,5.8686,5.7682,5.7704,5.8724,5.7744,5.7109,5.6878,5.6878,5.6878,5.6907,0.0,0.0,0.0,5.7342,5.7094,5.6974,5.5688,5.5179,5.5179,5.5179,5.5179,5.5179,5.5179,5.5179,5.5179,5.5179,5.5179,5.5179,5.5179,5.5179,5.5179,5.5179,5.5179,5.5179,5.5179,5.4999,5.464,5.3952,5.3294,5.2665,5.2276,5.1678,5.1206,5.1206,5.1206,5.1206,5.1206,5.1206,5.1206,5.1206,5.0966,5.0667,5.0255,4.9434,4.8887,4.8887,4.7938,4.7309,4.7309,4.7309,4.7309,4.7309,4.7309,4.7352,4.7417,4.6787,4.6533,4.6754,4.5012,4.4172,4.4297,4.2475,4.1587,4.1586,4.083,4.0505,5.6246,5.8893,6.0072,5.4983,5.154,4.8662,0.0,0.0,3.7832,3.8956,3.7838,3.6907,3.7743,3.79,3.8083,3.8632,0.0,3.9442,4.2369,4.3206,4.5036,0.0,0.0,0.0,0.0,0.0,0.0,0.0,0.0,0.0,0.0,5.5099,5.5099,5.5099,5.5099,5.5743,5.7092,5.6029,5.606,5.718,5.617,5.5609,5.5412,5.5412,5.5412,0.0,0.0,0.0,0.0,5.6147,5.5939,5.5701,5.4586,5.4175,5.4175,5.4175,5.4381,5.4667,5.4667,5.4896,5.5179,5.5179,5.5179,5.5179,5.5179,5.5179,5.5179,5.5179,5.5179,5.5179,5.5179,5.5179,5.5059,5.461,5.3982,5.3354,5.2905,5.2127,5.1475,5.1475,5.1325,5.1206,5.1206,5.1206,5.1206,5.1206,5.1206,5.1026,5.0578,4.9972,4.9576,4.9576,4.8386,4.7608,4.7608,4.7429,4.7309,4.7309,4.7309,4.7309,4.7309,4.6659,4.6385,4.6494,4.493,4.4226,4.4494,4.2828,4.1979,4.1894,4.1168,4.0707,5.4185,5.8305,6.1222,5.4277,5.1346,4.9171,0.0,0.0,3.878,3.9145,3.8504,3.79,3.79,3.79,3.8083,3.8632,0.0,0.0,4.1951,4.3703,0.0,0.0,0.0,0.0,0.0,0.0,0.0,0.0,0.0,0.0,0.0,0.0,5.5099,5.5099,5.5099,5.5743,5.7092,5.65,5.6534,5.718,5.6651,5.6032,5.5412,5.5412,0.0,0.0,0.0,0.0,0.0,5.381,5.322,5.2684,5.2009,5.1729,5.1729,5.1729,5.243,5.3413,5.3413,5.42,5.5179,5.5179,5.5179,5.5179,5.5179,5.5179,5.5179,5.5179,5.5179,5.5179,5.5179,5.5179,5.5179,5.5179,5.467,5.4192,5.4192,5.3144,5.2187,5.2187,5.1648,5.1206,5.1206,5.1206,5.1206,5.1206,5.1206,5.1206,5.1176,5.0607,5.0196,5.0196,4.9045,4.8289,4.8289,4.7668,4.7309,4.7309,4.7309,4.7309,4.7309,4.6659,4.63,4.63,4.5633,4.5171,4.4979,4.4261,4.3449,4.2553,4.1894,4.1199,5.0214,5.3332,5.488,4.9436,4.7136,4.5664,4.3416,4.0118,3.7907,3.9204,3.8312,3.7403,3.7821,3.79,3.8083,0.0,0.0,0.0,0.0,0.0,0.0,0.0,0.0,0.0,0.0,0.0,0.0,0.0,0.0,0.0,0.0,0.0,5.5099,5.5099,5.4707,5.4702,5.5101,5.4155,5.3794,5.3989,5.3404,5.2998,5.278,5.278,0.0,0.0,0.0,0.0,0.0,5.3412,5.3192,5.2628,5.1955,5.1674,5.1674,5.1674,5.1919,5.2242,5.2242,5.2992,5.3964,5.3964,5.4509,5.5179,5.5179,5.5179,5.5179,5.5179,5.5179,5.5179,5.5179,5.5179,5.5179,5.5179,5.47,5.4221,5.4221,5.3503,5.2875,5.2875,5.2336,5.1887,5.1887,5.1475,5.1206,5.1206,5.1206,5.1206,5.1206,5.0607,5.0196,5.0196,4.9464,4.8798,4.8349,4.7698,4.7309,4.7309,4.7309,4.7309,4.7309,4.6659,4.6091,4.5633,4.4975,4.4458,4.4125,4.3361,4.2815,4.2389,4.1666,4.1308,4.674,5.0147,5.1751,4.7593,4.5671,0.0,0.0,4.0105,3.7838,3.9617,3.8585,3.7456,3.7821,3.79,3.8004,0.0,0.0,0.0,0.0,0.0,0.0,0.0,0.0,0.0,0.0,0.0,0.0,0.0,0.0,0.0,0.0,0.0,5.4994,5.4759,5.4393,5.421,5.421,5.306,5.2485,5.2485,5.1884,5.1596,5.1596,0.0,0.0,0.0,0.0,0.0,0.0,5.1784,5.1501,5.0954,5.0543,5.0378,5.0378,5.0378,5.0657,5.1017,5.1017,5.1783,5.2751,5.2751,5.3573,5.4509,5.4509,5.482,5.5179,5.5179,5.5179,5.5179,5.5179,5.5179,5.5179,5.5179,5.488,5.4581,5.4581,5.4042,5.3563,5.3563,5.2815,5.2187,5.2187,5.1624,5.1206,5.1206,5.1206,5.1206,5.1206,5.0847,5.0578,5.0578,5.0032,4.9396,4.8738,4.8057,4.7578,4.7309,4.7309,4.7309,4.7309,4.6659,4.5971,4.5304,4.4646,4.4088,4.3695,4.304,4.2724,4.2664,4.1943,4.1623,0.0,4.8122,5.0686,4.7656,4.595,0.0,4.4394,4.0916,0.0,4.0161,3.9126,3.79,3.79,3.79,3.7926,0.0,0.0,0.0,0.0,0.0,0.0,0.0,0.0,0.0,0.0,0.0,0.0,0.0,0.0,0.0,0.0,0.0,0.0,5.421,5.4158,5.4131,5.4079,5.2981,5.2433,5.2433,5.1858,5.1596,5.1596,0.0,0.0,0.0,0.0,0.0,0.0,4.9326,4.875,4.8201,4.8201,4.8201,4.8201,4.8201,4.8871,4.9787,4.9787,5.0573,5.1593,5.1647,5.2404,5.3308,5.3387,5.4252,5.5179,5.5179,5.5179,5.5179,5.5179,5.5179,5.5179,5.5179,5.5179,5.5179,5.5179,5.47,5.4281,5.4281,5.3234,5.2336,5.2276,5.1768,5.1325,5.1265,5.1265,5.1265,5.1265,5.1236,5.1176,5.1056,5.0548,4.992,4.9217,4.8618,4.7997,4.7339,4.7309,4.7309,4.7309,4.6659,4.5971,4.5304,4.4596,4.4038,4.3655,4.3216,4.3122,4.3318,4.2627,4.2107,4.0844,0.0,4.3467,4.1489,4.068,4.0505,0.0,0.0,0.0,0.0,0.0,3.79,3.79,3.79,3.8031,0.0,0.0,0.0,0.0,0.0,0.0,0.0,0.0,0.0,0.0,0.0,0.0,0.0,0.0,0.0,0.0,0.0,0.0,5.421,5.3792,5.3373,5.2903,5.2171,5.1805,5.1805,5.1675,5.1596,5.157,0.0,0.0,0.0,0.0,0.0,4.93,4.9139,4.875,4.8201,4.8201,4.8201,4.8201,4.8201,4.8376,4.8582,4.8582,4.936,5.0462,5.1401,5.1864,5.2242,5.315,5.4252,5.5179,5.5179,5.5179,5.5179,5.5179,5.5179,5.5179,5.5179,5.5179,5.5179,5.5179,5.5059,5.497,5.497,5.4311,5.3563,5.3025,5.2815,5.2546,5.2037,5.1977,5.1977,5.1977,5.1528,5.084,4.9845,5.0009,4.9531,4.7908,4.8087,4.7997,4.7339,4.7309,4.7309,4.7309,4.6659,4.5971,4.5304,4.4147,4.3479,4.3369,4.3278,4.3453,4.3791,4.2951,4.2671,3.911,4.0415,4.126,4.0712,4.0175,4.0,4.0752,3.9501,0.0,0.0,0.0,3.8372,3.7969,3.79,0.0,0.0,0.0,0.0,0.0,0.0,0.0,0.0,0.0,0.0,0.0,0.0,0.0,0.0,0.0,0.0,0.0,0.0,0.0,0.0,5.3269,5.2825,5.2485,5.191,5.1596,5.1596,5.1596,5.1465,5.1204,0.0,0.0,0.0,0.0,0.0,4.9061,4.8773,4.8486,4.8201,4.8201,4.8201,4.8201,4.8201,4.8201,4.8201,4.8201,4.8582,4.9217,4.9872,5.0462,5.0989,5.162,5.2989,5.4483,5.5053,5.5179,5.5179,5.5179,5.5179,5.5179,5.5179,5.5179,5.5179,5.5179,5.5179,5.5179,5.5179,5.467,5.4102,5.3713,5.3408,5.3079,5.2695,5.2665,5.2665,5.2665,5.2067,5.1409,5.0714,5.0368,4.965,4.8349,4.8289,4.7997,4.7339,4.7309,4.7309,4.7309,4.6929,4.6322,4.5304,4.3997,4.329,4.329,4.329,4.3488,4.3851,4.3322,4.3125,3.8601,4.0065,4.1441,4.1833,4.1293,4.0865,4.1529,4.0383,3.9188,0.0,0.0,3.8769,3.806,3.7978,0.0,0.0,0.0,0.0,0.0,0.0,0.0,0.0,0.0,0.0,0.0,0.0,0.0,0.0,0.0,0.0,0.0,0.0,0.0,0.0,5.2772,5.2459,5.2354,5.1858,5.1596,5.1596,5.1518,5.123,5.0786,5.0603,0.0,0.0,0.0,0.0,4.8934,4.841,4.8201,4.8201,4.8201,4.8201,4.8201,4.8201,4.8201,4.8201,4.8201,4.8201,4.8201,4.8201,4.8871,4.9674,4.9872,5.1292,5.3124,5.4329,5.4926,5.5179,5.5179,5.5179,5.5179,5.5179,5.5179,5.5179,5.5179,5.5179,5.5179,5.5179,5.473,5.4341,5.4221,5.3803,5.3468,5.3378,5.3348,5.3348,5.3348,5.2665,5.2127,5.1917,5.0787,4.977,4.9067,4.8468,4.7908,4.7339,4.7309,4.7249,4.716,4.716,4.6561,4.5304,4.4087,4.3439,4.3439,4.3349,4.3458,4.3695,4.3655,4.3452,4.0445,4.0977,4.0811,4.0044,3.9499,3.9353,4.0143,3.8803,3.7741,0.0,0.0,0.0,0.0,3.8266,3.8606,0.0,0.0,0.0,0.0,0.0,0.0,0.0,0.0,0.0,0.0,0.0,0.0,0.0,0.0,0.0,0.0,0.0,0.0,0.0,0.0,5.225,5.1727,5.1648,5.1596,5.1596,5.1126,5.0864,5.076,4.9793,4.9296,0.0,0.0,0.0,4.8329,4.8254,4.8201,4.8201,4.8201,4.8201,4.8201,4.8201,4.8201,4.8201,4.8201,4.8201,4.8201,4.8201,4.8318,4.864,4.9617,5.0154,5.0685,5.1892,5.3652,5.5179,5.5179,5.5179,5.5179,5.5179,5.5179,5.5179,5.5179,5.5179,5.5179,5.5179,5.5119,5.485,5.4311,5.4581,5.47,5.4132,5.4042,5.4042,5.4042,5.2965,5.1768,5.0637,4.9853,4.8947,4.7698,4.7519,4.7429,4.7309,4.7309,4.707,4.648,4.645,4.6091,4.5304,4.4556,4.4147,4.4147,4.3579,4.3458,4.3675,4.3478,4.3438,3.9978,4.038,4.0292,3.9797,3.9691,3.9697,3.9585,3.8944,3.8504,0.0,0.0,0.0,0.0,0.0,0.0,0.0,0.0,0.0,0.0,0.0,0.0,0.0,0.0,0.0,0.0,0.0,0.0,0.0,0.0,0.0,0.0,0.0,0.0,0.0,0.0,0.0,5.1596,5.1309,5.1152,5.1152,5.0577,5.0159,4.9845,4.9322,4.8934,0.0,0.0,4.7911,4.8146,4.7858,4.7911,4.8146,4.7832,4.7911,4.8201,4.8201,4.7989,4.778,4.8068,4.8201,4.8201,4.8201,4.8201,4.8289,4.8842,4.939,5.0014,5.0573,5.2404,5.4252,5.4252,5.4252,5.4381,5.5053,5.4692,5.4406,5.5053,5.5179,5.5179,5.5179,5.5179,5.5089,5.479,5.4999,5.5089,5.479,5.473,5.461,5.4251,5.3354,5.2366,5.1385,5.0092,4.9037,4.8438,4.7728,4.7309,4.7309,4.7309,4.716,4.6839,4.648,4.6151,4.5873,4.5185,4.4676,4.4296,4.3997,4.3728,4.3498,4.3349,4.3369,3.9649,3.9893,3.9914,4.0026,4.0131,4.0077,3.9674,3.9683,3.9699,0.0,0.0,0.0,0.0,0.0,0.0,0.0,0.0,0.0,0.0,0.0,0.0,0.0,0.0,0.0,0.0,0.0,0.0,0.0,0.0,0.0,0.0,0.0,0.0,0.0,0.0,0.0,5.1413,5.0864,5.0655,5.0786,5.0054,4.9479,4.9117,4.893,4.8538,4.7963,4.749,4.7492,4.7783,4.731,4.7388,4.7783,4.7281,4.7414,4.778,4.778,4.7519,4.7176,4.7623,4.778,4.7835,4.7937,4.7989,4.8015,4.8146,4.8813,4.9504,4.9504,5.0989,5.2644,5.291,5.2989,5.3308,5.4513,5.4068,5.3756,5.4951,5.5179,5.5179,5.5179,5.5179,5.5179,5.5179,5.5179,5.5179,5.5179,5.5179,5.4999,5.4491,5.3713,5.2959,5.2276,5.0474,4.9157,4.8858,4.7878,4.7309,4.7309,4.7459,4.7549,4.7549,4.704,4.6689,4.654,4.5873,4.5214,4.4536,4.4536,4.4117,4.329,4.3439,4.3439,4.0894,4.0418,3.969,4.0386,3.9917,3.9553,4.0487,4.0499,0.0,4.1009,0.0,0.0,0.0,0.0,0.0,0.0,0.0,0.0,0.0,0.0,0.0,0.0,0.0,0.0,0.0,0.0,0.0,0.0,0.0,0.0,0.0,0.0,0.0,0.0,0.0,0.0,5.0838,5.0263,5.0237,5.0786,4.9662,4.9143,4.9061,4.8512,4.7937,4.7359,4.7333,4.7048,4.6632,4.658,4.658,4.6632,4.658,4.658,4.6632,4.6632,4.6606,4.658,4.6606,4.6632,4.6682,4.7202,4.7359,4.7464,4.8015,4.826,4.8318,4.8318,4.9217,5.0406,5.1538,5.181,5.2108,5.3256,5.3466,5.3756,5.4951,5.5179,5.5179,5.5179,5.5179,5.5179,5.5179,5.5179,5.5179,5.5179,5.5179,5.5179,5.5119,5.4007,5.2959,5.2276,5.0474,4.8798,4.7549,4.7369,4.7309,4.7309,4.7878,4.8229,4.8229,4.8177,4.7848,4.7249,4.657,4.5882,4.5214,4.5214,4.4556,4.329,4.3938,4.3908,3.9725,3.9365,3.8888,3.9513,3.9559,0.0,0.0,4.1575,4.2083,4.2292,4.3415,0.0,0.0,0.0,0.0,0.0,0.0,0.0,0.0,0.0,0.0,0.0,0.0,0.0,0.0,0.0,0.0,0.0,0.0,0.0,0.0,0.0,0.0,0.0,0.0,0.0,0.0,5.0002,4.9845,4.9744,4.9326,4.8695,4.796,4.7725,4.7336,4.6787,4.6393,4.6342,4.6475,4.6107,4.6159,4.6501,4.6501,4.6029,4.548,4.6212,4.6264,4.6003,4.637,4.6501,4.6527,4.6734,4.6813,4.6839,4.7048,4.7362,4.762,4.762,4.8232,4.9103,5.0266,5.0573,5.0879,5.2054,5.2323,5.2673,5.3834,5.4667,5.5179,5.5179,5.5179,5.5179,5.5179,5.5179,5.5179,5.5179,5.5179,5.5029,5.464,5.4132,5.3414,5.2306,5.0474,4.8917,4.7997,4.7549,4.7668,4.8498,4.7997,4.7668,4.7668,4.7668,4.7549,4.7309,4.707,4.657,4.5912,4.5912,4.5433,4.4556,4.4356,4.4147,3.8696,3.8427,3.8147,3.872,0.0,0.0,4.2474,4.3389,4.4016,4.4747,4.5269,0.0,0.0,0.0,0.0,0.0,0.0,0.0,0.0,0.0,0.0,0.0,0.0,0.0,0.0,0.0,0.0,0.0,0.0,0.0,0.0,0.0,0.0,0.0,0.0,0.0,0.0,4.9636,4.9453,4.9117,4.9117,4.8564,4.7568,4.7568,4.7179,4.6501,4.6236,4.6053,4.5898,4.5687,4.5714,4.5924,4.5924,4.5428,4.4799,4.5637,4.5689,4.5374,4.5794,4.5924,4.595,4.6159,4.6212,4.6238,4.6449,4.6761,4.7074,4.7074,4.7466,4.8113,4.8893,4.9199,4.9674,5.0851,5.1401,5.2,5.315,5.4355,5.5179,5.5179,5.5179,5.5179,5.5179,5.5179,5.5179,5.5179,5.5179,5.5029,5.4581,5.4341,5.3623,5.2067,5.069,4.9486,4.8409,4.7878,4.7997,4.8917,4.8117,4.7788,4.8185,4.8027,4.7728,4.7309,4.7309,4.689,4.5971,4.642,4.6031,4.4975,4.4736,4.4386,3.8183,3.779,3.753,3.8174,0.0,0.0,4.5612,4.6055,4.6262,4.8616,4.7257,4.5975,4.7124,0.0,0.0,0.0,0.0,0.0,0.0,0.0,0.0,0.0,0.0,0.0,0.0,0.0,0.0,0.0,0.0,0.0,0.0,0.0,0.0,0.0,0.0,0.0,0.0,4.9117,4.9117,4.9117,4.9117,4.8803,4.8201,4.8201,4.7574,4.6527,4.7046,4.6314,4.4773,4.5348,4.5243,4.4721,4.4721,4.4721,4.4695,4.4695,4.4695,4.4695,4.4695,4.4695,4.4799,4.54,4.5583,4.5687,4.629,4.6501,4.6501,4.6501,4.6891,4.7307,4.7307,4.7754,4.8466,4.9617,5.0796,5.1973,5.3124,5.4304,5.5154,5.5179,5.5179,5.5179,5.5179,5.5179,5.5179,5.5179,5.5179,5.5179,5.5179,5.461,5.3419,5.1415,5.1206,5.0421,4.8446,4.8319,4.8289,4.8319,4.8319,4.8865,5.0159,4.9613,4.8678,4.7339,4.7309,4.6651,4.5304,4.6651,4.6292,4.4326,4.5005,4.4566,3.7549,3.7443,3.7998,3.8975,0.0,0.0,0.0,4.6917,0.0,0.0,4.8799,4.8277,0.0,0.0,0.0,0.0,0.0,0.0,0.0,0.0,0.0,0.0,0.0,0.0,0.0,0.0,0.0,0.0,0.0,0.0,0.0,0.0,0.0,0.0,0.0,0.0,0.0,0.0,4.8907,4.8489,4.8489,4.8146,4.7568,4.7568,4.7179,4.6527,4.6656,4.6447,4.5976,4.6159,4.5898,4.5322,4.5322,4.5087,4.4695,4.4695,4.4695,4.4695,4.4695,4.4695,4.4721,4.4904,4.4982,4.5008,4.5165,4.5532,4.5872,4.5872,4.629,4.6813,4.7202,4.7438,4.7762,4.8532,4.9589,5.0518,5.0879,5.1892,5.2965,5.3782,5.3938,5.42,5.5053,5.5179,5.5179,5.5179,5.5179,5.5179,5.5179,5.4192,5.3264,5.2665,5.0983,4.9636,4.9037,4.8139,4.7788,4.8289,4.8738,4.9157,4.9546,4.9396,4.8887,4.8027,4.7997,4.7578,4.6711,4.713,4.6749,4.5702,4.5424,4.4825,3.7037,3.7265,3.8292,3.9886,4.1978,4.4616,4.825,0.0,0.0,0.0,0.0,0.0,0.0,0.0,0.0,0.0,0.0,0.0,0.0,0.0,0.0,0.0,0.0,0.0,0.0,0.0,0.0,0.0,0.0,0.0,0.0,0.0,0.0,0.0,0.0,0.0,0.0,0.0,0.0,4.8201,4.8201,4.8015,4.7675,4.7675,4.7362,4.6813,4.6578,4.6604,4.6813,4.6606,4.629,4.595,4.5687,4.5374,4.5034,4.4799,4.4695,4.4695,4.4695,4.4695,4.4695,4.4695,4.4695,4.4695,4.4695,4.4956,4.5243,4.5243,4.5689,4.6212,4.6549,4.6967,4.7438,4.8041,4.9074,4.9901,4.9901,5.0851,5.1892,5.2591,5.3097,5.3623,5.4355,5.487,5.5179,5.5179,5.5179,5.5179,5.5179,5.4251,5.3503,5.3228,5.1312,4.9845,4.9337,4.8319,4.7878,4.8289,4.8917,4.9396,4.9643,4.9426,4.8977,4.8319,4.8027,4.7578,4.6899,4.6899,4.6561,4.5882,4.5214,4.4556,3.6885,3.7347,3.8684,4.1036,4.3519,0.0,4.893,5.2014,5.4393,5.4707,0.0,0.0,0.0,0.0,0.0,0.0,0.0,0.0,0.0,0.0,0.0,0.0,0.0,0.0,0.0,0.0,0.0,0.0,0.0,0.0,0.0,0.0,0.0,0.0,0.0,0.0,0.0,0.0,0.0,0.0,4.8068,4.8068,4.812,4.8146,4.7911,4.7359,4.6865,4.6917,4.7333,4.6839,4.6632,4.6499,4.5924,4.5635,4.5531,4.493,4.4695,4.4695,4.4695,4.4747,4.4773,4.4721,4.4747,4.4773,4.4721,4.4695,4.4695,4.4695,4.5087,4.5531,4.5583,4.6367,4.7307,4.7963,4.8961,4.9759,4.9759,5.0601,5.1401,5.1539,5.2457,5.3282,5.3387,5.4406,5.5179,5.5179,5.5179,5.5179,5.5119,5.4521,5.3862,5.3198,5.1858,5.0571,4.9396,4.8618,4.8229,4.8229,4.8828,4.9456,5.0009,4.9673,4.9157,4.8476,4.7818,4.716,4.648,4.642,4.6001,4.5274,4.4676,4.3997,3.7993,3.8719,4.0515,4.3284,4.7411,5.123,5.2746,5.4053,5.4419,5.2694,0.0,0.0,0.0,0.0,0.0,0.0,0.0,0.0,0.0,0.0,0.0,0.0,0.0,0.0,0.0,0.0,0.0,0.0,0.0,0.0,0.0,0.0,0.0,0.0,0.0,0.0,4.749,4.749,4.749,0.0,4.7074,4.7074,4.7516,4.7989,4.812,4.7989,4.7858,4.7885,4.7989,4.7858,4.7545,4.7072,4.6525,4.6029,4.5531,4.493,4.4695,4.4695,4.4695,4.5008,4.5322,4.4852,4.5034,4.5322,4.4852,4.4695,4.4695,4.4695,4.4799,4.5008,4.5478,4.5792,4.621,4.7255,4.8035,4.8553,4.8553,4.8755,4.9217,5.0125,5.1237,5.235,5.3256,5.4406,5.5179,5.5179,5.5179,5.4999,5.4491,5.3832,5.3169,5.2486,5.0803,4.9606,4.9307,4.8199,4.7519,4.7519,4.8147,4.8588,4.8686,5.0062,5.0481,4.98,4.9164,4.8528,4.7848,4.7339,4.6471,4.5304,4.5155,4.4436,3.8204,3.9547,4.216,4.5872,0.0,5.272,5.3609,5.4053,5.3949,0.0,0.0,0.0,0.0,0.0,0.0,0.0,0.0,0.0,0.0,0.0,0.0,0.0,0.0,0.0,0.0,0.0,0.0,0.0,0.0,0.0,0.0,0.0,0.0,0.0,0.0,0.0,4.7307,4.7074,4.6917,4.6917,4.663,4.6658,4.6944,4.7231,4.7205,4.697,4.697,4.697,4.697,4.697,4.6944,4.6865,4.629,4.5898,4.5531,4.493,4.4695,4.4695,4.4695,4.4904,4.5165,4.5139,4.5139,4.5165,4.5139,4.493,4.4773,4.506,4.493,4.4825,4.5452,4.5609,4.574,4.634,4.7124,4.7858,4.812,4.8201,4.8376,4.8959,5.0517,5.1892,5.2484,5.4045,5.5179,5.5179,5.5179,5.5059,5.473,5.3803,5.3079,5.2719,5.0654,4.9277,4.9277,4.8057,4.7309,4.7309,4.7908,4.8319,4.8319,4.9583,4.9972,4.9291,4.8656,4.8147,4.7818,4.683,4.5992,4.5274,4.4646,4.3967,3.8346,4.0435,4.3807,4.8044,5.0734,0.0,5.3243,5.34,5.34,0.0,0.0,0.0,0.0,0.0,0.0,0.0,0.0,0.0,0.0,0.0,0.0,0.0,0.0,0.0,0.0,0.0,0.0,0.0,0.0,0.0,0.0,0.0,0.0,0.0,0.0,4.7202,4.702,4.6578,4.629,4.6214,4.6109,4.6004,4.5898,4.6004,4.5872,4.5609,4.5609,4.5531,4.5452,4.5452,4.582,4.6264,4.5661,4.5505,4.5531,4.493,4.4695,4.4695,4.4695,4.4773,4.493,4.5322,4.5243,4.506,4.5348,4.5165,4.493,4.5322,4.5165,4.4982,4.5478,4.5609,4.5635,4.5714,4.6393,4.7202,4.7885,4.812,4.8201,4.8201,4.9928,5.1456,5.1647,5.3311,5.4667,5.4845,5.487,5.4887,5.4855,5.3887,5.3109,5.2899,5.0714,4.9337,4.9456,4.8117,4.7369,4.7459,4.7878,4.8139,4.8139,4.8648,4.8708,4.8139,4.7698,4.7489,4.7489,4.6232,4.5574,4.5454,4.4326,4.3678,3.9257,4.2213,4.5794,4.8433,5.042,5.2014,0.0,0.0,5.34,0.0,0.0,0.0,0.0,0.0,0.0,0.0,0.0,0.0,0.0,0.0,0.0,0.0,0.0,0.0,0.0,0.0,0.0,0.0,0.0,0.0,0.0,4.8201,4.7963,4.7438,4.7333,0.0,4.5844,4.574,4.5452,4.493,4.4487,4.3964,4.3467,4.4017,4.4748,4.5609,4.5609,4.5349,4.4906,4.4906,4.5218,4.5661,4.506,4.5139,4.5531,4.493,4.4695,4.4695,4.4695,4.5034,4.54,4.4956,4.548,4.6081,4.5113,4.5139,4.5374,4.493,4.5139,4.5505,4.5583,4.5609,4.5714,4.6264,4.6107,4.6131,4.7176,4.7832,4.8201,4.8201,4.9246,5.0462,5.1511,5.1946,5.2484,5.3492,5.3623,5.3605,5.3495,5.3318,5.2725,5.1588,5.0175,4.9516,5.0039,4.8364,4.7549,4.8139,4.7698,4.7429,4.7429,4.7519,4.7519,4.7429,4.7908,4.8169,4.8147,4.7399,4.6741,4.6151,4.5971,4.5284,4.0985,4.3258,4.5661,4.7989,4.961,5.0864,5.1753,0.0,0.0,0.0,0.0,0.0,0.0,0.0,0.0,0.0,0.0,0.0,0.0,0.0,0.0,0.0,0.0,0.0,0.0,0.0,0.0,0.0,0.0,0.0,4.8201,4.7885,4.7568,4.7307,4.6395,0.0,4.5166,4.446,4.4016,4.3728,4.352,4.3258,4.2997,4.3284,4.3493,4.3702,4.3989,4.3833,4.3337,4.3337,4.386,4.4617,4.4356,4.4617,4.506,4.4799,4.4695,4.4695,4.4695,4.4878,4.5113,4.5191,4.5322,4.5454,4.5269,4.5139,4.5113,4.5191,4.54,4.5609,4.5609,4.5609,4.5583,4.5506,4.5531,4.574,4.6236,4.7046,4.7982,4.8963,4.9561,5.0266,5.1483,5.1674,5.2081,5.3229,5.3413,5.3483,5.3739,5.3414,5.2839,5.1858,5.0601,4.9763,4.9703,4.8566,4.7818,4.7728,4.7459,4.7309,4.7309,4.7309,4.7309,4.7309,4.7578,4.7728,4.7728,4.707,4.66,4.63,4.5912,4.5424,4.1638,4.318,4.4591,4.6761,4.8381,4.961,0.0,0.0,0.0,0.0,0.0,0.0,0.0,0.0,0.0,0.0,0.0,0.0,0.0,0.0,0.0,0.0,0.0,0.0,0.0,0.0,0.0,0.0,0.0,0.0,4.7963,4.7255,4.6811,4.6654,4.5297,4.4514,4.433,4.331,4.2814,4.2788,4.2631,4.2553,4.2553,4.2735,4.25,4.2003,4.2552,4.2552,4.2186,4.2029,4.2735,4.3886,4.3729,4.4095,4.4695,4.4695,4.4695,4.4695,4.4695,4.4695,4.4773,4.5217,4.5165,4.4982,4.5296,4.5165,4.4982,4.5296,4.5478,4.5609,4.5609,4.5609,4.5478,4.5034,4.5165,4.5452,4.574,4.6602,4.767,4.8981,4.9339,4.9759,5.0657,5.0823,5.1182,5.235,5.2636,5.2897,5.3435,5.3182,5.2665,5.2007,5.0757,4.9853,4.9546,4.8618,4.7908,4.7578,4.7399,4.7309,4.7309,4.7309,4.7309,4.7309,4.7309,4.7309,4.7309,4.6779,4.654,4.654,4.6052,4.5723,4.0045,4.1402,4.2735,4.4434,4.6604,4.8463,0.0,0.0,0.0,0.0,0.0,0.0,0.0,0.0,0.0,0.0,0.0,0.0,0.0,0.0,0.0,0.0,0.0,0.0,0.0,0.0,0.0,0.0,0.0,0.0,4.7359,4.6288,4.548,4.4958,4.4304,4.365,4.3101,4.2526,4.2238,4.2238,4.1664,4.1377,4.1403,4.1977,4.1924,4.1402,4.1977,4.2212,4.216,4.1585,4.2343,4.3834,4.3284,4.3728,4.4695,4.4695,4.4695,4.4695,4.4695,4.4695,4.4721,4.4747,4.5113,4.5452,4.4904,4.5113,4.5426,4.4904,4.5165,4.5609,4.5609,4.5609,4.5583,4.5557,4.5139,4.506,4.6214,4.6917,4.7336,4.7419,4.7893,4.8289,4.8376,4.8376,4.8784,4.9901,5.049,5.1031,5.1566,5.1999,5.2007,5.1325,5.0115,4.9576,5.0129,4.8424,4.7608,4.8229,4.7638,4.7309,4.7309,4.7309,4.7309,4.7309,4.7309,4.7309,4.7309,4.7279,4.7249,4.7249,4.7219,4.686,4.0698,4.1559,4.2604,4.433,4.5663,4.6708,4.7283,0.0,0.0,0.0,0.0,0.0,0.0,0.0,0.0,0.0,0.0,0.0,0.0,0.0,0.0,0.0,0.0,0.0,0.0,0.0,0.0,0.0,0.0,0.0,4.6813,4.5689,4.4827,4.4252,4.3284,4.2526,4.19,4.1716,4.1611,4.1611,4.1402,4.1299,4.1299,4.1533,4.1507,4.1299,4.1533,4.1611,4.1611,4.1402,4.2108,4.331,4.3075,4.3702,4.4695,4.4695,4.4695,4.4695,4.4695,4.4695,4.4695,4.4695,4.4852,4.4982,4.4773,4.4852,4.4982,4.4773,4.5139,4.5505,4.5113,4.5322,4.5505,4.5113,4.4852,4.4825,4.5271,4.5792,4.6314,4.6708,4.6944,4.7205,4.7542,4.7594,4.8026,4.9218,4.9556,4.9983,5.0807,5.0464,5.0435,5.1124,5.0195,4.9669,5.015,4.9194,4.8498,4.8319,4.8057,4.7758,4.7309,4.7698,4.7728,4.7309,4.7309,4.7309,4.7309,4.7309,4.7309,4.7309,4.7309,4.7189,4.0592,0.0,0.0,0.0,4.4905,4.548,4.6055,0.0,0.0,0.0,0.0,0.0,0.0,0.0,0.0,0.0,0.0,0.0,0.0,0.0,0.0,0.0,0.0,0.0,0.0,0.0,0.0,0.0,0.0,0.0,4.5952,4.4644,4.365,4.3049,4.2291,4.1716,4.1299,4.1299,4.1299,4.1299,4.1299,4.1299,4.1299,4.1299,4.1299,4.1299,4.1299,4.1428,4.1585,4.1402,4.1952,4.2971,4.2814,4.3284,4.4146,4.4382,4.4434,4.446,4.4643,4.4695,4.4695,4.4695,4.4695,4.4695,4.4695,4.4695,4.4695,4.4695,4.4982,4.5217,4.4799,4.5008,4.5191,4.4799,4.4695,4.4695,4.4695,4.5165,4.5714,4.6107,4.6342,4.6604,4.697,4.7048,4.7278,4.8095,4.8351,4.8706,4.9368,4.9008,4.918,5.0519,4.9823,4.9443,4.9881,4.9546,4.9007,4.8349,4.8528,4.8349,4.7668,4.8057,4.7967,4.7309,4.7309,4.7309,4.7309,4.7309,4.7309,4.7309,4.7309,4.7309,0.0,0.0,0.0,0.0,0.0,0.0,4.5374,0.0,0.0,0.0,0.0,0.0,0.0,0.0,0.0,0.0,0.0,0.0,0.0,0.0,0.0,0.0,0.0,0.0,0.0,0.0,0.0,0.0,0.0,4.4775,4.4749,4.3101,4.1924,4.1299,4.1299,4.1299,4.1299,4.1299,4.1299,4.1299,4.1299,4.1299,4.1299,4.1299,4.1299,4.1299,4.1299,4.1638,4.2134,4.1533,4.1952,4.2918,4.2395,4.2526,4.3049,4.3703,4.3886,4.399,4.4512,4.4695,4.4695,4.4668,4.4668,4.4668,4.4695,4.4695,4.4695,4.4695,4.4695,4.4695,4.4695,4.4695,4.4695,4.4695,4.4695,4.4695,4.4695,4.5165,4.5583,4.5583,4.6055,4.6449,4.6475,4.6475,4.6475,4.6475,4.6862,4.7162,4.7162,4.7614,4.8346,4.9489,4.8982,4.8775,4.9329,4.9337,4.9037,4.8409,4.8977,4.9007,4.8349,4.8319,4.7997,4.7309,4.7309,4.7309,4.7309,4.7309,4.7309,4.7309,4.7309,4.7309,4.0228,0.0,0.0,0.0,0.0,0.0,4.3127,4.3781,0.0,0.0,0.0,0.0,0.0,0.0,0.0,0.0,0.0,0.0,0.0,0.0,0.0,0.0,0.0,0.0,0.0,0.0,0.0,0.0,4.5243,4.4382,4.3546,4.2265,4.1481,4.1299,4.1299,4.1299,4.1299,4.1299,4.1299,4.1299,4.1299,4.1299,4.1299,4.1299,4.1299,4.1299,4.1299,4.1402,4.1533,4.1376,4.1742,4.2421,4.2264,4.2526,4.3049,4.3703,4.3886,4.3964,4.4296,4.4422,4.4395,4.4176,4.4121,4.4148,4.434,4.4422,4.4449,4.4641,4.4695,4.4641,4.4476,4.4558,4.4641,4.4476,4.4559,4.4695,4.4695,4.4825,4.4956,4.4956,4.5087,4.5349,4.5766,4.5844,4.5844,4.5844,4.5964,4.6193,4.6567,4.6034,4.6634,4.9317,4.8722,4.8845,5.0528,5.0242,4.986,4.968,4.986,4.9464,4.8349,4.8768,4.8468,4.7339,4.7309,4.7309,4.7309,4.7309,4.7309,4.7309,4.7309,4.7309,0.0,0.0,0.0,0.0,0.0,0.0,4.2134,4.2317,4.2449,0.0,0.0,0.0,0.0,0.0,0.0,0.0,0.0,0.0,0.0,0.0,0.0,0.0,0.0,0.0,0.0,0.0,0.0,0.0,4.3853,4.2969,4.2163,4.1588,4.1299,4.1299,4.1299,4.1249,4.1122,4.1223,4.1199,4.0972,4.1072,4.1122,4.1122,4.1122,4.1173,4.1299,4.1173,4.1122,4.1122,4.1023,4.1255,4.1642,4.1515,4.1672,4.2035,4.2891,4.3202,4.3279,4.3892,4.4121,4.4068,4.3672,4.3694,4.3876,4.3783,4.3941,4.4148,4.4313,4.4367,4.434,4.4148,4.4258,4.434,4.4148,4.4258,4.4395,4.4531,4.4531,4.4559,4.4668,4.4695,4.4799,4.5165,4.5217,4.5217,4.5217,4.5217,4.5332,4.5635,4.51,4.5635,4.7993,4.812,4.8581,4.9976,5.0434,5.0518,5.0196,5.0458,5.0062,4.8768,4.9314,4.9045,4.7728,4.7728,4.7578,4.7309,4.7309,4.7309,4.7309,4.7309,4.7309,0.0,0.0,0.0,0.0,0.0,0.0,4.2003,4.135,4.0829,0.0,0.0,0.0,0.0,0.0,0.0,0.0,0.0,0.0,0.0,0.0,0.0,0.0,0.0,0.0,0.0,0.0,4.3355,4.3277,4.2033,4.1183,4.0922,4.1097,4.1224,4.1224,4.1224,4.1097,4.0871,4.1072,4.0972,4.0517,4.0744,4.0871,4.0871,4.0871,4.0997,4.1199,4.0946,4.0871,4.0846,4.0567,4.0618,4.0846,4.0593,4.0517,4.0645,4.1722,4.2158,4.2363,4.3385,4.3793,4.3742,4.3176,4.3355,4.3714,4.3204,4.3409,4.3844,4.3899,4.3899,4.3899,4.3844,4.3872,4.3899,4.3844,4.3872,4.3982,4.4203,4.4285,4.4367,4.4586,4.4668,4.4695,4.4695,4.4695,4.4695,4.4695,4.4695,4.4695,4.4695,4.4695,4.5127,4.6269,4.7254,4.8041,4.8649,5.0106,5.082,5.0345,5.0877,5.0661,4.9456,4.9853,4.9561,4.8438,4.8349,4.7967,4.7309,4.7309,4.7309,4.7309,4.7309,4.7309,0.0,0.0,0.0,0.0,0.0,0.0,4.1664,4.2004,4.2475,0.0,0.0,0.0,0.0,0.0,0.0,0.0,0.0,0.0,0.0,0.0,0.0,0.0,0.0,0.0,0.0,0.0,4.2263,4.1826,4.1106,4.0746,4.0896,4.0744,4.0669,4.0669,4.0669,4.0618,4.0567,4.0618,4.0593,4.0517,4.0542,4.0567,4.0567,4.0567,4.0593,4.0669,4.0593,4.0567,4.0542,4.0287,4.0338,4.0567,4.0516,4.0517,4.0594,4.1312,4.185,4.2258,4.2707,4.3134,4.3436,4.3086,4.3081,4.3184,4.3307,4.3388,4.3545,4.3817,4.3899,4.3844,4.3572,4.3708,4.3844,4.3545,4.3708,4.3899,4.3982,4.4148,4.4313,4.4367,4.4558,4.4695,4.4695,4.4695,4.4695,4.4695,4.4695,4.4695,4.4695,4.4695,4.5127,4.6269,4.6583,4.7429,4.9266,4.9723,5.021,5.095,5.1116,5.0847,5.0069,4.9673,4.9366,4.9097,4.8588,4.7967,4.7309,4.7309,4.7309,4.7309,4.7309,4.7309,0.0,0.0,0.0,4.1742,0.0,0.0,0.0,4.1097,4.1022,4.077,0.0,0.0,0.0,0.0,0.0,0.0,0.0,0.0,0.0,0.0,0.0,0.0,0.0,0.0,0.0,0.0,4.126,4.0978,4.0772,4.0694,4.0694,4.0694,4.0643,4.0517,4.0517,4.044,4.0287,4.0415,4.0389,4.0108,4.0236,4.0287,4.0287,4.0287,4.0364,4.0491,4.0364,4.0287,4.0287,4.0006,3.9981,4.0108,4.0108,4.0108,4.0159,4.0743,4.1124,4.1401,4.1798,4.2326,4.273,4.2313,4.2534,4.2992,4.2828,4.2985,4.324,4.3404,4.3432,4.3404,4.324,4.3348,4.3404,4.324,4.3348,4.3487,4.3626,4.3738,4.3876,4.4066,4.4313,4.4558,4.4668,4.4695,4.4695,4.4695,4.4695,4.4695,4.4695,4.4695,4.4938,4.5502,4.6058,4.6843,4.7917,4.8968,4.9834,5.0364,5.0893,5.0907,5.0226,5.0242,4.9965,4.9307,4.8977,4.8319,4.7309,4.7309,4.7309,4.7309,4.7309,4.7309,0.0,0.0,0.0,0.0,0.0,4.1095,0.0,0.0,0.0,3.9362,0.0,0.0,0.0,0.0,0.0,0.0,0.0,0.0,0.0,0.0,0.0,0.0,0.0,0.0,0.0,0.0,4.0287,4.0108,4.0542,4.067,4.0287,4.0516,4.0567,4.0364,4.0364,4.0236,4.0032,4.0236,4.0134,3.9697,3.9904,4.0032,4.0032,4.0032,4.0134,4.0313,4.0109,4.0032,4.0006,3.98,3.9697,3.9697,3.9697,3.9697,3.9747,4.0199,4.0399,4.0549,4.1001,4.153,4.1959,4.1453,4.1904,4.2612,4.2286,4.2411,4.266,4.266,4.2763,4.2838,4.2838,4.2914,4.3014,4.3014,4.3014,4.3045,4.3295,4.3379,4.3489,4.3736,4.4011,4.4313,4.4559,4.4668,4.4695,4.4695,4.4695,4.4695,4.4695,4.4695,4.4695,4.4695,4.5529,4.6164,4.6374,4.7993,4.917,4.9562,5.0412,5.0726,5.0405,5.0907,5.0541,4.9127,4.9217,4.8648,4.7309,4.7309,4.7309,4.7309,4.7309,4.7309,0.0,0.0,0.0,0.0,4.3048,0.0,0.0,0.0,4.1697,4.1132,0.0,0.0,0.0,0.0,0.0,0.0,0.0,0.0,0.0,0.0,0.0,0.0,0.0,0.0,0.0,0.0,0.0,3.8712,3.9803,4.0232,3.9499,3.9677,3.9826,3.98,3.98,3.9774,3.9749,3.9774,3.9774,3.9697,3.9723,3.9749,3.9749,3.9749,3.9774,3.98,3.9774,3.9749,3.9749,3.9723,3.9697,3.9697,3.9697,3.9697,3.9697,3.9772,4.0099,4.0499,4.0575,4.0951,4.1403,4.1327,4.1403,4.1578,4.206,4.1856,4.1503,4.1503,4.1882,4.2313,4.2313,4.2637,4.3014,4.3014,4.3014,4.3014,4.3042,4.324,4.3409,4.3462,4.3708,4.4037,4.4285,4.4558,4.4695,4.4695,4.4695,4.4695,4.4695,4.4695,4.4695,4.4695,4.483,4.5288,4.6295,4.6635,4.7562,4.9489,4.9708,5.0167,5.1063,5.1146,5.0331,4.8468,4.9007,4.8648,4.7309,4.7309,4.7309,4.7309,4.7309,4.7309,0.0,0.0,0.0,0.0,0.0,0.0,0.0,0.0,4.1286,0.0,0.0,0.0,0.0,0.0,0.0,0.0,0.0,0.0,0.0,0.0,0.0,0.0,0.0,0.0,0.0,0.0,0.0,0.0,0.0,3.9525,3.8382,3.9044,3.9398,3.9245,3.9521,3.9697,3.9697,3.9697,3.9697,3.9697,3.9697,3.9697,3.9697,3.9697,3.9697,3.9697,3.9697,3.9697,3.9697,3.9697,3.9697,3.9697,3.9697,3.9697,3.9697,3.9697,3.9848,4.0049,4.0049,4.04,4.0876,4.1202,4.1302,4.1352,4.1605,4.1503,4.1302,4.1302,4.1731,4.2213,4.2213,4.2587,4.3014,4.3014,4.2763,4.2612,4.2939,4.2821,4.2806,4.3106,4.3406,4.3653,4.3766,4.415,4.4476,4.4476,4.4476,4.4476,4.4476,4.4476,4.4531,4.4668,4.4695,4.4884,4.5368,4.6006,4.6791,4.7689,4.8321,4.8869,4.9313,4.9926,4.9534,4.7923,4.8834,4.8648,4.7309,4.7309,4.7309,4.7309,4.7309,4.7309,4.3257,0.0,0.0,0.0,0.0,0.0,0.0,0.0,0.0,0.0,0.0,0.0,0.0,0.0,0.0,0.0,0.0,0.0,0.0,0.0,0.0,0.0,0.0,0.0,0.0,0.0,0.0,0.0,3.8986,0.0,3.7373,3.8336,3.8944,3.8894,3.9421,3.9697,3.9697,3.9697,3.9697,3.9697,3.9697,3.9697,3.9697,3.9697,3.9697,3.9697,3.9697,3.9697,3.9697,3.9697,3.9697,3.9697,3.9697,3.9697,3.9697,3.9697,3.9697,3.9697,3.9697,3.9948,4.0349,4.0901,4.0976,4.0901,4.1051,4.0976,4.0851,4.0851,4.1379,4.1959,4.1959,4.2487,4.3014,4.3014,4.2688,4.2512,4.2914,4.2688,4.2537,4.2939,4.3156,4.3323,4.3381,4.3821,4.4176,4.4176,4.4176,4.4176,4.4176,4.4176,4.4285,4.4559,4.4586,4.4613,4.4695,4.5449,4.6058,4.6374,4.7408,4.799,4.799,4.8574,4.8364,4.7223,4.8129,4.806,4.6909,4.7149,4.7309,4.7309,4.7309,4.7309,0.0,0.0,0.0,0.0,0.0,0.0,0.0,0.0,4.1022,0.0,0.0,0.0,0.0,0.0,0.0,0.0,0.0,0.0,0.0,0.0,0.0,0.0,0.0,0.0,0.0,0.0,0.0,0.0,3.9547,0.0,3.6581,3.7462,3.8316,3.8869,3.9421,3.9697,3.9697,3.9697,3.9697,3.9697,3.9697,3.9697,3.9697,3.9697,3.9697,3.9697,3.9697,3.9697,3.9697,3.9697,3.9697,3.9697,3.9697,3.9697,3.9697,3.9697,3.9697,3.9697,3.9697,3.9697,3.9798,4.035,4.0174,3.9848,4.0349,4.0174,3.9747,3.9747,4.0499,4.1327,4.1327,4.2158,4.3014,4.3014,4.2989,4.2989,4.3014,4.2989,4.2989,4.3014,4.3014,4.3101,4.3379,4.3681,4.3899,4.3899,4.3899,4.3899,4.3899,4.3899,4.4037,4.4285,4.4313,4.4422,4.4668,4.4722,4.5235,4.6321,4.7408,4.799,4.799,4.7478,4.6834,4.6139,4.662,4.6544,4.5846,4.6814,4.7309,4.7309,4.7309,4.7309,0.0,0.0,4.3951,4.3641,0.0,0.0,0.0,0.0,0.0,0.0,0.0,0.0,0.0,0.0,0.0,0.0,0.0,0.0,0.0,0.0,0.0,0.0,0.0,0.0,0.0,0.0,0.0,3.5983,3.6008,3.5881,0.0,3.5958,3.6936,3.8266,3.8869,3.9346,3.9697,3.9697,3.9697,3.9697,3.9697,3.9697,3.9697,3.9697,3.9697,3.9697,3.9697,3.9697,3.9697,3.9697,3.9697,3.9697,3.9697,3.9697,3.9697,3.9697,3.9697,3.9697,3.9697,3.9697,3.9722,3.9898,3.9848,3.9722,3.9923,3.9848,3.9697,3.9697,4.0224,4.0775,4.0775,4.1327,4.1982,4.2386,4.2158,4.1982,4.2386,4.2158,4.2007,4.2386,4.2462,4.259,4.3078,4.3237,4.3376,4.3517,4.3572,4.3572,4.3572,4.3572,4.3708,4.401,4.4176,4.434,4.4449,4.4586,4.4857,4.5235,4.5608,4.5821,4.5821,4.6339,4.6317,4.5637,4.6742,4.701,4.6401,4.7007,4.7309,4.7309,4.7309,4.7309,4.3096,4.3292,0.0,0.0,4.2847,0.0,0.0,0.0,0.0,0.0,0.0,0.0,0.0,0.0,0.0,0.0,0.0,0.0,0.0,0.0,0.0,0.0,0.0,0.0,0.0,0.0,3.799,3.4929,3.4776,3.4675,0.0,0.0,3.6083,3.7939,3.8592,3.917,3.9697,3.9697,3.9697,3.9697,3.9697,3.9697,3.9697,3.9697,3.9697,3.9697,3.9697,3.9697,3.9697,3.9697,3.9697,3.9697,3.9697,3.9697,3.9697,3.9697,3.9697,3.9697,3.9697,3.9697,3.9697,3.9697,3.9697,3.9697,3.9697,3.9697,3.9747,3.9923,4.0249,4.0524,4.0725,4.1202,4.1656,4.1831,4.1756,4.1681,4.1831,4.1731,4.1731,4.211,4.2336,4.2587,4.2939,4.3014,4.3045,4.324,4.3268,4.3268,4.3268,4.3268,4.3379,4.3681,4.3901,4.4066,4.4285,4.4476,4.4586,4.4695,4.4695,4.4695,4.4695,4.5236,4.5393,4.5153,4.5848,4.6101,4.5907,4.6492,4.677,4.677,4.7127,4.7309]},{"header":{"parameterUnit":"m.s-1","parameterCategory":1,"la1":30.6,"la2":29.2853,"lo1":-89.7004,"lo2":-87.6739,"dy":0.0162,"dx":0.0183,"nx":112,"ny":82,"refTime":"2023-11-22T06:00:00:Z","depth":0,"parameterNumber":3,"parameterNumberName":"V-component_of_WINDS"},"data":[0.0,0.0,0.0,0.0,0.0,0.0,0.0,0.0,0.0,0.0,0.0,0.0,0.0,0.0,0.0,0.0,0.0,0.0,0.0,0.0,0.0,0.0,0.0,0.0,0.0,0.0,0.0,0.0,0.0,0.0,0.0,0.0,0.0,0.0,0.0,0.0,0.0,0.0,0.0,0.0,0.0,0.0,0.0,0.0,0.0,0.0,0.0,0.0,0.0,0.0,0.0,0.0,0.0,0.0,0.0,0.0,0.0,0.0,0.0,0.0,0.0,0.0,0.0,0.0,0.0,0.0,0.0,0.0,0.0,0.0,0.0,0.0,0.0,0.0,0.0,0.0,0.0,0.0,0.0,0.0,0.0,0.0,0.0,0.0,0.0,0.0,0.0,0.0,0.0,0.0,0.0,1.8485,2.0811,2.2442,2.2785,2.2387,2.1159,1.8924,0.0,0.0,0.0,0.0,0.0,0.0,0.0,0.0,0.0,0.0,0.0,0.0,0.0,0.0,0.0,0.0,0.0,0.0,0.0,0.0,0.0,0.0,0.0,0.0,0.0,0.0,0.0,0.0,0.0,0.0,0.0,0.0,0.0,0.0,0.0,0.0,0.0,0.0,0.0,0.0,0.0,0.0,0.0,0.0,0.0,0.0,0.0,0.0,0.0,0.0,0.0,0.0,0.0,0.0,0.0,0.0,0.0,0.0,0.0,0.0,0.0,0.0,0.0,0.0,0.0,0.0,0.0,0.0,0.0,0.0,0.0,0.0,0.0,0.0,0.0,0.0,0.0,0.0,0.0,0.0,0.0,0.0,0.0,0.0,0.0,0.0,0.0,0.0,0.0,0.0,0.0,0.0,0.0,0.0,0.0,0.0,0.0,0.0,0.0,0.0,0.0,0.0,0.0,0.0,1.8302,2.0429,2.1636,2.2332,2.2387,2.1709,2.0704,1.9292,0.0,0.0,0.0,0.0,0.0,0.0,0.0,0.0,0.0,0.0,0.0,0.0,0.0,0.0,0.0,0.0,0.0,0.0,0.0,0.0,0.0,0.0,0.0,0.0,0.0,0.0,0.0,0.0,0.0,0.0,0.0,0.0,0.0,0.0,0.0,0.0,0.0,0.0,0.0,0.0,0.0,0.0,0.0,0.0,0.0,0.0,0.0,0.0,0.0,0.0,0.0,0.0,0.0,0.0,0.0,0.0,0.0,0.0,0.0,0.0,0.0,0.0,0.0,0.0,0.0,0.0,0.0,0.0,0.0,0.0,0.0,0.0,0.0,0.0,0.0,0.0,0.0,0.0,0.0,0.0,0.0,0.0,0.0,0.0,0.0,0.0,0.0,0.0,0.0,0.0,0.0,0.0,0.0,0.0,0.0,0.0,0.0,0.0,0.0,0.0,0.0,0.0,0.0,1.8082,1.9091,2.1489,2.1892,2.2075,2.2277,2.1361,2.0335,1.9366,1.882,0.0,0.0,0.0,0.0,0.0,0.0,0.0,0.0,0.0,0.0,0.0,0.0,0.0,0.0,0.0,0.0,0.0,0.0,0.0,0.0,0.0,0.0,0.0,0.0,0.0,0.0,0.0,0.0,0.0,0.0,0.0,0.0,0.0,0.0,0.0,0.0,0.0,0.0,0.0,0.0,0.0,0.0,0.0,0.0,0.0,0.0,0.0,0.0,0.0,0.0,0.0,0.0,0.0,0.0,0.0,0.0,0.0,0.0,0.0,0.0,0.0,0.0,0.0,0.0,0.0,0.0,0.0,0.0,0.0,0.0,0.0,0.0,0.0,0.0,0.0,0.0,0.0,0.0,0.0,0.0,0.0,0.0,0.0,0.0,0.0,0.0,0.0,0.0,0.0,0.0,0.0,0.0,0.0,0.0,0.0,0.0,0.0,0.0,0.0,0.0,0.0,0.0,1.9309,1.9804,2.1929,2.187,2.1815,2.213,2.105,2.0081,1.9407,1.8675,0.0,0.0,0.0,0.0,0.0,0.0,0.0,0.0,0.0,0.0,0.0,0.0,0.0,0.0,0.0,0.0,0.0,0.0,0.0,0.0,0.0,0.0,0.0,0.0,0.0,0.0,0.0,0.0,0.0,0.0,0.0,0.0,0.0,0.0,0.0,0.0,0.0,0.0,0.0,0.0,0.0,0.0,0.0,0.0,0.0,0.0,0.0,0.0,0.0,0.0,0.0,0.0,0.0,0.0,0.0,0.0,0.0,0.0,0.0,0.0,0.0,0.0,0.0,0.0,0.0,0.0,0.0,0.0,0.0,0.0,0.0,0.0,0.0,0.0,0.0,0.0,0.0,0.0,0.0,0.0,0.0,0.0,0.0,0.0,0.0,0.0,0.0,0.0,0.0,0.0,0.0,0.0,0.0,0.0,0.0,0.0,0.0,0.0,0.0,0.0,0.0,0.0,1.9621,2.0317,2.1595,2.1727,2.1705,2.1723,2.0647,1.9848,1.9585,1.849,0.0,0.0,0.0,0.0,0.0,0.0,0.0,0.0,0.0,0.0,0.0,0.0,0.0,0.0,0.0,0.0,0.0,0.0,0.0,0.0,0.0,0.0,0.0,0.0,0.0,0.0,0.0,0.0,0.0,0.0,0.0,0.0,0.0,0.0,0.0,0.0,0.0,0.0,0.0,0.0,0.0,0.0,0.0,0.0,0.0,0.0,0.0,0.0,0.0,0.0,0.0,0.0,0.0,0.0,0.0,0.0,0.0,0.0,0.0,0.0,0.0,0.0,0.0,0.0,0.0,0.0,0.0,0.0,0.0,0.0,0.0,0.0,0.0,0.0,0.0,0.0,0.0,0.0,0.0,0.0,0.0,0.0,0.0,0.0,0.0,0.0,0.0,0.0,0.0,0.0,0.0,0.0,0.0,0.0,0.0,0.0,0.0,0.0,0.0,0.0,0.0,0.0,2.0024,2.0647,0.0,2.1861,2.195,2.195,2.1193,2.057,2.0238,0.0,0.0,0.0,0.0,0.0,0.0,0.0,0.0,0.0,0.0,0.0,0.0,0.0,0.0,0.0,0.0,0.0,0.0,0.0,0.0,0.0,0.0,0.0,0.0,0.0,0.0,0.0,0.0,0.0,0.0,0.0,0.0,0.0,0.0,0.0,0.0,0.0,0.0,0.0,0.0,0.0,0.0,0.0,0.0,0.0,0.0,0.0,0.0,0.0,0.0,0.0,0.0,0.0,0.0,0.0,0.0,0.0,0.0,0.0,0.0,0.0,0.0,0.0,0.0,0.0,0.0,0.0,0.0,0.0,0.0,0.0,0.0,0.0,0.0,0.0,0.0,0.0,0.0,0.0,0.0,0.0,0.0,0.0,0.0,0.0,0.0,0.0,0.0,0.0,0.0,0.0,0.0,0.0,0.0,0.0,0.0,0.0,0.0,0.0,0.0,0.0,0.0,1.9747,2.0372,2.0983,0.0,2.1976,2.2128,2.2176,2.1466,2.0911,2.0706,0.0,0.0,0.0,0.0,0.0,0.0,0.0,0.0,0.0,0.0,0.0,0.0,0.0,0.0,0.0,0.0,0.0,0.0,0.0,0.0,0.0,0.0,0.0,0.0,0.0,0.0,0.0,0.0,0.0,0.0,0.0,0.0,0.0,0.0,0.0,0.0,0.0,0.0,0.0,0.0,0.0,0.0,0.0,0.0,0.0,0.0,0.0,0.0,0.0,0.0,0.0,0.0,0.0,0.0,0.0,0.0,0.0,0.0,0.0,0.0,0.0,0.0,0.0,0.0,0.0,0.0,0.0,0.0,0.0,0.0,0.0,0.0,0.0,0.0,0.0,0.0,0.0,0.0,0.0,0.0,0.0,0.0,0.0,0.0,0.0,0.0,0.0,0.0,0.0,0.0,0.0,0.0,0.0,0.0,0.0,0.0,0.0,0.0,0.0,0.0,0.0,0.0,1.9804,2.0631,2.136,2.2028,2.2106,2.2176,2.2397,2.1305,2.0707,0.0,0.0,0.0,0.0,0.0,0.0,0.0,0.0,0.0,0.0,0.0,0.0,0.0,0.0,0.0,0.0,0.0,0.0,0.0,0.0,0.0,0.0,0.0,0.0,0.0,0.0,0.0,0.0,0.0,0.0,0.0,0.0,0.0,0.0,0.0,0.0,0.0,0.0,0.0,0.0,0.0,0.0,0.0,0.0,0.0,0.0,0.0,0.0,0.0,0.0,0.0,0.0,0.0,0.0,0.0,0.0,0.0,0.0,0.0,0.0,0.0,0.0,0.0,0.0,0.0,0.0,0.0,0.0,0.0,0.0,0.0,0.0,0.0,0.0,0.0,0.0,0.0,0.0,0.0,0.0,0.0,0.0,0.0,0.0,0.0,0.0,0.0,0.0,0.0,0.0,0.0,0.0,0.0,0.0,0.0,0.0,0.0,0.0,0.0,0.0,0.0,0.0,0.0,2.0532,2.1441,2.2092,2.229,2.2485,2.2618,2.2684,2.1972,2.1556,2.1597,0.0,0.0,0.0,0.0,0.0,0.0,0.0,0.0,0.0,0.0,0.0,0.0,0.0,0.0,0.0,0.0,0.0,0.0,0.0,0.0,0.0,0.0,0.0,0.0,0.0,0.0,0.0,0.0,0.0,0.0,0.0,0.0,0.0,0.0,0.0,0.0,0.0,0.0,0.0,0.0,0.0,0.0,0.0,0.0,0.0,0.0,0.0,0.0,0.0,0.0,0.0,0.0,0.0,0.0,0.0,0.0,0.0,0.0,0.0,0.0,0.0,0.0,0.0,0.0,0.0,0.0,0.0,0.0,0.0,0.0,0.0,0.0,0.0,0.0,0.0,0.0,0.0,0.0,0.0,0.0,0.0,0.0,0.0,0.0,0.0,0.0,0.0,0.0,0.0,0.0,0.0,0.0,0.0,0.0,0.0,0.0,0.0,0.0,0.0,0.0,0.0,0.0,2.0968,2.1844,2.2441,2.2552,2.2706,2.2816,2.2904,2.2279,2.204,2.2369,0.0,0.0,0.0,0.0,0.0,0.0,0.0,0.0,0.0,0.0,0.0,0.0,0.0,0.0,0.0,0.0,0.0,0.0,0.0,0.0,0.0,0.0,0.0,0.0,0.0,0.0,0.0,0.0,0.0,0.0,0.0,0.0,0.0,0.0,0.0,0.0,0.0,0.0,0.0,0.0,0.0,0.0,0.0,0.0,0.0,0.0,0.0,0.0,0.0,0.0,0.0,0.0,0.0,0.0,0.0,0.0,0.0,0.0,0.0,0.0,0.0,0.0,0.0,0.0,0.0,0.0,0.0,0.0,0.0,0.0,0.0,0.0,0.0,0.0,0.0,0.0,0.0,0.0,0.0,0.0,0.0,0.0,0.0,0.0,0.0,0.0,0.0,0.0,0.0,0.0,0.0,0.0,0.0,0.0,0.0,0.0,0.0,0.0,0.0,0.0,0.0,0.0,2.1233,2.1992,2.2552,2.2794,2.2816,2.2904,2.3079,2.2402,2.2244,2.294,0.0,0.0,0.0,0.0,0.0,0.0,0.0,0.0,0.0,0.0,0.0,0.0,0.0,0.0,0.0,0.0,0.0,0.0,0.0,0.0,0.0,0.0,0.0,0.0,0.0,0.0,0.0,0.0,0.0,0.0,0.0,0.0,0.0,0.0,0.0,0.0,0.0,0.0,0.0,0.0,0.0,0.0,0.0,0.0,0.0,0.0,0.0,0.0,0.0,0.0,0.0,0.0,0.0,0.0,0.0,0.0,0.0,0.0,0.0,0.0,1.9164,0.0,0.0,0.0,0.0,0.0,0.0,0.0,0.0,0.0,0.0,0.0,0.0,0.0,0.0,0.0,0.0,0.0,0.0,0.0,0.0,0.0,0.0,0.0,0.0,0.0,0.0,0.0,0.0,0.0,0.0,0.0,0.0,0.0,0.0,0.0,0.0,0.0,0.0,0.0,0.0,0.0,2.1943,2.2551,2.2969,2.3035,2.3035,2.3057,2.3101,2.2654,2.231,2.2163,0.0,0.0,0.0,0.0,0.0,0.0,0.0,0.0,0.0,0.0,0.0,0.0,0.0,0.0,0.0,0.0,0.0,0.0,0.0,0.0,0.0,0.0,0.0,0.0,0.0,0.0,0.0,0.0,0.0,0.0,0.0,0.0,0.0,0.0,0.0,0.0,0.0,0.0,0.0,0.0,0.0,0.0,0.0,0.0,0.0,0.0,0.0,0.0,0.0,0.0,0.0,0.0,0.0,0.0,0.0,0.0,0.0,0.0,0.0,0.0,0.0,1.9921,0.0,0.0,0.0,0.0,0.0,0.0,0.0,0.0,0.0,0.0,0.0,0.0,0.0,0.0,0.0,0.0,0.0,0.0,0.0,0.0,0.0,0.0,0.0,0.0,0.0,0.0,0.0,0.0,0.0,0.0,0.0,0.0,0.0,0.0,0.0,0.0,0.0,0.0,0.0,0.0,2.2582,2.3096,2.3435,2.3435,2.3435,2.3536,2.3754,2.299,2.295,2.4005,2.3011,0.0,0.0,0.0,0.0,0.0,0.0,0.0,0.0,0.0,0.0,0.0,0.0,0.0,0.0,0.0,0.0,0.0,0.0,0.0,0.0,0.0,0.0,0.0,0.0,0.0,0.0,0.0,0.0,0.0,0.0,0.0,0.0,0.0,0.0,0.0,0.0,0.0,0.0,0.0,0.0,0.0,0.0,0.0,0.0,0.0,0.0,0.0,0.0,0.0,0.0,0.0,0.0,0.0,0.0,0.0,2.5677,2.5166,2.5308,2.5799,2.3296,2.181,2.1153,0.0,0.0,0.0,0.0,0.0,0.0,0.0,0.0,0.0,0.0,0.0,0.0,0.0,0.0,0.0,0.0,0.0,0.0,0.0,0.0,0.0,0.0,0.0,0.0,0.0,2.1511,2.1531,0.0,0.0,0.0,0.0,0.0,0.0,0.0,0.0,0.0,0.0,0.0,0.0,2.3479,2.387,2.4167,2.4384,2.4324,2.4434,2.4826,2.3753,2.3971,2.6069,2.4239,2.3506,0.0,0.0,0.0,0.0,0.0,0.0,0.0,0.0,0.0,0.0,0.0,0.0,0.0,0.0,0.0,0.0,0.0,0.0,0.0,0.0,0.0,0.0,0.0,0.0,0.0,0.0,0.0,0.0,0.0,0.0,0.0,0.0,2.1468,2.1533,0.0,0.0,0.0,0.0,0.0,0.0,0.0,0.0,0.0,0.0,0.0,0.0,0.0,0.0,2.6249,2.7679,2.7738,2.6468,2.7233,2.7481,2.7212,2.7113,2.7901,2.9252,2.8861,0.0,2.3406,2.3812,0.0,0.0,0.0,0.0,0.0,0.0,0.0,0.0,0.0,0.0,0.0,0.0,0.0,0.0,0.0,0.0,0.0,0.0,0.0,0.0,0.0,0.0,2.2434,2.3329,2.3253,2.3242,0.0,2.2696,2.1023,2.0966,0.0,0.0,0.0,0.0,0.0,0.0,0.0,0.0,2.521,2.5249,2.5581,2.6778,2.6498,2.626,2.6324,2.5741,2.5371,2.5367,2.5674,2.547,2.4539,2.4353,0.0,0.0,0.0,0.0,0.0,0.0,0.0,0.0,0.0,0.0,0.0,0.0,0.0,0.0,0.0,0.0,0.0,0.0,0.0,0.0,0.0,0.0,0.0,0.0,0.0,0.0,0.0,0.0,0.0,2.2688,2.3083,2.3446,2.305,2.2633,0.0,0.0,0.0,0.0,0.0,0.0,0.0,0.0,0.0,2.7058,2.8631,2.9442,2.9374,3.1321,3.1945,3.1263,3.1696,3.1961,3.2053,3.1705,3.1915,3.2527,3.2266,3.0838,2.8557,2.692,2.5167,2.3512,0.0,0.0,0.0,0.0,0.0,0.0,2.2647,0.0,0.0,0.0,0.0,0.0,0.0,0.0,0.0,0.0,0.0,0.0,0.0,0.0,0.0,2.613,2.6189,2.6186,2.6801,2.5979,2.4719,0.0,2.3062,2.29,2.2411,0.0,0.0,0.0,0.0,0.0,2.6476,2.6779,2.7102,2.7721,2.759,2.7546,2.78,2.6859,2.661,2.744,2.6809,2.6271,2.6017,2.6165,2.565,0.0,0.0,0.0,0.0,0.0,0.0,0.0,0.0,0.0,0.0,0.0,0.0,0.0,0.0,0.0,0.0,0.0,0.0,0.0,0.0,0.0,0.0,0.0,0.0,0.0,0.0,0.0,0.0,2.4402,2.4956,2.5192,2.5208,2.4945,0.0,0.0,0.0,0.0,0.0,0.0,2.7581,2.8118,2.9038,3.049,3.2413,3.3356,3.3215,3.5222,3.6065,3.5785,3.5902,3.6206,3.6547,3.5948,3.586,3.6061,3.5548,3.4877,3.384,3.045,2.7876,2.602,2.5444,2.4535,0.0,2.4177,2.4655,2.5098,2.5424,2.6229,2.6996,2.6145,0.0,2.5785,2.526,0.0,0.0,0.0,0.0,2.6137,2.6512,0.0,2.7745,2.8722,2.8853,2.8828,2.9218,2.8923,2.7899,0.0,2.5029,2.47,2.4155,0.0,0.0,0.0,0.0,2.7084,2.7917,2.8277,2.8611,2.8993,2.8903,2.8966,2.9296,2.8096,2.7878,2.921,2.7804,2.7115,2.7531,2.7561,2.6993,2.5745,0.0,0.0,0.0,0.0,0.0,0.0,0.0,0.0,0.0,0.0,0.0,0.0,0.0,0.0,0.0,0.0,0.0,0.0,0.0,0.0,0.0,0.0,0.0,0.0,0.0,0.0,0.0,0.0,0.0,2.6159,2.6706,0.0,0.0,0.0,0.0,2.6769,2.8762,3.0513,3.1715,3.2176,3.3515,3.5923,3.6622,3.7416,3.8398,3.9557,3.9556,3.8401,3.8931,3.9179,3.9179,3.8631,3.9021,4.0066,3.9539,3.8988,3.8189,3.4458,3.159,2.9626,3.0398,2.9625,2.8186,2.911,2.9733,3.0147,3.0238,3.1062,3.1845,3.0093,2.8606,2.737,2.6841,2.6687,0.0,0.0,2.7392,2.8098,2.8254,2.8871,2.9717,3.0719,3.0566,3.0576,3.1966,3.0835,2.9086,0.0,2.7554,2.7493,2.658,0.0,0.0,2.7106,2.7205,2.8005,2.9725,2.9657,2.9972,3.1354,3.1059,3.0769,3.0788,2.981,2.921,2.9292,2.8747,2.8395,2.8419,2.7649,2.718,2.7098,2.4968,0.0,0.0,0.0,0.0,0.0,0.0,0.0,0.0,0.0,0.0,0.0,0.0,0.0,0.0,0.0,0.0,0.0,0.0,0.0,0.0,0.0,0.0,0.0,0.0,0.0,0.0,0.0,0.0,3.0431,3.0869,0.0,0.0,3.1051,3.1256,3.1457,3.2866,3.436,3.5838,3.669,3.7869,3.9441,4.0359,4.0816,4.0836,4.1586,4.1574,4.0808,4.133,4.1597,4.1567,4.1377,4.1155,4.0884,4.0691,4.0138,3.9221,3.7884,3.5502,3.2638,3.2264,3.1193,2.9894,3.0464,3.0991,3.1435,3.1731,3.2544,3.3304,3.2347,3.1458,3.0662,3.0124,2.9938,2.996,2.9982,3.0475,3.0991,3.1037,3.1505,3.223,3.3244,3.3076,3.291,3.3791,3.3149,3.2183,3.1365,3.0277,2.9251,2.8581,2.953,2.9991,2.8851,2.9835,3.0795,3.11,3.1311,3.1507,3.1673,3.1526,3.1406,3.1406,3.0443,2.9797,2.9797,2.9003,2.8502,2.8502,2.8199,2.8039,2.8039,2.6696,2.5733,0.0,0.0,0.0,0.0,0.0,0.0,0.0,0.0,0.0,0.0,0.0,0.0,0.0,0.0,0.0,0.0,0.0,0.0,0.0,0.0,0.0,0.0,0.0,0.0,0.0,0.0,3.2897,3.3762,3.4579,3.4969,3.4796,3.5041,3.5381,3.5766,3.7052,3.8439,3.987,4.0817,4.1788,4.2855,4.3463,4.3754,4.3705,4.3802,4.3644,4.3258,4.3476,4.3481,4.3289,4.3126,4.2669,4.1942,4.1634,4.1081,4.0379,4.021,3.8656,3.625,3.4977,3.3689,3.2592,3.3069,3.3407,3.3723,3.399,3.4515,3.4973,3.4293,3.3717,3.3188,3.2635,3.2369,3.2273,3.2441,3.2851,3.3332,3.3501,3.3933,3.4511,3.5159,3.5063,3.4919,3.5256,3.4919,3.4438,3.415,3.258,3.113,3.0593,3.1484,3.1854,3.0682,3.1793,3.2635,3.2273,3.2539,3.2563,3.2032,3.196,3.1887,3.1717,3.0877,3.0299,3.0107,2.9268,2.8691,2.8522,2.8502,2.8502,2.8502,2.7938,2.69,2.5401,0.0,0.0,0.0,0.0,0.0,0.0,0.0,0.0,0.0,0.0,0.0,0.0,0.0,0.0,0.0,0.0,0.0,0.0,0.0,0.0,0.0,0.0,0.0,3.0828,3.336,3.5502,3.5961,3.7583,3.8256,3.7235,3.8397,3.9283,3.9474,4.1265,4.2786,4.3846,4.4412,4.52,4.6204,4.5942,4.6186,4.7016,4.6294,4.5836,4.5712,4.5305,4.4852,4.4292,4.3794,4.3529,4.3457,4.2477,4.2073,4.1995,4.1466,4.0936,4.0258,3.8647,3.7397,3.6531,3.7036,3.7204,3.7204,3.7204,3.7204,3.7036,3.6002,3.5304,3.4775,3.4222,3.3742,3.3477,3.3958,3.4462,3.4967,3.5472,3.6026,3.6411,3.6435,3.6411,3.6411,3.6435,3.6002,3.5616,3.5592,3.439,3.3211,3.2635,3.2996,3.3164,3.2635,3.2996,0.0,3.3308,3.3308,3.3116,3.2587,3.2515,3.2274,3.1767,3.119,3.066,3.0131,2.9581,2.9051,2.8502,2.8502,2.8502,2.8502,2.8459,2.7612,2.584,0.0,0.0,0.0,0.0,0.0,0.0,0.0,0.0,0.0,0.0,0.0,0.0,0.0,0.0,0.0,0.0,0.0,0.0,0.0,0.0,0.0,0.0,3.5383,3.4905,3.7097,3.9226,4.0575,4.1688,4.2315,4.2195,4.307,4.3669,4.3728,4.4943,4.5816,4.6081,4.6992,4.7459,4.7361,4.7634,4.7732,4.7582,4.6574,4.6022,4.5968,4.5477,4.5048,4.4687,4.4762,4.447,4.3844,4.3847,4.3451,4.2826,4.2346,4.1668,4.0836,3.9633,3.8743,3.8091,3.7853,3.7757,3.7757,3.7757,3.7757,3.7687,3.6988,3.6675,3.6435,3.588,3.5665,3.5569,3.5688,3.5857,3.6002,3.6146,3.629,3.6507,3.6892,3.6675,3.6507,3.6892,3.6555,3.6074,3.5689,3.528,3.4655,3.3742,3.403,3.4198,3.3669,0.0,0.0,3.3862,3.3814,3.3621,3.3116,3.2731,3.2442,3.2274,3.1093,3.0275,0.0,2.922,2.8667,2.8522,2.8502,2.8502,2.8502,2.7898,2.7307,0.0,0.0,0.0,0.0,0.0,0.0,0.0,0.0,0.0,0.0,0.0,0.0,0.0,0.0,0.0,0.0,0.0,0.0,0.0,0.0,0.0,0.0,3.6772,3.8989,3.9781,4.0997,4.2398,4.3961,4.5072,4.577,4.5897,4.6662,4.7122,4.6965,4.7884,4.8419,4.8419,4.9263,4.9487,4.8916,4.905,4.8951,4.8568,4.7604,4.7122,4.7033,4.6302,4.5748,4.5342,4.5184,4.4799,0.0,4.4147,4.3789,4.327,4.2821,4.2316,0.0,0.0,0.0,0.0,0.0,3.8,3.8,3.8,3.8,3.7952,3.7637,3.7372,3.7132,3.6819,3.6579,3.6411,3.6411,3.6555,3.6747,3.6747,3.6892,3.7156,3.7445,3.73,3.7156,3.7471,3.7108,3.6651,3.6338,0.0,0.0,3.5111,3.4895,3.4703,3.4366,3.4607,3.4703,0.0,3.4342,3.415,3.3669,3.3309,3.2971,3.2539,3.1625,0.0,0.0,0.0,2.8979,2.8522,2.8502,0.0,0.0,0.0,2.7733,0.0,0.0,0.0,0.0,2.4172,2.3551,0.0,0.0,0.0,0.0,0.0,0.0,0.0,0.0,0.0,0.0,0.0,0.0,0.0,0.0,0.0,0.0,3.9918,4.2607,4.4665,4.4935,4.5326,4.6446,4.7783,4.8597,4.8547,4.9354,4.9711,4.9369,5.0129,5.0569,5.0486,0.0,0.0,0.0,0.0,4.9973,4.959,4.9,4.8597,4.8348,4.7453,4.6777,4.6229,4.5508,4.511,4.4951,4.422,4.3832,4.3668,4.3198,4.2927,4.2645,4.1105,3.9826,3.8839,3.8286,3.8096,0.0,0.0,0.0,0.0,3.8,3.7687,3.7276,3.7276,3.6964,3.6579,3.6579,3.6916,3.7276,3.7276,3.7637,3.8,3.8,3.8,3.8,3.8,3.7639,3.7252,3.7204,3.6819,3.6483,3.6411,3.5592,3.4991,3.4991,3.4991,0.0,3.4895,3.4895,3.4679,3.415,0.0,0.0,3.2683,3.2491,3.1769,3.0299,3.0131,2.9629,2.8623,2.8595,2.8551,2.8502,2.8502,2.8502,2.8502,2.7713,2.7348,2.7307,2.5484,2.4637,0.0,0.0,0.0,0.0,0.0,0.0,0.0,0.0,0.0,0.0,0.0,0.0,0.0,0.0,0.0,4.007,4.3181,4.5769,4.7079,4.8372,4.8999,4.8385,4.9733,5.0554,5.0044,5.0988,5.1415,5.093,5.144,5.1574,5.1147,5.1649,0.0,5.0411,5.1231,5.1005,4.9615,4.9461,4.9153,4.8698,0.0,0.0,4.7227,4.7284,4.6923,4.6248,4.6364,4.5852,4.4896,4.4388,4.363,4.2669,4.1514,4.0379,3.9393,3.8864,3.8671,3.8599,3.8142,3.8,3.8,3.8,3.7928,3.7856,3.7856,3.7757,0.0,3.7711,3.7784,3.7856,3.7856,3.7928,3.8,3.8,3.8,3.8,3.8,3.7928,3.7735,3.7276,3.7108,3.6916,3.6483,3.6242,3.6098,3.6098,3.6098,3.5928,3.5496,3.5448,3.5232,3.4703,3.427,3.3766,3.3188,3.2345,3.1526,3.078,3.0347,2.9797,2.9172,2.9148,2.8955,2.8522,2.8502,2.8502,2.8502,2.8319,2.8259,2.8199,2.638,2.5547,0.0,0.0,0.0,0.0,0.0,0.0,0.0,0.0,0.0,0.0,0.0,3.4648,0.0,0.0,4.1229,4.3435,4.615,4.8234,4.9038,5.0368,5.0845,4.9715,5.0845,5.1574,5.1297,5.2026,5.2402,5.2126,5.2352,5.2277,5.1724,5.195,5.1599,5.0444,5.1247,5.1021,4.9615,4.9866,4.9715,4.9163,4.8611,4.8272,4.8114,4.7533,4.701,4.6582,4.6309,4.5852,4.5276,4.4829,4.4056,4.3102,4.2543,4.1557,4.0306,3.9513,3.9224,3.9101,3.8599,3.8407,3.8359,3.8096,3.8,3.8,3.8,3.8,3.8,3.8,3.8,3.8,3.8,3.8,3.8,3.8,3.8,3.8,3.8,3.8,3.7928,3.7637,3.7589,3.7519,3.7252,3.7204,3.7012,3.6483,3.6411,3.6314,3.605,3.576,3.5496,3.5232,3.4727,3.4198,3.3693,3.2683,3.1863,3.1334,3.0804,3.0275,2.9725,2.9701,2.9556,2.9316,2.9292,2.9292,2.9292,2.9027,2.8907,2.8887,2.7708,2.6917,0.0,0.0,0.0,0.0,0.0,0.0,0.0,0.0,3.337,3.4095,3.6003,3.7964,3.9421,4.2034,4.4568,4.6476,4.8636,5.0243,5.067,5.1624,5.1925,5.0988,5.1724,5.2277,5.2277,5.2678,5.2895,5.2895,5.2795,5.2594,5.2277,5.2176,5.1674,5.077,5.1197,5.0896,4.9766,5.0193,5.0142,4.959,4.917,4.8969,4.8887,4.7627,4.6948,4.6823,4.5816,4.5392,4.5361,4.5055,4.4481,4.3856,4.3735,4.2909,4.1601,4.0359,3.985,3.9681,3.9125,3.896,3.886,3.8455,3.8286,3.8313,3.8193,3.8241,3.8289,3.8072,3.8096,3.8118,3.8048,3.8,3.8,3.8,3.8,3.8,3.8,3.8,3.8,3.8,3.8,3.8,3.8,3.8,3.7711,3.6843,3.6723,3.6675,3.6579,3.6194,3.5856,3.576,3.528,3.4703,3.4054,3.3165,3.2466,3.2032,3.1599,3.1093,3.0443,3.0419,3.0323,3.0086,3.0107,3.0107,3.0107,2.9653,2.946,2.9436,2.9003,2.8329,2.8674,2.853,2.9333,3.0758,3.1587,3.267,0.0,0.0,3.6959,3.8039,3.9999,4.1733,4.2411,4.5171,4.7606,4.8391,5.0368,5.185,5.19,5.2418,5.2744,5.2619,5.2719,5.2795,5.2795,5.2845,5.2895,5.2895,5.2477,5.2377,5.277,5.2377,5.2051,5.1925,5.1975,5.1473,5.0343,5.0393,5.0142,4.959,4.954,4.9515,4.949,4.883,4.8247,4.7664,4.6326,4.5757,4.5726,4.5392,4.519,4.5061,4.4571,4.4097,4.3492,4.1673,4.0715,4.0234,3.9705,3.9513,3.9513,3.9441,3.9417,3.9345,3.8836,3.9056,3.9224,3.8289,3.8334,3.8623,3.8118,3.8,3.8,3.8,3.8,3.8,3.8,3.8,3.8,3.8,3.8,3.8,3.8,3.8,3.7976,3.7856,3.7832,3.7663,3.7156,3.706,3.6843,3.6362,3.5808,3.5111,3.4078,3.3501,3.3164,3.3116,3.3067,3.2585,3.1551,3.1502,3.1069,3.0131,3.0107,3.0107,3.0107,3.0058,2.9989,2.9989,2.9962,2.9371,3.0494,3.0658,3.1512,0.0,3.3768,3.5579,3.7462,3.8743,3.9998,4.143,4.3514,4.5321,4.623,4.8316,5.0067,0.0,5.1774,5.2578,5.2578,5.2468,5.2201,5.1515,5.144,5.1816,5.2795,5.2895,5.2895,5.2895,5.2669,5.2553,5.2452,5.2226,5.195,5.1624,5.1624,5.1247,5.0386,5.0386,5.0142,4.959,4.959,4.959,4.9565,4.8661,4.7807,4.6954,4.635,4.5969,4.5787,4.5635,4.5483,4.5276,4.5054,4.4503,4.3668,4.2399,4.1711,4.1225,4.0355,4.0066,4.0018,3.9705,3.9609,3.9561,3.9317,3.9441,3.9513,3.9056,3.8864,3.874,3.8527,3.8214,3.8,3.8,3.8,3.8,3.8,3.8106,3.8236,3.8236,3.8368,3.8473,3.8473,3.8473,3.8473,3.8473,3.8185,3.7928,3.7685,3.7372,3.6988,3.6459,3.6218,3.576,3.4991,3.4751,3.439,3.3742,3.3452,3.297,3.22,3.1863,3.1478,3.1021,3.1021,3.1021,3.1021,3.0708,3.0564,3.0564,3.0251,2.9845,3.1883,3.2462,0.0,3.4472,3.6532,3.8693,4.0124,4.1729,4.3335,4.4869,4.6702,4.8303,4.9321,5.0594,5.1649,5.2051,5.2578,5.2845,5.2694,5.2042,5.1222,5.0092,4.9658,5.0009,5.1389,5.1941,5.2343,5.2644,5.2519,5.2427,5.2327,5.2176,5.1925,5.1523,5.1498,5.1222,5.067,5.0494,5.0218,4.9816,4.9665,4.959,4.9565,4.8435,4.733,4.6301,4.6301,4.615,4.5939,4.5939,4.5787,4.5574,4.5574,4.502,4.4191,4.3473,4.2691,4.1914,4.1031,4.0765,4.0801,4.0302,4.0209,4.0269,4.0124,4.0172,4.0245,3.993,3.9688,3.947,3.9301,3.8989,3.8674,3.8674,3.8674,3.865,3.8505,3.8613,3.8697,3.855,3.8684,3.8788,3.8788,3.8788,3.8788,3.8788,3.8473,3.8185,3.8106,3.769,3.7204,3.6675,3.6627,3.6411,3.5881,3.5688,3.528,3.4487,3.3958,3.3428,3.2755,3.2345,3.1984,3.1717,3.1717,3.1717,3.1717,3.131,3.1117,3.1093,3.0732,3.054,3.2136,0.0,3.465,3.7914,3.9973,4.1754,4.3912,4.5719,4.7249,4.8416,4.9515,5.0494,5.1096,5.1674,5.2076,5.2101,5.2578,5.2694,5.2201,5.1172,5.0067,4.8994,4.7883,4.7425,0.0,4.9508,5.0913,5.2051,5.1624,5.18,5.282,5.2402,5.2101,5.2076,5.2076,5.1825,5.1272,5.0695,5.0386,5.0393,4.9841,4.959,4.9565,4.8435,4.733,4.6301,4.6301,4.6271,4.6271,4.6271,4.6271,4.6271,4.6271,4.6035,4.5663,4.5117,4.3721,4.2054,4.1692,4.1777,4.1976,4.1643,4.1753,4.1935,4.1419,4.1615,4.1812,4.0786,4.0832,4.1099,4.0589,4.0441,4.0417,4.0417,4.0417,4.0294,3.9775,3.9652,3.9505,3.8887,3.8788,3.8788,3.8788,3.8788,3.8788,3.8788,3.8788,3.8684,3.8421,3.8159,3.7784,3.7228,3.718,3.6964,3.6435,3.5905,3.5568,3.5544,3.5039,3.4294,3.3331,3.326,3.2754,3.1741,3.1717,3.1717,3.1717,3.1693,3.1693,3.1693,3.1669,3.1669,3.5997,0.0,3.9121,4.255,4.4288,4.5643,4.7506,4.8636,4.9508,5.0326,4.954,4.8812,4.9012,4.8912,4.9038,4.9766,5.0996,5.1774,5.1574,5.1222,5.0042,4.7456,4.7431,0.0,0.0,0.0,0.0,5.0896,5.1523,5.2,5.2352,5.2553,5.2619,5.2619,5.2302,5.185,5.1331,5.072,5.0243,4.9866,4.969,4.9188,4.846,4.8083,4.733,4.6301,4.6301,4.6301,4.6301,4.6301,4.6301,4.6301,4.6301,4.6015,4.5599,4.5399,4.4661,4.3614,4.2778,4.232,4.2082,4.1972,4.2025,4.2086,4.1889,4.1963,4.2037,4.1643,4.1422,4.125,4.1081,4.0761,4.0493,4.0493,4.0493,4.0444,4.0272,4.0382,4.044,4.0215,4.0351,4.0458,4.0458,4.0159,3.9811,3.9462,3.905,3.8762,3.8684,3.8605,3.8453,3.8282,3.8077,3.7778,3.7245,3.6874,3.6362,3.564,3.5087,3.4487,3.379,3.314,3.2587,3.2248,3.1887,3.1717,3.1717,3.1717,3.1717,3.1717,3.1717,3.1717,4.0165,4.1845,4.3577,4.7355,4.8655,4.9365,5.064,5.1048,5.1013,5.0524,4.8761,4.728,4.7079,4.6276,4.6194,4.7876,4.8903,4.99,5.117,5.0436,4.9087,4.7193,4.7248,0.0,0.0,0.0,0.0,5.0049,5.1172,5.19,5.2101,5.2594,5.2795,5.2594,5.2477,5.2126,5.1574,5.1021,5.0343,4.959,4.959,4.9113,4.8209,4.8008,4.7431,4.6602,4.6401,4.6301,4.6301,4.6301,4.6301,4.6301,4.6301,4.61,4.5773,4.5773,4.5422,4.4732,4.3515,4.2905,4.2669,4.2358,4.2436,4.2669,4.2499,4.2669,4.2892,4.2549,4.2326,4.2152,4.1954,4.166,4.1387,4.1387,4.1387,4.1337,4.1139,4.1226,4.1284,4.1085,4.1168,4.1302,4.1302,4.1026,4.06,4.0074,3.9661,3.9298,3.9022,3.8867,3.8788,3.8788,3.8657,3.8406,3.8064,3.7612,3.6973,3.6079,3.5425,3.4775,3.403,3.3381,3.2875,3.2515,3.2176,3.1887,3.1717,3.1717,3.1717,3.1717,3.1717,3.1717,4.4626,4.6328,4.8044,5.219,5.2976,5.2806,5.3299,5.29,5.1736,4.9337,4.7378,4.5933,0.0,0.0,4.3866,4.6461,4.6609,4.7617,5.1003,4.9118,4.7638,0.0,0.0,0.0,0.0,0.0,0.0,4.9689,0.0,5.1498,5.2076,5.2594,5.2644,5.2176,5.2619,5.2619,5.2126,5.1523,5.0695,4.964,4.9615,4.9314,4.8793,4.8209,4.7657,4.7074,4.6547,4.6326,4.6301,4.6301,4.6301,4.6301,4.6301,4.6301,4.6301,4.6301,4.5974,4.5342,4.3974,4.3662,4.3708,4.2899,4.3159,4.374,4.3215,4.374,4.4338,4.3288,4.3363,4.3639,4.314,4.3014,4.3014,4.3014,4.3014,4.2864,4.2336,4.2263,4.206,4.1503,4.1403,4.1378,4.1352,4.1352,4.1152,4.0575,4.0499,4.022,3.941,3.9024,3.8841,3.8841,3.8841,3.8815,3.8815,3.8115,3.7398,3.6863,3.6103,3.5208,3.415,3.4054,3.3597,3.2635,3.2539,3.225,3.1719,3.1695,3.1717,3.1717,3.1717,3.1717,5.1418,5.3021,5.3991,5.6793,5.6354,5.5154,5.4736,5.2841,5.0804,4.959,4.6338,4.3374,0.0,0.0,0.0,4.5024,4.7567,0.0,5.247,5.2512,0.0,5.1748,0.0,5.2152,5.1129,5.1764,0.0,0.0,5.1064,5.1071,5.2051,5.2594,5.282,5.2694,5.282,5.2619,5.2126,5.1122,5.0494,5.0193,4.9791,4.9314,4.8793,4.8642,4.8033,4.7099,4.6948,4.6672,4.6301,4.6301,4.6301,4.6301,4.6301,4.6301,4.6301,4.6301,4.6225,4.5999,4.5208,4.4711,4.4364,4.4127,4.4206,4.4317,4.3765,4.379,4.3865,4.319,4.3115,4.3162,4.3039,4.3014,4.3014,4.3014,4.3014,4.2964,4.2838,4.2788,4.2763,4.2585,4.2559,4.2434,4.2034,4.1984,4.1658,4.0651,4.0499,4.0299,3.9695,3.9516,3.949,3.949,3.9284,3.918,3.918,3.8587,3.7983,3.7422,3.7022,3.6483,3.5833,3.5015,3.4487,3.4222,3.3092,3.2442,3.2298,3.1887,3.1717,3.1717,3.1717,3.1717,5.589,5.7352,5.7973,5.9624,5.8519,5.6634,5.5081,5.2684,4.9961,4.7152,4.4308,0.0,4.028,0.0,0.0,0.0,0.0,0.0,5.3743,5.4033,5.4033,0.0,5.5058,0.0,5.376,5.4369,5.4673,0.0,5.2576,5.2013,5.2941,5.291,5.3179,5.3801,5.3213,5.2619,5.2126,5.1222,5.067,5.0386,4.9866,4.9439,4.9145,4.8919,4.8435,4.7832,0.0,4.6923,4.6622,4.6401,4.6301,4.6301,4.6301,4.6301,4.6301,4.6301,4.6301,4.6276,4.5949,4.5623,4.5242,4.4765,4.4765,4.4895,4.4342,4.4518,4.4669,4.3639,4.3514,4.3589,4.314,4.3014,4.3014,4.3014,4.3014,4.3014,4.3014,4.3014,4.3014,4.3014,4.3014,4.2914,4.2587,4.2537,4.2261,4.1379,4.1028,4.065,4.0124,3.9848,3.9697,3.9697,3.9568,3.949,3.949,3.905,3.8567,3.8053,3.7618,3.7144,3.6612,3.5667,3.5039,3.4799,3.3525,3.2731,3.2491,3.196,3.1717,3.1717,3.1717,3.1717,5.8958,6.0203,6.0731,6.1211,5.9715,5.7447,5.4908,5.2123,4.871,4.388,0.0,4.0965,3.904,3.9887,4.1947,4.5128,0.0,4.9737,5.5032,5.477,5.4824,5.6865,5.7121,5.6704,5.556,5.6411,5.6891,5.6608,5.4885,5.3965,5.4184,5.3554,5.3632,5.4686,5.3555,5.2669,5.2226,5.1599,5.1021,5.0519,4.9891,4.959,4.9565,4.9145,4.8868,4.8743,0.0,0.0,4.7174,4.6622,4.6426,4.6401,4.6326,4.6301,4.6301,4.6301,4.6301,4.6301,4.6301,4.6301,4.615,4.5141,4.5196,4.5497,4.489,4.5422,4.5874,4.4342,4.4242,4.4392,4.3438,4.3165,4.3115,4.3115,4.3065,4.3014,4.3014,4.3014,4.3014,4.3014,4.3014,4.3014,4.3014,4.3014,4.2813,4.2288,4.1681,4.1127,4.0575,4.0023,3.9697,3.9697,3.9697,3.9697,3.9697,3.9439,3.9111,3.8638,3.8051,3.7547,3.7034,3.6226,3.5521,3.5015,3.3885,3.3068,3.2611,3.1984,3.1717,3.1717,3.1717,3.1717,6.1716,6.2865,6.3087,6.2177,6.0086,5.7599,5.5032,5.0209,0.0,0.0,4.1952,4.0399,3.9289,4.1831,4.4714,4.6567,4.8607,0.0,0.0,0.0,5.7514,0.0,0.0,0.0,0.0,0.0,0.0,0.0,0.0,0.0,5.4911,5.4734,5.4182,5.3282,5.3033,5.2845,5.2744,5.1774,5.1255,5.1122,5.0092,4.959,4.959,4.949,4.9245,4.8793,0.0,0.0,4.7732,4.7174,4.6973,4.6923,4.6471,4.6301,4.6301,4.6301,4.6301,4.6301,4.6301,4.6301,4.6276,4.6075,4.6075,4.6075,4.5497,4.5472,4.5472,4.4665,4.4514,4.4564,4.4364,4.3991,4.3664,4.3664,4.3313,4.3014,4.3014,4.3014,4.3014,4.3014,4.3014,4.3014,4.3014,4.3014,4.2813,4.2288,4.1681,4.1127,4.0575,4.0023,3.9697,3.9697,3.9697,3.9697,3.9697,3.9439,3.9259,3.9185,3.8797,3.8436,3.8129,3.7154,3.642,3.6122,3.427,3.3236,3.314,3.2176,3.1717,3.1717,3.1717,3.1717,6.3254,6.4038,6.4067,6.2122,5.9684,5.6868,5.3326,0.0,0.0,0.0,4.1362,4.0625,4.0053,4.24,0.0,4.6711,4.8173,5.0862,0.0,0.0,0.0,0.0,0.0,0.0,0.0,0.0,0.0,0.0,0.0,0.0,5.7231,5.7129,5.6482,5.5094,5.5027,5.4694,5.4005,5.291,5.1984,5.1306,5.0142,4.959,4.959,4.959,4.9439,4.922,0.0,0.0,4.8284,4.745,4.7099,4.7048,4.6496,4.6301,4.6301,4.6301,4.6301,4.6301,4.6301,4.6301,4.6301,4.6301,4.6301,4.625,4.5999,4.5924,4.5799,4.5221,4.507,4.4995,4.4665,4.4389,4.4242,4.4242,4.3815,4.3341,4.3065,4.3014,4.3014,4.3014,4.3014,4.3014,4.3014,4.3014,4.2914,4.2663,4.2135,4.1555,4.0976,4.0449,4.0023,3.9722,3.9697,3.9697,3.9697,3.9594,3.9491,3.9491,3.9232,3.8998,3.8867,3.7976,3.733,3.7025,3.4969,3.3833,3.3645,3.2345,3.1717,3.1717,3.1717,3.1717,6.3825,6.4165,6.3775,6.1539,5.8929,5.5765,5.1468,4.7399,0.0,0.0,4.0866,4.1015,4.0661,0.0,4.4443,0.0,4.7259,4.9349,5.4487,0.0,0.0,0.0,0.0,0.0,0.0,0.0,0.0,0.0,0.0,0.0,0.0,5.8812,5.8151,5.7038,5.7006,5.6384,5.502,5.3981,5.2743,5.1306,5.0268,4.9715,4.959,4.959,4.959,4.9565,0.0,0.0,0.0,4.7757,4.7274,4.7199,4.6547,4.6301,4.6301,4.6301,4.6301,4.6301,4.6301,4.6301,4.6301,4.6301,4.6301,4.6301,4.6301,4.6301,4.6225,4.5773,4.5673,4.5547,4.5066,4.4865,4.474,4.4614,4.4192,4.3689,4.3237,4.309,4.3014,4.3014,4.3014,4.3014,4.3014,4.3014,4.3014,4.3014,4.2537,4.2034,4.1528,4.0901,4.035,3.9923,3.9772,3.9697,3.9697,3.9697,3.9697,3.9697,3.9516,3.9362,3.9284,3.8581,3.8028,3.7696,3.5893,3.47,3.4294,3.2822,3.2026,3.1863,3.1743,3.1717,6.3313,6.3057,6.1787,6.0573,5.7913,5.4575,5.066,0.0,4.268,4.0965,4.0866,4.1015,4.0661,0.0,0.0,0.0,0.0,4.8687,5.3878,5.5068,0.0,0.0,0.0,0.0,0.0,0.0,0.0,0.0,0.0,0.0,0.0,5.787,5.7134,5.7006,5.7006,5.6384,5.502,5.4367,5.313,5.1306,5.0645,5.0067,4.959,4.959,4.959,4.959,0.0,0.0,0.0,4.8309,4.7832,4.7732,4.6702,4.6301,4.6301,4.6301,4.6301,4.6301,4.6301,4.6301,4.6301,4.6301,4.6301,4.6301,4.6301,4.6301,4.6301,4.625,4.6225,4.6225,4.6175,4.5773,4.5271,4.4715,4.4192,4.379,4.374,4.3338,4.3014,4.3014,4.3014,4.3014,4.3014,4.3014,4.3014,4.3014,4.2537,4.2187,4.211,4.1153,4.0474,4.0424,3.9998,3.9697,3.9697,3.9697,3.9697,3.9697,3.9671,3.9568,3.931,3.8762,3.8335,3.8079,3.6899,3.5941,3.5187,3.4043,3.315,3.2418,3.1936,3.1717,6.2849,6.3222,6.2058,6.0573,5.7507,5.369,4.9266,0.0,4.1612,4.0767,4.0551,4.0714,4.1376,4.2037,0.0,0.0,0.0,0.0,4.9843,5.0656,5.2484,0.0,0.0,0.0,0.0,0.0,0.0,0.0,0.0,0.0,0.0,5.983,5.9524,5.9524,5.9524,5.8871,5.7483,5.6499,5.524,5.3693,5.2739,5.2159,5.1948,5.1948,5.1948,5.1917,0.0,0.0,0.0,4.8705,4.7908,4.7807,4.6728,4.6301,4.6301,4.6301,4.6301,4.6301,4.6301,4.6301,4.6301,4.6301,4.6301,4.6301,4.6301,4.6301,4.6301,4.6301,4.6301,4.6301,4.6301,4.615,4.5849,4.5271,4.4719,4.4192,4.3865,4.3363,4.3014,4.3014,4.3014,4.3014,4.3014,4.3014,4.3014,4.3014,4.2813,4.2562,4.2263,4.148,4.0976,4.0976,4.0224,3.9697,3.9697,3.9697,3.9697,3.9697,3.9697,3.9645,3.9568,3.9042,3.8615,3.8285,3.6899,3.5889,3.5235,3.3824,3.2932,3.2491,3.1936,3.1717,6.0514,6.1453,6.0797,5.9873,5.6617,5.247,0.0,0.0,4.1468,4.0739,4.0666,4.0989,4.1918,4.2092,4.2295,4.2905,0.0,4.3805,4.7056,4.7985,5.0017,0.0,0.0,0.0,0.0,0.0,0.0,0.0,0.0,0.0,0.0,6.1193,6.1193,6.1193,6.1193,6.0501,5.9121,5.8083,5.6798,5.5278,5.4243,5.3643,5.351,5.351,5.351,0.0,0.0,0.0,0.0,4.9784,4.8896,4.8634,4.7713,4.7353,4.7353,4.7353,4.7116,4.6845,4.6845,4.6576,4.6301,4.6301,4.6301,4.6301,4.6301,4.6301,4.6301,4.6301,4.6301,4.6301,4.6301,4.6301,4.62,4.5824,4.5296,4.4769,4.4392,4.374,4.324,4.324,4.3115,4.3014,4.3014,4.3014,4.3014,4.3014,4.3014,4.2864,4.2487,4.1932,4.1553,4.1553,4.0601,3.9948,3.9948,3.9798,3.9697,3.9697,3.9697,3.9697,3.9697,3.9195,3.8793,3.854,3.7244,3.6255,3.5551,3.4258,3.3317,3.2731,3.22,3.1839,5.5683,5.6923,5.7091,5.8078,5.4882,5.0641,0.0,0.0,4.2507,4.0936,4.1381,4.2092,4.2092,4.2092,4.2295,4.2905,0.0,0.0,4.654,4.8484,0.0,0.0,0.0,0.0,0.0,0.0,0.0,0.0,0.0,0.0,0.0,0.0,6.1193,6.1193,6.1193,6.0501,5.9121,5.8444,5.7154,5.5278,5.4588,5.3992,5.351,5.351,0.0,0.0,0.0,0.0,0.0,5.1907,5.1281,5.0599,5.0061,4.9845,4.9845,4.9845,4.9106,4.8094,4.8094,4.7324,4.6301,4.6301,4.6301,4.6301,4.6301,4.6301,4.6301,4.6301,4.6301,4.6301,4.6301,4.6301,4.6301,4.6301,4.5874,4.5472,4.5472,4.4593,4.379,4.379,4.3338,4.3014,4.3014,4.3014,4.3014,4.3014,4.3014,4.3014,4.2989,4.2512,4.2213,4.2213,4.1153,4.0474,4.0474,3.9998,3.9697,3.9697,3.9697,3.9697,3.9697,3.9195,3.8894,3.8894,3.8291,3.7443,3.6383,3.5842,3.4794,3.3283,3.2731,3.2224,4.9941,5.1278,5.1176,5.1472,4.9779,4.7132,4.3701,4.2276,4.1188,3.9461,4.0328,4.1541,4.2005,4.2092,4.2295,0.0,0.0,0.0,0.0,0.0,0.0,0.0,0.0,0.0,0.0,0.0,0.0,0.0,0.0,0.0,0.0,0.0,6.1193,6.1193,6.0758,6.0288,5.987,5.8777,5.794,5.733,5.6646,5.6277,5.6107,5.6107,0.0,0.0,0.0,0.0,0.0,5.2316,5.131,5.0656,5.0117,4.9901,4.9901,4.9901,4.9647,4.9306,4.9306,4.8558,4.7534,4.7534,4.6968,4.6301,4.6301,4.6301,4.6301,4.6301,4.6301,4.6301,4.6301,4.6301,4.6301,4.6301,4.5899,4.5497,4.5497,4.4895,4.4367,4.4367,4.3915,4.3539,4.3539,4.324,4.3014,4.3014,4.3014,4.3014,4.3014,4.2512,4.2213,4.2213,4.1505,4.0901,4.0524,4.0023,3.9697,3.9697,3.9697,3.9697,3.9697,3.9195,3.8718,3.8291,3.7739,3.7017,3.6132,3.5585,3.471,3.3492,3.2958,3.2528,4.4549,4.6457,4.6904,4.7645,4.6525,0.0,0.0,4.1259,4.0933,3.9102,4.0175,4.1599,4.2005,4.2092,4.2208,0.0,0.0,0.0,0.0,0.0,0.0,0.0,0.0,0.0,0.0,0.0,0.0,0.0,0.0,0.0,0.0,0.0,6.1077,6.0816,6.0409,6.0206,6.0206,5.8929,5.829,5.829,5.7623,5.7303,5.7303,0.0,0.0,0.0,0.0,0.0,0.0,5.3332,5.2351,5.1739,5.1377,5.1265,5.1265,5.1265,5.0989,5.0573,5.0573,4.9788,4.8762,4.8762,4.7974,4.6968,4.6968,4.6665,4.6301,4.6301,4.6301,4.6301,4.6301,4.6301,4.6301,4.6301,4.605,4.5799,4.5799,4.5347,4.4945,4.4945,4.4317,4.379,4.379,4.3366,4.3014,4.3014,4.3014,4.3014,4.3014,4.2713,4.2487,4.2487,4.1982,4.1403,4.0851,4.0325,3.9923,3.9697,3.9697,3.9697,3.9697,3.9195,3.8617,3.8015,3.7462,3.679,3.5979,3.5361,3.4636,3.3899,3.3363,3.2886,0.0,4.211,4.3626,4.5571,4.447,0.0,4.0769,4.1229,0.0,3.9552,4.0738,4.2092,4.2092,4.2092,4.2121,0.0,0.0,0.0,0.0,0.0,0.0,0.0,0.0,0.0,0.0,0.0,0.0,0.0,0.0,0.0,0.0,0.0,0.0,6.0206,6.0148,6.0119,6.0061,5.8842,5.8232,5.8232,5.7594,5.7303,5.7303,0.0,0.0,0.0,0.0,0.0,0.0,5.4722,5.4084,5.3474,5.3474,5.3474,5.3474,5.3474,5.281,5.1838,5.1838,5.1017,4.9986,4.9929,4.9135,4.821,4.8123,4.7265,4.6301,4.6301,4.6301,4.6301,4.6301,4.6301,4.6301,4.6301,4.6301,4.6301,4.6301,4.5899,4.5547,4.5547,4.4669,4.3915,4.3865,4.3438,4.3115,4.3065,4.3065,4.3065,4.3065,4.3039,4.2989,4.2889,4.2462,4.1934,4.1252,4.075,4.0275,3.9722,3.9697,3.9697,3.9697,3.9195,3.8617,3.8015,3.7462,3.6789,3.6027,3.5269,3.4764,3.4457,3.3945,3.3344,3.5,0.0,3.7042,3.781,3.8394,3.8522,0.0,0.0,0.0,0.0,0.0,4.2092,4.2092,4.2092,4.2237,0.0,0.0,0.0,0.0,0.0,0.0,0.0,0.0,0.0,0.0,0.0,0.0,0.0,0.0,0.0,0.0,0.0,0.0,6.0206,5.9742,5.9277,5.8755,5.7942,5.7536,5.7536,5.739,5.7303,5.7274,0.0,0.0,0.0,0.0,0.0,5.4693,5.4575,5.4084,5.3474,5.3474,5.3474,5.3474,5.3474,5.3316,5.3076,5.3076,5.2299,5.1127,5.0182,4.9704,4.9306,4.8384,4.7265,4.6301,4.6301,4.6301,4.6301,4.6301,4.6301,4.6301,4.6301,4.6301,4.6301,4.6301,4.62,4.6125,4.6125,4.5573,4.4945,4.4493,4.4317,4.4091,4.3664,4.3614,4.3614,4.3614,4.3237,4.266,4.1779,4.2009,4.1607,4.0199,4.035,4.0275,3.9722,3.9697,3.9697,3.9697,3.9195,3.8617,3.8015,3.7085,3.6483,3.631,3.6114,3.578,3.5304,3.4976,3.4516,3.2817,3.3875,3.4813,3.5273,3.6293,3.7178,3.6936,3.8439,0.0,0.0,0.0,4.1556,4.203,4.2092,0.0,0.0,0.0,0.0,0.0,0.0,0.0,0.0,0.0,0.0,0.0,0.0,0.0,0.0,0.0,0.0,0.0,0.0,0.0,0.0,5.9161,5.8668,5.829,5.7652,5.7303,5.7303,5.7303,5.7158,5.6868,0.0,0.0,0.0,0.0,0.0,5.4487,5.4168,5.3849,5.3474,5.3474,5.3474,5.3474,5.3474,5.3474,5.3474,5.3474,5.3076,5.2434,5.1757,5.1182,5.0601,4.9958,4.8503,4.6998,4.6451,4.6301,4.6301,4.6301,4.6301,4.6301,4.6301,4.6301,4.6301,4.6301,4.6301,4.6301,4.6301,4.5874,4.5397,4.507,4.4765,4.4489,4.4217,4.4192,4.4192,4.4192,4.3689,4.3137,4.2507,4.2311,4.1708,4.0524,4.0474,4.0275,3.9722,3.9697,3.9697,3.9697,3.9421,3.8868,3.8015,3.6959,3.6405,3.6405,3.6405,3.6168,3.5788,3.5633,3.5195,3.239,3.3805,3.5082,3.5102,3.6093,3.716,3.7475,3.8197,3.9146,0.0,0.0,4.1078,4.1947,4.2179,0.0,0.0,0.0,0.0,0.0,0.0,0.0,0.0,0.0,0.0,0.0,0.0,0.0,0.0,0.0,0.0,0.0,0.0,0.0,0.0,5.861,5.8261,5.8145,5.7594,5.7303,5.7303,5.7216,5.6897,5.6403,5.62,0.0,0.0,0.0,0.0,5.4287,5.3706,5.3474,5.3474,5.3474,5.3474,5.3474,5.3474,5.3474,5.3474,5.3474,5.3474,5.3474,5.3474,5.281,5.1947,5.1757,5.0294,4.8413,4.7176,4.6601,4.6301,4.6301,4.6301,4.6301,4.6301,4.6301,4.6301,4.6301,4.6301,4.6301,4.6301,4.5924,4.5598,4.5497,4.5146,4.4815,4.474,4.4715,4.4715,4.4715,4.4192,4.374,4.3564,4.2663,4.1808,4.1127,4.0625,4.0199,3.9722,3.9697,3.9647,3.9572,3.9572,3.9069,3.8015,3.7034,3.6531,3.6531,3.6455,3.6264,3.5979,3.6027,3.566,3.39,3.5504,3.6226,3.4012,3.5409,3.7182,3.6503,3.8592,4.065,0.0,0.0,0.0,0.0,4.2498,4.2876,0.0,0.0,0.0,0.0,0.0,0.0,0.0,0.0,0.0,0.0,0.0,0.0,0.0,0.0,0.0,0.0,0.0,0.0,0.0,0.0,5.8029,5.7448,5.7361,5.7303,5.7303,5.6781,5.649,5.6374,5.53,5.4749,0.0,0.0,0.0,5.3675,5.3532,5.3474,5.3474,5.3474,5.3474,5.3474,5.3474,5.3474,5.3474,5.3474,5.3474,5.3474,5.3474,5.3369,5.3023,5.2001,5.1429,5.0906,4.9675,4.7886,4.6301,4.6301,4.6301,4.6301,4.6301,4.6301,4.6301,4.6301,4.6301,4.6301,4.6301,4.625,4.6024,4.5573,4.5799,4.5899,4.5422,4.5347,4.5347,4.5347,4.4443,4.3438,4.2537,4.1831,4.1026,4.0023,3.9873,3.9798,3.9697,3.9697,3.9496,3.9044,3.9019,3.8718,3.8015,3.7387,3.7085,3.7085,3.6607,3.6264,3.6003,3.6241,3.6167,3.3545,3.5179,3.6279,3.5132,3.6649,3.8461,3.852,3.9114,4.009,0.0,0.0,0.0,0.0,0.0,0.0,0.0,0.0,0.0,0.0,0.0,0.0,0.0,0.0,0.0,0.0,0.0,0.0,0.0,0.0,0.0,0.0,0.0,0.0,0.0,0.0,0.0,5.7303,5.6984,5.681,5.681,5.6171,5.5707,5.5358,5.4778,5.4287,0.0,0.0,5.321,5.3471,5.3152,5.321,5.3471,5.3123,5.321,5.3474,5.3474,5.3297,5.3065,5.3384,5.3474,5.3474,5.3474,5.3474,5.3395,5.2837,5.2217,5.1565,5.1017,4.9135,4.7265,4.7265,4.7265,4.7116,4.6451,4.6815,4.7087,4.6451,4.6301,4.6301,4.6301,4.6301,4.6225,4.5974,4.615,4.6225,4.5974,4.5924,4.5824,4.5522,4.4769,4.394,4.3165,4.2032,4.1102,4.06,4.0049,3.9697,3.9697,3.9697,3.9572,3.9346,3.9044,3.8768,3.8492,3.7914,3.7487,3.721,3.6959,3.6611,3.6217,3.6334,3.631,3.3269,3.5024,3.6695,3.6919,3.8292,3.9859,4.0861,4.047,4.0619,0.0,0.0,0.0,0.0,0.0,0.0,0.0,0.0,0.0,0.0,0.0,0.0,0.0,0.0,0.0,0.0,0.0,0.0,0.0,0.0,0.0,0.0,0.0,0.0,0.0,0.0,0.0,5.71,5.649,5.6258,5.6403,5.5591,5.4952,5.449,5.4342,5.3907,5.3268,5.2801,5.2746,5.301,5.2543,5.263,5.301,5.2568,5.2659,5.3065,5.3065,5.2775,5.2452,5.2891,5.3065,5.3068,5.3239,5.3297,5.3326,5.3471,5.2863,5.2109,5.2109,5.0601,4.8877,4.8589,4.8503,4.821,4.7023,4.7416,4.7769,4.6571,4.6301,4.6301,4.6301,4.6301,4.6301,4.6301,4.6301,4.6301,4.6301,4.6301,4.615,4.5723,4.507,4.4389,4.3865,4.2306,4.1202,4.0951,4.0174,3.9697,3.9697,3.9823,3.9898,3.9898,3.9471,3.922,3.9095,3.8492,3.7939,3.7411,3.7411,3.706,3.6405,3.6531,3.6531,3.4276,3.6432,3.8412,3.8873,3.9743,4.0869,4.2247,4.3525,0.0,4.5495,0.0,0.0,0.0,0.0,0.0,0.0,0.0,0.0,0.0,0.0,0.0,0.0,0.0,0.0,0.0,0.0,0.0,0.0,0.0,0.0,0.0,0.0,0.0,0.0,0.0,0.0,5.6461,5.5823,5.5794,5.6403,5.5155,5.4519,5.4487,5.3878,5.3239,5.2655,5.2626,5.2252,5.1733,5.1675,5.1675,5.1733,5.1675,5.1675,5.1733,5.1733,5.1704,5.1675,5.1704,5.1733,5.1846,5.2481,5.2655,5.2772,5.3326,5.3422,5.3369,5.3369,5.2434,5.1182,5.0042,4.976,4.9448,4.8268,4.8035,4.7769,4.6571,4.6301,4.6301,4.6301,4.6301,4.6301,4.6301,4.6301,4.6301,4.6301,4.6301,4.6301,4.625,4.5267,4.4389,4.3865,4.2306,4.0901,3.9898,3.9747,3.9697,3.9697,4.0174,4.0424,4.0424,4.0425,4.0149,3.9647,3.912,3.8542,3.7939,3.7939,3.7387,3.6405,3.6909,3.6884,3.48,3.7112,3.9444,4.0034,4.146,0.0,0.0,4.572,4.6789,4.7021,4.8217,0.0,0.0,0.0,0.0,0.0,0.0,0.0,0.0,0.0,0.0,0.0,0.0,0.0,0.0,0.0,0.0,0.0,0.0,0.0,0.0,0.0,0.0,0.0,0.0,0.0,0.0,5.5533,5.5358,5.5186,5.4722,5.4081,5.3323,5.3062,5.2572,5.1962,5.1581,5.1468,5.1559,5.1207,5.1265,5.1588,5.1588,5.112,5.0511,5.1323,5.1381,5.1091,5.1443,5.1588,5.1617,5.1904,5.1991,5.202,5.2252,5.2601,5.2946,5.2946,5.2867,5.2541,5.1319,5.1017,5.0712,4.9505,4.9221,4.8904,4.7681,4.6845,4.6301,4.6301,4.6301,4.6301,4.6301,4.6301,4.6301,4.6301,4.6301,4.6175,4.5849,4.5422,4.4819,4.389,4.2306,4.1001,4.0275,3.9898,3.9998,4.065,4.0275,3.9998,3.9998,3.9998,3.9898,3.9697,3.9496,3.912,3.8567,3.8567,3.8165,3.7387,3.7261,3.7085,3.4842,3.719,3.9675,4.0316,0.0,0.0,4.7172,4.8241,4.8938,4.9751,5.0332,0.0,0.0,0.0,0.0,0.0,0.0,0.0,0.0,0.0,0.0,0.0,0.0,0.0,0.0,0.0,0.0,0.0,0.0,0.0,0.0,0.0,0.0,0.0,0.0,0.0,0.0,5.5126,5.4923,5.449,5.449,5.3936,5.2888,5.2888,5.2397,5.1588,5.1407,5.1203,5.0975,5.0797,5.0826,5.1004,5.1004,5.0452,4.9809,5.0685,5.0743,5.0448,5.0859,5.1004,5.1033,5.1265,5.1323,5.1352,5.153,5.1933,5.2281,5.2281,5.2717,5.3027,5.2202,5.2129,5.1947,5.074,5.0182,4.9562,4.8384,4.7146,4.6301,4.6301,4.6301,4.6301,4.6301,4.6301,4.6301,4.6301,4.6301,4.6175,4.5799,4.5598,4.4995,4.3689,4.2534,4.1478,4.0575,4.0174,4.0275,4.1001,4.0375,4.0099,4.0477,4.03,4.0049,3.9697,3.9697,3.9346,3.8617,3.8994,3.8668,3.7739,3.7538,3.7286,3.4418,3.6613,3.9076,3.9703,0.0,0.0,5.0602,5.1149,5.1436,5.3994,5.2484,5.1116,5.2394,0.0,0.0,0.0,0.0,0.0,0.0,0.0,0.0,0.0,0.0,0.0,0.0,0.0,0.0,0.0,0.0,0.0,0.0,0.0,0.0,0.0,0.0,0.0,0.0,5.449,5.449,5.449,5.449,5.4142,5.3474,5.3474,5.2778,5.1617,5.2307,5.1494,4.978,5.0419,5.0303,4.9722,4.9722,4.9722,4.9693,4.9693,4.9693,4.9693,4.9693,4.9693,4.9809,5.0477,5.0681,5.0797,5.141,5.1588,5.1588,5.1588,5.2078,5.2597,5.2597,5.3036,5.3182,5.2001,5.0796,4.959,4.8413,4.7205,4.6331,4.6301,4.6301,4.6301,4.6301,4.6301,4.6301,4.6301,4.6301,4.6301,4.6301,4.5824,4.4874,4.319,4.3014,4.2308,4.0651,4.0499,4.0474,4.0499,4.0499,4.1003,4.2135,4.163,4.08,3.9722,3.9697,3.9145,3.8015,3.9145,3.8843,3.7235,3.7764,3.7436,3.6859,3.8943,4.1422,4.2487,0.0,0.0,0.0,5.2107,0.0,0.0,5.4197,5.3617,0.0,0.0,0.0,0.0,0.0,0.0,0.0,0.0,0.0,0.0,0.0,0.0,0.0,0.0,0.0,0.0,0.0,0.0,0.0,0.0,0.0,0.0,0.0,0.0,0.0,0.0,5.4258,5.3793,5.3793,5.3471,5.2888,5.2888,5.2397,5.1617,5.1817,5.1585,5.1062,5.1265,5.0975,5.039,5.039,5.0129,4.9693,4.9693,4.9693,4.9693,4.9693,4.9693,4.9722,4.9925,5.0013,5.0042,5.0216,5.0569,5.0946,5.0946,5.141,5.1991,5.2481,5.2743,5.2871,5.2963,5.2028,5.1072,5.0712,4.9675,4.8587,4.774,4.7563,4.7324,4.6451,4.6301,4.6301,4.6301,4.6301,4.6301,4.6301,4.5472,4.4694,4.4192,4.2733,4.1603,4.1102,4.0349,4.0099,4.0474,4.0851,4.1202,4.1528,4.1403,4.0976,4.03,4.0275,3.9923,3.9195,3.9546,3.9271,3.8391,3.8115,3.7613,3.7813,3.9918,4.2528,4.4298,4.6673,4.9606,5.3588,0.0,0.0,0.0,0.0,0.0,0.0,0.0,0.0,0.0,0.0,0.0,0.0,0.0,0.0,0.0,0.0,0.0,0.0,0.0,0.0,0.0,0.0,0.0,0.0,0.0,0.0,0.0,0.0,0.0,0.0,0.0,0.0,5.3474,5.3474,5.3326,5.2949,5.2949,5.2601,5.1991,5.173,5.1759,5.1991,5.1704,5.141,5.1033,5.0797,5.0448,5.0071,4.9809,4.9693,4.9693,4.9693,4.9693,4.9693,4.9693,4.9693,4.9693,4.9693,4.9983,5.0303,5.0303,5.0743,5.1323,5.1755,5.222,5.2743,5.3355,5.2568,5.1674,5.1674,5.074,4.9675,4.8935,4.8442,4.786,4.7146,4.6606,4.6301,4.6301,4.6301,4.6301,4.6301,4.5522,4.4895,4.4614,4.3009,4.1779,4.1352,4.0499,4.0174,4.0474,4.1001,4.1403,4.1656,4.1428,4.1051,4.0499,4.03,3.9923,3.9396,3.9396,3.9069,3.8542,3.7939,3.7387,3.807,4.0269,4.2963,4.5576,4.8386,0.0,5.4342,5.7768,6.0409,6.0758,0.0,0.0,0.0,0.0,0.0,0.0,0.0,0.0,0.0,0.0,0.0,0.0,0.0,0.0,0.0,0.0,0.0,0.0,0.0,0.0,0.0,0.0,0.0,0.0,0.0,0.0,0.0,0.0,0.0,0.0,5.3384,5.3384,5.3442,5.3471,5.321,5.2655,5.2049,5.2107,5.2626,5.202,5.1733,5.1643,5.1004,5.0739,5.0622,4.9954,4.9693,4.9693,4.9693,4.9751,4.978,4.9722,4.9751,4.978,4.9722,4.9693,4.9693,4.9693,5.0129,5.0622,5.0681,5.1552,5.2597,5.3268,5.2619,5.1866,5.1866,5.0989,5.0182,5.0097,4.9078,4.8239,4.8123,4.7087,4.6301,4.6301,4.6301,4.6301,4.625,4.5748,4.5196,4.4589,4.3514,4.2434,4.1403,4.075,4.0424,4.0424,4.0926,4.1453,4.2009,4.1681,4.1202,4.0676,4.0124,3.9572,3.9044,3.8994,3.8642,3.799,3.7487,3.6959,4.1055,4.272,4.5046,4.8125,5.2714,5.6897,5.8581,6.0032,6.0438,5.8523,0.0,0.0,0.0,0.0,0.0,0.0,0.0,0.0,0.0,0.0,0.0,0.0,0.0,0.0,0.0,0.0,0.0,0.0,0.0,0.0,0.0,0.0,0.0,0.0,0.0,0.0,5.2801,5.2801,5.2801,0.0,5.2281,5.2281,5.283,5.3297,5.3442,5.3297,5.3152,5.3181,5.3297,5.3152,5.2804,5.2336,5.1672,5.112,5.0622,4.9954,4.9693,4.9693,4.9693,5.0042,5.039,4.9867,5.0071,5.039,4.9867,4.9693,4.9693,4.9693,4.9809,5.0042,5.0564,5.0913,5.1378,5.2539,5.294,5.3102,5.3102,5.2917,5.2434,5.1511,5.035,4.9192,4.8268,4.7087,4.6301,4.6301,4.6301,4.615,4.5723,4.5171,4.4564,4.4041,4.2582,4.1578,4.1327,4.0399,3.9873,3.9873,4.04,4.0725,4.0852,4.2007,4.2359,4.1833,4.1254,4.0675,4.0149,3.9722,3.8994,3.8015,3.7889,3.7287,4.1922,4.3921,4.6824,5.0946,0.0,5.8552,5.9539,6.0032,5.9916,0.0,0.0,0.0,0.0,0.0,0.0,0.0,0.0,0.0,0.0,0.0,0.0,0.0,0.0,0.0,0.0,0.0,0.0,0.0,0.0,0.0,0.0,0.0,0.0,0.0,0.0,0.0,5.2597,5.2281,5.2107,5.2107,5.1788,5.1762,5.2136,5.2455,5.2426,5.2165,5.2165,5.2165,5.2165,5.2165,5.2136,5.2049,5.141,5.0975,5.0622,4.9954,4.9693,4.9693,4.9693,4.9925,5.0216,5.0187,5.0187,5.0216,5.0187,4.9954,4.978,5.01,4.9954,4.9838,5.0535,5.071,5.0855,5.1523,5.2394,5.3152,5.3442,5.3474,5.3316,5.2675,5.1127,4.9675,4.9049,4.7501,4.6301,4.6301,4.6301,4.62,4.5924,4.5146,4.4489,4.4188,4.2457,4.1302,4.1302,4.0325,3.9697,3.9697,4.0199,4.0499,4.0499,4.1605,4.1932,4.1406,4.0827,4.04,4.0124,3.9295,3.8592,3.799,3.7462,3.6934,4.2215,4.4908,4.86,5.33,5.6345,0.0,5.9132,5.9306,5.9306,0.0,0.0,0.0,0.0,0.0,0.0,0.0,0.0,0.0,0.0,0.0,0.0,0.0,0.0,0.0,0.0,0.0,0.0,0.0,0.0,0.0,0.0,0.0,0.0,0.0,0.0,5.2481,5.2278,5.173,5.141,5.1269,5.1153,5.1037,5.0975,5.1037,5.0946,5.071,5.071,5.0622,5.0535,5.0535,5.0888,5.1381,5.0768,5.0593,5.0622,4.9954,4.9693,4.9693,4.9693,4.978,4.9954,5.039,5.0303,5.01,5.0419,5.0216,4.9954,5.039,5.0216,5.0013,5.0564,5.071,5.0739,5.0826,5.1581,5.2481,5.3181,5.3442,5.3474,5.3474,5.1702,5.0126,4.9929,4.8265,4.6845,4.6636,4.6606,4.6465,4.608,4.5167,4.4514,4.4338,4.2507,4.1352,4.1453,4.0375,3.9747,3.9823,4.0174,4.0349,4.0349,4.0775,4.0826,4.0349,4.0023,3.9848,3.9848,3.8793,3.8241,3.814,3.7235,3.6732,4.3551,4.6882,5.0859,5.3791,5.5997,5.7768,0.0,0.0,5.9306,0.0,0.0,0.0,0.0,0.0,0.0,0.0,0.0,0.0,0.0,0.0,0.0,0.0,0.0,0.0,0.0,0.0,0.0,0.0,0.0,0.0,0.0,5.3474,5.3268,5.2743,5.2626,0.0,5.0971,5.0855,5.0535,4.9954,4.9354,4.8827,4.8328,4.8832,4.9698,5.071,5.071,5.0365,4.9818,4.9818,5.022,5.0768,5.01,5.0187,5.0622,4.9954,4.9693,4.9693,4.9693,5.0071,5.0477,4.9983,5.0511,5.1178,5.0158,5.0187,5.0448,4.9954,5.0187,5.0593,5.0681,5.071,5.0826,5.1381,5.1207,5.129,5.2452,5.3123,5.3474,5.3474,5.2407,5.1127,5.007,4.9619,4.9049,4.8006,4.786,4.7114,4.5087,4.469,4.4242,4.3288,4.2055,4.1503,4.2034,4.0627,3.9898,4.0349,4.0023,3.9798,3.9798,3.9873,3.9873,3.9798,4.0199,4.0374,4.04,3.9772,3.922,3.8768,3.8617,3.8039,4.5569,4.8096,5.0768,5.3297,5.5097,5.649,5.7477,0.0,0.0,0.0,0.0,0.0,0.0,0.0,0.0,0.0,0.0,0.0,0.0,0.0,0.0,0.0,0.0,0.0,0.0,0.0,0.0,0.0,0.0,0.0,5.3474,5.3181,5.2888,5.2597,5.1527,0.0,5.0162,4.9432,4.8938,4.8618,4.8333,4.8043,4.7805,4.8072,4.8304,4.8537,4.8909,4.8682,4.8077,4.8077,4.8658,4.9553,4.9262,4.9553,5.01,4.9809,4.9693,4.9693,4.9693,4.9896,5.0158,5.0245,5.039,5.0481,5.0332,5.0187,5.0158,5.0245,5.0477,5.071,5.071,5.071,5.0681,5.054,5.0622,5.0855,5.1407,5.2307,5.2882,5.2564,5.2055,5.1319,5.0098,4.9901,4.9477,4.8297,4.8094,4.737,4.5343,4.4819,4.4288,4.3514,4.2459,4.1756,4.1706,4.0752,4.0124,4.0049,3.9823,3.9697,3.9697,3.9697,3.9697,3.9697,3.9923,4.0049,4.0049,3.9496,3.9145,3.8894,3.8567,3.8115,4.6295,4.8009,4.9524,5.1933,5.3733,5.5097,0.0,0.0,0.0,0.0,0.0,0.0,0.0,0.0,0.0,0.0,0.0,0.0,0.0,0.0,0.0,0.0,0.0,0.0,0.0,0.0,0.0,0.0,0.0,0.0,5.3268,5.2539,5.2046,5.1871,5.0307,4.9383,4.9233,4.8101,4.755,4.7521,4.7399,4.7312,4.7312,4.7462,4.7201,4.6598,4.7259,4.7259,4.6801,4.6627,4.741,4.8687,4.8513,4.8972,4.9693,4.9693,4.9693,4.9693,4.9693,4.9693,4.978,5.0274,5.0216,5.0013,5.0361,5.0216,5.0013,5.0361,5.0564,5.071,5.071,5.071,5.0564,5.0071,5.0216,5.0535,5.0855,5.1813,5.248,5.2012,5.205,5.1866,5.0989,5.0823,5.0406,4.9192,4.8656,4.7733,4.5941,4.4972,4.4192,4.3639,4.2637,4.1831,4.1528,4.075,4.0199,3.9923,3.9772,3.9697,3.9697,3.9697,3.9697,3.9697,3.9697,3.9697,3.9697,3.9296,3.9095,3.9095,3.8642,3.8366,4.4523,4.5982,4.741,4.9403,5.1759,5.3764,0.0,0.0,0.0,0.0,0.0,0.0,0.0,0.0,0.0,0.0,0.0,0.0,0.0,0.0,0.0,0.0,0.0,0.0,0.0,0.0,0.0,0.0,0.0,0.0,5.2655,5.1465,5.0511,4.9876,4.9151,4.8478,4.7921,4.7178,4.6859,4.6859,4.6272,4.6005,4.6034,4.6569,4.6511,4.5982,4.6569,4.683,4.6772,4.6185,4.7027,4.8629,4.8072,4.8618,4.9693,4.9693,4.9693,4.9693,4.9693,4.9693,4.9722,4.9751,5.0158,5.0535,4.9925,5.0158,5.0506,4.9925,5.0216,5.071,5.071,5.071,5.0681,5.0651,5.0187,5.01,5.1269,5.2107,5.2572,5.2549,5.3016,5.3395,5.3316,5.3316,5.289,5.1674,5.0106,4.8427,4.6584,4.4854,4.3639,4.3115,4.2005,4.1553,4.211,4.0678,3.9948,4.0424,3.9973,3.9697,3.9697,3.9697,3.9697,3.9697,3.9697,3.9697,3.9697,3.9672,3.9647,3.9647,3.9622,3.932,4.5249,4.6156,4.7265,4.9233,5.0714,5.1875,5.2514,0.0,0.0,0.0,0.0,0.0,0.0,0.0,0.0,0.0,0.0,0.0,0.0,0.0,0.0,0.0,0.0,0.0,0.0,0.0,0.0,0.0,0.0,0.0,5.1991,5.0743,4.9731,4.9093,4.8019,4.7178,4.6585,4.633,4.6214,4.6214,4.5982,4.5917,4.5917,4.6127,4.6098,4.5917,4.6127,4.6214,4.6214,4.5982,4.6766,4.8101,4.7892,4.8589,4.9693,4.9693,4.9693,4.9693,4.9693,4.9693,4.9693,4.9693,4.9867,5.0013,4.978,4.9867,5.0013,4.978,5.0187,5.0593,5.0158,5.039,5.0593,5.0158,4.9867,4.9838,5.0278,5.0913,5.1494,5.1875,5.2136,5.2426,5.2859,5.2917,5.2526,5.1302,5.0594,4.9118,4.62,4.5939,4.5213,4.3232,4.3298,4.3129,4.2267,4.1279,4.065,4.0499,4.0325,4.0074,3.9697,4.0023,4.0049,3.9697,3.9697,3.9697,3.9697,3.9697,3.9697,3.9697,3.9697,3.9597,4.5082,0.0,0.0,0.0,4.9872,5.0511,5.1149,0.0,0.0,0.0,0.0,0.0,0.0,0.0,0.0,0.0,0.0,0.0,0.0,0.0,0.0,0.0,0.0,0.0,0.0,0.0,0.0,0.0,0.0,0.0,5.0979,4.9528,4.8426,4.7758,4.6917,4.633,4.5917,4.5917,4.5917,4.5917,4.5917,4.5917,4.5917,4.5917,4.5917,4.5917,4.5917,4.6011,4.6185,4.5982,4.6644,4.7776,4.755,4.8125,4.9083,4.9291,4.9349,4.9378,4.9635,4.9693,4.9693,4.9693,4.9693,4.9693,4.9693,4.9693,4.9693,4.9693,5.0013,5.0274,4.9809,5.0042,5.0245,4.9809,4.9693,4.9693,4.9693,5.0216,5.0826,5.1207,5.1468,5.1759,5.2165,5.2252,5.1992,5.1183,5.0564,4.9348,4.7002,4.6813,4.6062,4.3819,4.408,4.3743,4.2041,4.1528,4.1076,4.0524,4.0675,4.0524,3.9998,4.0325,4.0249,3.9697,3.9697,3.9697,3.9697,3.9697,3.9697,3.9697,3.9697,3.9697,0.0,0.0,0.0,0.0,0.0,0.0,5.0448,0.0,0.0,0.0,0.0,0.0,0.0,0.0,0.0,0.0,0.0,0.0,0.0,0.0,0.0,0.0,0.0,0.0,0.0,0.0,0.0,0.0,0.0,4.9673,4.9644,4.7816,4.6511,4.5917,4.5917,4.5917,4.5917,4.5917,4.5917,4.5917,4.5917,4.5917,4.5917,4.5917,4.5917,4.5917,4.5917,4.6243,4.6743,4.6127,4.6644,4.7718,4.7033,4.723,4.7863,4.8484,4.8687,4.8803,4.949,4.9693,4.9693,4.9717,4.9717,4.9717,4.9693,4.9693,4.9693,4.9693,4.9693,4.9693,4.9693,4.9693,4.9693,4.9693,4.9693,4.9693,4.9693,5.0216,5.0681,5.0681,5.1149,5.153,5.1559,5.1559,5.1559,5.1559,5.0144,4.9052,4.8998,4.7458,4.5979,4.4805,4.42,4.32,4.1483,4.1352,4.1102,4.0575,4.1051,4.1076,4.0524,4.0499,4.0275,3.9697,3.9697,3.9697,3.9697,3.9697,3.9697,3.9697,3.9697,3.9697,4.4727,0.0,0.0,0.0,0.0,0.0,4.7845,4.8571,0.0,0.0,0.0,0.0,0.0,0.0,0.0,0.0,0.0,0.0,0.0,0.0,0.0,0.0,0.0,0.0,0.0,0.0,0.0,0.0,5.0303,4.9291,4.8362,4.694,4.6069,4.5917,4.5917,4.5917,4.5917,4.5917,4.5917,4.5917,4.5917,4.5917,4.5917,4.5917,4.5917,4.5917,4.5917,4.5982,4.6127,4.5953,4.6359,4.7062,4.6888,4.723,4.7863,4.8484,4.8687,4.8827,4.9683,4.999,5.0014,5.0207,5.0255,5.0231,5.0062,4.999,4.9965,4.9742,4.9693,4.9742,4.9941,4.9868,4.9742,4.9941,4.9815,4.9693,4.9693,4.9838,4.9983,4.9983,5.0129,5.0365,5.0884,5.0971,5.0971,5.0971,5.0547,4.9753,4.8432,4.8563,4.7714,4.4993,4.5236,4.4758,4.2728,4.2158,4.1884,4.1733,4.1884,4.1505,4.0524,4.0876,4.0625,3.9722,3.9697,3.9697,3.9697,3.9697,3.9697,3.9697,3.9697,3.9697,0.0,0.0,0.0,0.0,0.0,0.0,4.6743,4.6946,4.7248,0.0,0.0,0.0,0.0,0.0,0.0,0.0,0.0,0.0,0.0,0.0,0.0,0.0,0.0,0.0,0.0,0.0,0.0,0.0,4.9241,4.8302,4.7188,4.634,4.5917,4.5917,4.5917,4.5962,4.6023,4.5933,4.6007,4.6209,4.6068,4.6023,4.6023,4.6023,4.5978,4.5917,4.5978,4.6023,4.6023,4.6164,4.6324,4.6554,4.6667,4.6946,4.7407,4.8267,4.8617,4.8758,4.9884,5.0255,5.025,5.0129,5.0265,5.0418,4.998,5.005,5.0231,5.0086,5.0038,5.0062,5.0231,5.0135,5.0062,5.0231,5.0135,5.0014,4.9892,4.9892,4.9815,4.9717,4.9693,4.9809,5.0216,5.0274,5.0274,5.0274,5.0274,4.9907,4.8831,4.9272,4.8777,4.6347,4.6216,4.5502,4.3491,4.2838,4.2436,4.2213,4.2386,4.2007,4.0876,4.1379,4.1153,4.0049,4.0049,3.9923,3.9697,3.9697,3.9697,3.9697,3.9697,3.9697,0.0,0.0,0.0,0.0,0.0,0.0,4.6598,4.5924,4.5395,0.0,0.0,0.0,0.0,0.0,0.0,0.0,0.0,0.0,0.0,0.0,0.0,0.0,0.0,0.0,0.0,0.0,4.9004,4.8916,4.7982,4.7064,4.6254,4.6046,4.5985,4.5985,4.5985,4.6046,4.6247,4.6068,4.6209,4.6609,4.6358,4.6247,4.6247,4.6247,4.6135,4.6007,4.618,4.6247,4.6269,4.6513,4.6469,4.6269,4.6491,4.6609,4.6757,4.7942,4.8443,4.8679,4.9964,5.0489,5.043,4.9887,5.0094,5.0454,4.9811,5.0047,5.0548,5.0501,5.0501,5.0501,5.0548,5.0525,5.0501,5.0548,5.0525,5.0429,5.0183,5.011,5.0038,4.979,4.9717,4.9693,4.9693,4.9693,4.9693,4.9693,4.9693,4.9693,4.9693,4.9693,4.9248,4.8122,4.71,4.5789,4.4044,4.346,4.2927,4.2338,4.2738,4.2509,4.1453,4.1831,4.1632,4.06,4.0524,4.0249,3.9697,3.9697,3.9697,3.9697,3.9697,3.9697,0.0,0.0,0.0,0.0,0.0,0.0,4.6272,4.6702,4.7329,0.0,0.0,0.0,0.0,0.0,0.0,0.0,0.0,0.0,0.0,0.0,0.0,0.0,0.0,0.0,0.0,0.0,4.8404,4.7851,4.7183,4.6616,4.6225,4.6358,4.6476,4.6476,4.6476,4.6469,4.6513,4.6469,4.6491,4.6609,4.6535,4.6513,4.6513,4.6513,4.6491,4.6476,4.6491,4.6513,4.6535,4.6756,4.6712,4.6513,4.6558,4.6609,4.6698,4.7419,4.8038,4.8666,4.9673,5.0336,5.0745,5.0839,5.0945,5.1011,5.065,5.0633,5.0704,5.0572,5.0501,5.0548,5.068,5.0614,5.0548,5.0704,5.0614,5.0501,5.0429,5.0231,5.0086,5.0038,4.9868,4.9693,4.9693,4.9693,4.9693,4.9693,4.9693,4.9693,4.9693,4.9693,4.9248,4.8122,4.7819,4.6813,4.4701,4.4428,4.3936,4.2894,4.2939,4.2713,4.206,4.1681,4.1378,4.1152,4.0725,4.0249,3.9697,3.9697,3.9697,3.9697,3.9697,3.9697,0.0,0.0,0.0,4.6359,0.0,0.0,0.0,4.6046,4.6113,4.6387,0.0,0.0,0.0,0.0,0.0,0.0,0.0,0.0,0.0,0.0,0.0,0.0,0.0,0.0,0.0,0.0,4.7412,4.7088,4.6645,4.6403,4.6403,4.6403,4.6447,4.6609,4.6609,4.6675,4.6756,4.6646,4.6719,4.6961,4.68,4.6756,4.6756,4.6756,4.669,4.6631,4.669,4.6756,4.6756,4.6997,4.7019,4.6961,4.6961,4.6961,4.702,4.7652,4.8097,4.8528,4.9319,4.9998,5.0475,5.0315,5.069,5.1122,5.0647,5.0719,5.0964,5.0876,5.0852,5.0876,5.0964,5.0923,5.0876,5.0964,5.0923,5.0805,5.0686,5.0537,5.0418,5.0303,5.0086,4.9868,4.9717,4.9693,4.9693,4.9693,4.9693,4.9693,4.9693,4.9693,4.9473,4.8902,4.8324,4.7564,4.6425,4.5315,4.4479,4.3878,4.3323,4.2763,4.2238,4.2158,4.1879,4.1327,4.1051,4.0499,3.9697,3.9697,3.9697,3.9697,3.9697,3.9697,0.0,0.0,0.0,0.0,0.0,4.5943,0.0,0.0,0.0,4.5232,0.0,0.0,0.0,0.0,0.0,0.0,0.0,0.0,0.0,0.0,0.0,0.0,0.0,0.0,0.0,0.0,4.6601,4.6292,4.6484,4.6579,4.6498,4.6454,4.6513,4.6741,4.6741,4.68,4.6975,4.68,4.6939,4.7309,4.7084,4.6975,4.6975,4.6975,4.6887,4.6734,4.6909,4.6975,4.6997,4.7222,4.7309,4.7309,4.7309,4.7309,4.7369,4.7908,4.8199,4.8379,4.8917,4.9494,4.9949,4.9456,4.9995,5.0727,5.0338,5.0488,5.084,5.084,5.0907,5.0996,5.0996,5.1086,5.1206,5.1206,5.1206,5.1129,5.0917,5.0846,5.0751,5.0591,5.0351,5.0086,4.9815,4.9717,4.9693,4.9693,4.9693,4.9693,4.9693,4.9693,4.9693,4.9693,4.8877,4.8223,4.8021,4.6347,4.5154,4.4724,4.3823,4.3038,4.2389,4.2763,4.2409,4.1177,4.1252,4.0775,3.9697,3.9697,3.9697,3.9697,3.9697,3.9697,0.0,0.0,0.0,0.0,4.8179,0.0,0.0,0.0,4.7861,4.7369,0.0,0.0,0.0,0.0,0.0,0.0,0.0,0.0,0.0,0.0,0.0,0.0,0.0,0.0,0.0,0.0,0.0,4.5276,4.6965,4.7471,4.6146,4.6764,4.7201,4.7222,4.7222,4.7244,4.7266,4.7244,4.7244,4.7309,4.7287,4.7266,4.7266,4.7266,4.7244,4.7222,4.7244,4.7266,4.7266,4.7287,4.7309,4.7309,4.7309,4.7309,4.7309,4.7399,4.7788,4.8319,4.8409,4.8858,4.9396,4.9307,4.9396,4.9606,5.0069,4.9883,4.9516,4.9516,4.9912,5.0315,5.0315,5.0757,5.1206,5.1206,5.1206,5.1206,5.1182,5.0964,5.0769,5.0775,5.0614,5.0381,5.011,4.9868,4.9693,4.9693,4.9693,4.9693,4.9693,4.9693,4.9693,4.9693,4.9571,4.91,4.8097,4.7768,4.679,4.4805,4.4561,4.4044,4.2942,4.2964,4.2233,4.0625,4.1076,4.0775,3.9697,3.9697,3.9697,3.9697,3.9697,3.9697,0.0,0.0,0.0,0.0,0.0,0.0,0.0,0.0,4.7182,0.0,0.0,0.0,0.0,0.0,0.0,0.0,0.0,0.0,0.0,0.0,0.0,0.0,0.0,0.0,0.0,0.0,0.0,0.0,0.0,4.6175,4.489,4.5917,4.659,4.6719,4.71,4.7309,4.7309,4.7309,4.7309,4.7309,4.7309,4.7309,4.7309,4.7309,4.7309,4.7309,4.7309,4.7309,4.7309,4.7309,4.7309,4.7309,4.7309,4.7309,4.7309,4.7309,4.7489,4.7728,4.7728,4.8147,4.8768,4.9157,4.9277,4.9337,4.9583,4.9516,4.9277,4.9277,4.9733,5.0196,5.0196,5.0697,5.1206,5.1206,5.0907,5.0727,5.1116,5.0807,5.0564,5.0975,5.0822,5.0662,5.0513,5.0178,4.9941,4.9941,4.9941,4.9941,4.9941,4.9941,4.9892,4.9717,4.9693,4.9522,4.9026,4.8374,4.7615,4.666,4.6005,4.5422,4.494,4.4317,4.3344,4.1981,4.1524,4.0775,3.9697,3.9697,3.9697,3.9697,3.9697,3.9697,4.8359,0.0,0.0,0.0,0.0,0.0,0.0,0.0,0.0,0.0,0.0,0.0,0.0,0.0,0.0,0.0,0.0,0.0,0.0,0.0,0.0,0.0,0.0,0.0,0.0,0.0,0.0,0.0,4.5196,0.0,4.3903,4.5084,4.5951,4.63,4.6929,4.7309,4.7309,4.7309,4.7309,4.7309,4.7309,4.7309,4.7309,4.7309,4.7309,4.7309,4.7309,4.7309,4.7309,4.7309,4.7309,4.7309,4.7309,4.7309,4.7309,4.7309,4.7309,4.7309,4.7309,4.7608,4.8139,4.8798,4.8887,4.8798,4.8977,4.8887,4.8738,4.8738,4.9314,4.9949,4.9949,5.0578,5.1206,5.1206,5.0817,5.0607,5.1086,5.0817,5.0637,5.1116,5.1035,5.0893,5.0793,5.0466,5.0207,5.0207,5.0207,5.0207,5.0207,5.0207,5.011,4.9815,4.979,4.9766,4.9693,4.8951,4.8324,4.8021,4.6945,4.6293,4.6293,4.5395,4.4415,4.3462,4.2161,4.1047,4.0109,3.9826,3.9697,3.9697,3.9697,3.9697,0.0,0.0,0.0,0.0,0.0,0.0,0.0,0.0,4.803,0.0,0.0,0.0,0.0,0.0,0.0,0.0,0.0,0.0,0.0,0.0,0.0,0.0,0.0,0.0,0.0,0.0,0.0,0.0,4.7078,0.0,4.3499,4.4596,4.5613,4.6271,4.6929,4.7309,4.7309,4.7309,4.7309,4.7309,4.7309,4.7309,4.7309,4.7309,4.7309,4.7309,4.7309,4.7309,4.7309,4.7309,4.7309,4.7309,4.7309,4.7309,4.7309,4.7309,4.7309,4.7309,4.7309,4.7309,4.7429,4.8087,4.7878,4.7489,4.8139,4.7878,4.7369,4.7369,4.8319,4.9307,4.9307,5.0242,5.1206,5.1206,5.1176,5.1176,5.1206,5.1176,5.1176,5.1206,5.1206,5.1082,5.0846,5.0638,5.0501,5.0501,5.0501,5.0501,5.0501,5.0501,5.0381,5.011,5.0086,4.999,4.9717,4.9669,4.9149,4.8072,4.6945,4.6293,4.6293,4.5699,4.5129,4.4556,4.2907,4.1771,4.1144,4.016,3.9697,3.9697,3.9697,3.9697,0.0,0.0,5.056,4.9273,0.0,0.0,0.0,0.0,0.0,0.0,0.0,0.0,0.0,0.0,0.0,0.0,0.0,0.0,0.0,0.0,0.0,0.0,0.0,0.0,0.0,0.0,0.0,4.293,4.296,4.2761,0.0,4.29,4.4068,4.5603,4.6271,4.6839,4.7309,4.7309,4.7309,4.7309,4.7309,4.7309,4.7309,4.7309,4.7309,4.7309,4.7309,4.7309,4.7309,4.7309,4.7309,4.7309,4.7309,4.7309,4.7309,4.7309,4.7309,4.7309,4.7309,4.7309,4.7339,4.7549,4.7489,4.7339,4.7578,4.7489,4.7309,4.7309,4.7938,4.8648,4.8648,4.9307,5.0032,5.0458,5.0242,5.0032,5.0458,5.0242,5.0062,5.0458,5.0548,5.0644,5.0999,5.1017,5.0899,5.0728,5.068,5.068,5.068,5.068,5.0614,5.0405,5.0207,5.0062,4.9965,4.979,4.9547,4.9149,4.8749,4.8549,4.8549,4.762,4.6876,4.6339,4.3922,4.2421,4.1871,4.0415,3.9697,3.9697,3.9697,3.9697,4.9905,5.0354,0.0,0.0,4.9345,0.0,0.0,0.0,0.0,0.0,0.0,0.0,0.0,0.0,0.0,0.0,0.0,0.0,0.0,0.0,0.0,0.0,0.0,0.0,0.0,0.0,4.5274,4.1673,4.1444,4.1324,0.0,0.0,4.305,4.5214,4.5942,4.6629,4.7309,4.7309,4.7309,4.7309,4.7309,4.7309,4.7309,4.7309,4.7309,4.7309,4.7309,4.7309,4.7309,4.7309,4.7309,4.7309,4.7309,4.7309,4.7309,4.7309,4.7309,4.7309,4.7309,4.7309,4.7309,4.7309,4.7309,4.7309,4.7309,4.7309,4.7369,4.7578,4.7967,4.8349,4.8588,4.9157,4.9643,4.9853,4.9763,4.9673,4.9853,4.9733,4.9733,5.0129,5.0398,5.0697,5.1116,5.1206,5.1129,5.0964,5.0941,5.0941,5.0941,5.0941,5.0846,5.0638,5.0447,5.0303,5.011,4.9941,4.979,4.9693,4.9693,4.9693,4.9693,4.8776,4.8201,4.8105,4.5301,4.3748,4.3612,4.1359,4.0211,4.0211,3.9852,3.9697]}]]